[[{"header":{"parameterUnit":"m.s-1","parameterCategory":1,"la1":30.6,"la2":29.2853,"lo1":-89.7004,"lo2":-87.6739,"dy":0.0162,"dx":0.0183,"nx":112,"ny":82,"refTime":"2023-05-20T00:00:00:Z","depth":0,"parameterNumber":2,"parameterNumberName":"U-component_of_WINDS"},"data":[0.0,0.0,0.0,0.0,0.0,0.0,0.0,0.0,0.0,0.0,0.0,0.0,0.0,0.0,0.0,0.0,0.0,0.0,0.0,0.0,0.0,0.0,0.0,0.0,0.0,0.0,0.0,0.0,0.0,0.0,0.0,0.0,0.0,0.0,0.0,0.0,0.0,0.0,0.0,0.0,0.0,0.0,0.0,0.0,0.0,0.0,0.0,0.0,0.0,0.0,0.0,0.0,0.0,0.0,0.0,0.0,0.0,0.0,0.0,0.0,0.0,0.0,0.0,0.0,0.0,0.0,0.0,0.0,0.0,0.0,0.0,0.0,0.0,0.0,0.0,0.0,0.0,0.0,0.0,0.0,0.0,0.0,0.0,0.0,0.0,0.0,0.0,0.0,0.0,0.0,3.1158,3.1843,3.2636,3.3102,3.3102,3.3102,3.2702,3.1749,0.0,0.0,0.0,0.0,0.0,0.0,0.0,0.0,0.0,0.0,0.0,0.0,0.0,0.0,0.0,0.0,0.0,0.0,0.0,0.0,0.0,0.0,0.0,0.0,0.0,0.0,0.0,0.0,0.0,0.0,0.0,0.0,0.0,0.0,0.0,0.0,0.0,0.0,0.0,0.0,0.0,0.0,0.0,0.0,0.0,0.0,0.0,0.0,0.0,0.0,0.0,0.0,0.0,0.0,0.0,0.0,0.0,0.0,0.0,0.0,0.0,0.0,0.0,0.0,0.0,0.0,0.0,0.0,0.0,0.0,0.0,0.0,0.0,0.0,0.0,0.0,0.0,0.0,0.0,0.0,0.0,0.0,0.0,0.0,0.0,0.0,0.0,0.0,0.0,0.0,0.0,0.0,0.0,0.0,0.0,0.0,0.0,0.0,0.0,0.0,0.0,0.0,0.0,0.0,3.1408,3.2747,3.3004,3.3102,3.3102,3.3102,3.2702,3.1749,0.0,0.0,0.0,0.0,0.0,0.0,0.0,0.0,0.0,0.0,0.0,0.0,0.0,0.0,0.0,0.0,0.0,0.0,0.0,0.0,0.0,0.0,0.0,0.0,0.0,0.0,0.0,0.0,0.0,0.0,0.0,0.0,0.0,0.0,0.0,0.0,0.0,0.0,0.0,0.0,0.0,0.0,0.0,0.0,0.0,0.0,0.0,0.0,0.0,0.0,0.0,0.0,0.0,0.0,0.0,0.0,0.0,0.0,0.0,0.0,0.0,0.0,0.0,0.0,0.0,0.0,0.0,0.0,0.0,0.0,0.0,0.0,0.0,0.0,0.0,0.0,0.0,0.0,0.0,0.0,0.0,0.0,0.0,0.0,0.0,0.0,0.0,0.0,0.0,0.0,0.0,0.0,0.0,0.0,0.0,0.0,0.0,0.0,0.0,0.0,0.0,0.0,0.0,3.0673,3.1353,3.292,3.3102,3.3102,3.3102,3.3102,3.2702,3.1749,3.1705,0.0,0.0,0.0,0.0,0.0,0.0,0.0,0.0,0.0,0.0,0.0,0.0,0.0,0.0,0.0,0.0,0.0,0.0,0.0,0.0,0.0,0.0,0.0,0.0,0.0,0.0,0.0,0.0,0.0,0.0,0.0,0.0,0.0,0.0,0.0,0.0,0.0,0.0,0.0,0.0,0.0,0.0,0.0,0.0,0.0,0.0,0.0,0.0,0.0,0.0,0.0,0.0,0.0,0.0,0.0,0.0,0.0,0.0,0.0,0.0,0.0,0.0,0.0,0.0,0.0,0.0,0.0,0.0,0.0,0.0,0.0,0.0,0.0,0.0,0.0,0.0,0.0,0.0,0.0,0.0,0.0,0.0,0.0,0.0,0.0,0.0,0.0,0.0,0.0,0.0,0.0,0.0,0.0,0.0,0.0,0.0,0.0,0.0,0.0,0.0,0.0,0.0,3.0968,3.1681,3.2966,3.3102,3.3102,3.3102,3.3102,3.2702,3.1749,3.1705,0.0,0.0,0.0,0.0,0.0,0.0,0.0,0.0,0.0,0.0,0.0,0.0,0.0,0.0,0.0,0.0,0.0,0.0,0.0,0.0,0.0,0.0,0.0,0.0,0.0,0.0,0.0,0.0,0.0,0.0,0.0,0.0,0.0,0.0,0.0,0.0,0.0,0.0,0.0,0.0,0.0,0.0,0.0,0.0,0.0,0.0,0.0,0.0,0.0,0.0,0.0,0.0,0.0,0.0,0.0,0.0,0.0,0.0,0.0,0.0,0.0,0.0,0.0,0.0,0.0,0.0,0.0,0.0,0.0,0.0,0.0,0.0,0.0,0.0,0.0,0.0,0.0,0.0,0.0,0.0,0.0,0.0,0.0,0.0,0.0,0.0,0.0,0.0,0.0,0.0,0.0,0.0,0.0,0.0,0.0,0.0,0.0,0.0,0.0,0.0,0.0,0.0,3.1666,3.2966,3.309,3.3102,3.3102,3.3102,3.3102,3.2702,3.1749,3.1705,0.0,0.0,0.0,0.0,0.0,0.0,0.0,0.0,0.0,0.0,0.0,0.0,0.0,0.0,0.0,0.0,0.0,0.0,0.0,0.0,0.0,0.0,0.0,0.0,0.0,0.0,0.0,0.0,0.0,0.0,0.0,0.0,0.0,0.0,0.0,0.0,0.0,0.0,0.0,0.0,0.0,0.0,0.0,0.0,0.0,0.0,0.0,0.0,0.0,0.0,0.0,0.0,0.0,0.0,0.0,0.0,0.0,0.0,0.0,0.0,0.0,0.0,0.0,0.0,0.0,0.0,0.0,0.0,0.0,0.0,0.0,0.0,0.0,0.0,0.0,0.0,0.0,0.0,0.0,0.0,0.0,0.0,0.0,0.0,0.0,0.0,0.0,0.0,0.0,0.0,0.0,0.0,0.0,0.0,0.0,0.0,0.0,0.0,0.0,0.0,0.0,0.0,3.0553,3.1392,3.2945,3.3102,3.3102,3.3102,3.3102,3.2702,3.1749,0.0,0.0,0.0,0.0,0.0,0.0,0.0,0.0,0.0,0.0,0.0,0.0,0.0,0.0,0.0,0.0,0.0,0.0,0.0,0.0,0.0,0.0,0.0,0.0,0.0,0.0,0.0,0.0,0.0,0.0,0.0,0.0,0.0,0.0,0.0,0.0,0.0,0.0,0.0,0.0,0.0,0.0,0.0,0.0,0.0,0.0,0.0,0.0,0.0,0.0,0.0,0.0,0.0,0.0,0.0,0.0,0.0,0.0,0.0,0.0,0.0,0.0,0.0,0.0,0.0,0.0,0.0,0.0,0.0,0.0,0.0,0.0,0.0,0.0,0.0,0.0,0.0,0.0,0.0,0.0,0.0,0.0,0.0,0.0,0.0,0.0,0.0,0.0,0.0,0.0,0.0,0.0,0.0,0.0,0.0,0.0,0.0,0.0,0.0,0.0,0.0,0.0,3.0227,3.0496,3.1214,3.2923,3.3102,3.3102,3.3102,3.3102,3.2702,3.1749,0.0,0.0,0.0,0.0,0.0,0.0,0.0,0.0,0.0,0.0,0.0,0.0,0.0,0.0,0.0,0.0,0.0,0.0,0.0,0.0,0.0,0.0,0.0,0.0,0.0,0.0,0.0,0.0,0.0,0.0,0.0,0.0,0.0,0.0,0.0,0.0,0.0,0.0,0.0,0.0,0.0,0.0,0.0,0.0,0.0,0.0,0.0,0.0,0.0,0.0,0.0,0.0,0.0,0.0,0.0,0.0,0.0,0.0,0.0,0.0,0.0,0.0,0.0,0.0,0.0,0.0,0.0,0.0,0.0,0.0,0.0,0.0,0.0,0.0,0.0,0.0,0.0,0.0,0.0,0.0,0.0,0.0,0.0,0.0,0.0,0.0,0.0,0.0,0.0,0.0,0.0,0.0,0.0,0.0,0.0,0.0,0.0,0.0,0.0,0.0,0.0,0.0,3.0166,3.1902,3.3068,3.3102,3.3102,3.3102,3.3102,3.3102,3.2702,0.0,0.0,0.0,0.0,0.0,0.0,0.0,0.0,0.0,0.0,0.0,0.0,0.0,0.0,0.0,0.0,0.0,0.0,0.0,0.0,0.0,0.0,0.0,0.0,0.0,0.0,0.0,0.0,0.0,0.0,0.0,0.0,0.0,0.0,0.0,0.0,0.0,0.0,0.0,0.0,0.0,0.0,0.0,0.0,0.0,0.0,0.0,0.0,0.0,0.0,0.0,0.0,0.0,0.0,0.0,0.0,0.0,0.0,0.0,0.0,0.0,0.0,0.0,0.0,0.0,0.0,0.0,0.0,0.0,0.0,0.0,0.0,0.0,0.0,0.0,0.0,0.0,0.0,0.0,0.0,0.0,0.0,0.0,0.0,0.0,0.0,0.0,0.0,0.0,0.0,0.0,0.0,0.0,0.0,0.0,0.0,0.0,0.0,0.0,0.0,0.0,0.0,0.0,3.049,3.1318,3.2096,3.3004,3.3102,3.3102,3.3102,3.3102,3.2485,3.1011,0.0,0.0,0.0,0.0,0.0,0.0,0.0,0.0,0.0,0.0,0.0,0.0,0.0,0.0,0.0,0.0,0.0,0.0,0.0,0.0,0.0,0.0,0.0,0.0,0.0,0.0,0.0,0.0,0.0,0.0,0.0,0.0,0.0,0.0,0.0,0.0,0.0,0.0,0.0,0.0,0.0,0.0,0.0,0.0,0.0,0.0,0.0,0.0,0.0,0.0,0.0,0.0,0.0,0.0,0.0,0.0,0.0,0.0,0.0,0.0,0.0,0.0,0.0,0.0,0.0,0.0,0.0,0.0,0.0,0.0,0.0,0.0,0.0,0.0,0.0,0.0,0.0,0.0,0.0,0.0,0.0,0.0,0.0,0.0,0.0,0.0,0.0,0.0,0.0,0.0,0.0,0.0,0.0,0.0,0.0,0.0,0.0,0.0,0.0,0.0,0.0,0.0,3.0237,3.0889,3.1689,3.2961,3.3102,3.3102,3.3102,3.3102,3.2587,3.1378,0.0,0.0,0.0,0.0,0.0,0.0,0.0,0.0,0.0,0.0,0.0,0.0,0.0,0.0,0.0,0.0,0.0,0.0,0.0,0.0,0.0,0.0,0.0,0.0,0.0,0.0,0.0,0.0,0.0,0.0,0.0,0.0,0.0,0.0,0.0,0.0,0.0,0.0,0.0,0.0,0.0,0.0,0.0,0.0,0.0,0.0,0.0,0.0,0.0,0.0,0.0,0.0,0.0,0.0,0.0,0.0,0.0,0.0,0.0,0.0,0.0,0.0,0.0,0.0,0.0,0.0,0.0,0.0,0.0,0.0,0.0,0.0,0.0,0.0,0.0,0.0,0.0,0.0,0.0,0.0,0.0,0.0,0.0,0.0,0.0,0.0,0.0,0.0,0.0,0.0,0.0,0.0,0.0,0.0,0.0,0.0,0.0,0.0,0.0,0.0,0.0,0.0,2.9556,3.0586,3.1633,3.2797,3.3025,3.3102,3.3102,3.3102,3.2862,3.2336,0.0,0.0,0.0,0.0,0.0,0.0,0.0,0.0,0.0,0.0,0.0,0.0,0.0,0.0,0.0,0.0,0.0,0.0,0.0,0.0,0.0,0.0,0.0,0.0,0.0,0.0,0.0,0.0,0.0,0.0,0.0,0.0,0.0,0.0,0.0,0.0,0.0,0.0,0.0,0.0,0.0,0.0,0.0,0.0,0.0,0.0,0.0,0.0,0.0,0.0,0.0,0.0,0.0,0.0,0.0,0.0,0.0,0.0,0.0,0.0,2.3456,2.2982,0.0,0.0,0.0,0.0,0.0,0.0,0.0,0.0,0.0,0.0,0.0,0.0,0.0,0.0,0.0,0.0,0.0,0.0,0.0,0.0,0.0,0.0,0.0,0.0,0.0,0.0,0.0,0.0,0.0,0.0,0.0,0.0,0.0,0.0,0.0,0.0,0.0,0.0,0.0,0.0,2.9061,3.0395,3.1311,3.1589,3.2491,3.3102,3.3102,3.3102,3.2657,3.1602,3.1393,0.0,0.0,0.0,0.0,0.0,0.0,0.0,0.0,0.0,0.0,0.0,0.0,0.0,0.0,0.0,0.0,0.0,0.0,0.0,0.0,0.0,0.0,0.0,0.0,0.0,0.0,0.0,0.0,0.0,0.0,0.0,0.0,0.0,0.0,0.0,0.0,0.0,0.0,0.0,0.0,0.0,0.0,0.0,0.0,0.0,0.0,0.0,0.0,0.0,0.0,0.0,0.0,0.0,0.0,0.0,0.0,0.0,0.0,0.0,2.3871,2.3621,0.0,0.0,0.0,0.0,0.0,0.0,0.0,0.0,0.0,0.0,0.0,0.0,0.0,0.0,0.0,0.0,0.0,0.0,0.0,0.0,0.0,0.0,0.0,0.0,0.0,0.0,0.0,0.0,0.0,0.0,0.0,0.0,0.0,0.0,0.0,0.0,0.0,0.0,0.0,0.0,2.8308,2.9085,2.9704,3.0271,3.1456,3.1943,3.1368,3.1855,3.1921,3.1293,3.0954,0.0,0.0,0.0,0.0,0.0,0.0,0.0,0.0,0.0,0.0,0.0,0.0,0.0,0.0,0.0,0.0,0.0,0.0,0.0,0.0,0.0,0.0,0.0,0.0,0.0,0.0,0.0,0.0,0.0,0.0,0.0,0.0,0.0,0.0,0.0,0.0,0.0,0.0,0.0,0.0,0.0,0.0,0.0,0.0,0.0,0.0,0.0,0.0,0.0,0.0,0.0,0.0,0.0,2.2248,2.2682,2.2786,2.3794,2.4405,2.4667,2.3947,2.4026,2.4636,2.4178,0.0,0.0,0.0,0.0,0.0,0.0,0.0,0.0,0.0,0.0,0.0,0.0,0.0,0.0,0.0,0.0,0.0,0.0,0.0,0.0,0.0,0.0,2.448,2.4932,2.5211,2.5318,2.5088,0.0,0.0,0.0,0.0,0.0,0.0,0.0,0.0,0.0,0.0,0.0,2.7416,2.7626,2.7979,2.897,3.0181,3.0474,2.9476,3.0316,3.0877,3.0877,3.0373,2.9771,0.0,0.0,0.0,0.0,0.0,0.0,0.0,0.0,0.0,0.0,0.0,0.0,0.0,0.0,0.0,0.0,0.0,0.0,0.0,0.0,0.0,0.0,0.0,0.0,0.0,0.0,0.0,0.0,0.0,0.0,0.0,0.0,1.6887,1.7066,0.0,0.0,0.0,0.0,0.0,0.0,0.0,0.0,0.0,0.0,0.0,0.0,0.0,2.0111,1.9439,1.983,1.9696,1.9084,2.1342,2.2628,2.2975,2.3126,2.4068,2.5479,2.4224,0.0,2.4562,2.4937,0.0,0.0,0.0,0.0,0.0,0.0,0.0,0.0,0.0,0.0,0.0,0.0,0.0,0.0,0.0,0.0,0.0,0.0,0.0,0.0,0.0,0.0,2.5513,2.5586,2.5611,2.5635,2.5586,2.5235,2.4883,2.4809,2.4809,2.476,0.0,0.0,0.0,0.0,0.0,0.0,2.6534,2.722,2.766,2.7814,2.8935,2.9567,2.9407,2.9544,2.9636,2.9636,2.9544,2.9001,2.788,2.7821,0.0,0.0,0.0,0.0,0.0,0.0,0.0,0.0,0.0,0.0,0.0,0.0,0.0,0.0,0.0,0.0,0.0,0.0,0.0,0.0,0.0,0.0,0.0,0.0,0.0,0.0,0.0,0.0,0.0,1.5747,1.5594,1.5689,1.5974,1.6086,0.0,0.0,0.0,0.0,0.0,0.0,0.0,0.0,0.0,1.7779,1.8895,1.9295,1.889,1.9715,1.9953,1.9634,2.0972,2.2087,2.3,2.3273,2.4235,2.5659,2.5069,2.4971,2.5162,2.4932,2.4637,2.4307,0.0,0.0,0.0,0.0,2.401,2.4059,2.4504,2.4686,2.4686,2.4686,0.0,0.0,0.0,0.0,0.0,0.0,0.0,2.3777,2.4356,2.476,2.5137,2.5586,2.5693,2.5693,2.5693,2.5513,2.526,2.4956,2.4784,2.4529,2.4134,2.443,0.0,0.0,0.0,2.5455,2.6376,2.651,2.6524,2.6524,2.7649,2.8109,2.7389,2.7968,2.8389,2.8389,2.8389,2.8152,2.7624,2.7845,2.7471,0.0,0.0,0.0,0.0,0.0,0.0,0.0,0.0,0.0,0.0,0.0,0.0,0.0,0.0,0.0,0.0,0.0,0.0,0.0,0.0,0.0,0.0,0.0,0.0,0.0,0.0,0.0,0.0,1.4825,1.4743,1.4781,1.5412,1.5726,0.0,0.0,0.0,0.0,0.0,0.0,1.6513,1.673,1.687,1.6864,1.8049,1.8671,1.8634,1.9321,1.9673,1.9705,2.0329,2.1172,2.2129,2.2496,2.3384,2.4682,2.4682,2.4864,2.5177,2.4907,2.4809,2.476,2.4158,2.3902,2.3902,2.3902,2.3902,2.401,2.4612,2.4809,2.4809,2.4809,2.4661,2.4381,2.3786,0.0,0.0,0.0,0.0,2.3777,2.4612,2.4809,2.4956,2.5562,2.5693,2.5693,2.5693,2.5586,2.5416,2.5162,2.4932,2.4661,2.4183,2.4612,0.0,2.5255,2.5299,2.5528,2.6217,2.5951,2.5693,2.5693,2.6548,2.674,2.5781,2.6572,2.7102,2.7102,2.7102,2.7102,2.7102,2.7447,2.7173,2.6207,0.0,0.0,0.0,0.0,0.0,0.0,0.0,0.0,0.0,0.0,0.0,0.0,0.0,0.0,0.0,0.0,0.0,0.0,0.0,0.0,0.0,0.0,0.0,0.0,0.0,0.0,0.0,0.0,0.0,1.5041,1.5556,0.0,0.0,0.0,0.0,1.6029,1.6217,1.6324,1.6324,1.764,1.8375,1.8385,1.8777,1.899,1.8975,1.8161,1.7738,1.7771,1.9062,1.9708,1.9778,1.9801,2.0564,2.1904,2.1904,2.2617,2.389,2.5128,2.5635,2.5635,2.5586,2.5586,2.5586,2.5586,2.5586,2.5586,2.5635,2.5635,2.5635,2.5635,2.5113,2.448,2.4455,2.3911,0.0,0.0,2.443,2.4612,2.543,2.5635,2.5645,2.5684,2.5693,2.5693,2.5693,2.5308,2.5088,2.5562,2.5645,2.5562,2.526,0.0,2.5284,2.5308,2.5308,2.5416,2.5708,2.5718,2.5693,2.5693,2.5757,2.5781,2.5718,2.5757,2.5805,2.5805,2.5805,2.5805,2.5805,2.583,2.5684,2.5357,2.5113,0.0,0.0,0.0,0.0,0.0,0.0,0.0,0.0,0.0,0.0,0.0,0.0,0.0,0.0,0.0,0.0,0.0,0.0,0.0,0.0,0.0,0.0,0.0,0.0,0.0,0.0,0.0,0.0,1.565,1.5963,0.0,1.5878,1.6067,1.6117,1.5935,1.6514,1.6867,1.6867,1.7546,1.7925,1.7925,1.8036,1.8092,1.8092,1.7758,1.7682,1.7856,1.835,1.9154,2.0175,2.0175,2.146,2.3686,2.3686,2.45,2.5869,2.6342,2.6215,2.5693,2.5693,2.5693,2.5693,2.5693,2.5693,2.5693,2.5693,2.5693,2.5693,2.5693,2.5513,2.526,2.526,2.5054,2.4907,2.5186,2.526,2.54,2.601,2.6162,2.623,2.6469,2.6537,2.6537,2.6537,2.6377,2.6301,2.6502,2.5807,2.5162,2.5064,2.5342,2.544,2.5079,2.5333,2.5586,2.5693,2.5693,2.5693,2.5693,2.5693,2.5693,2.5693,2.5693,2.5693,2.5693,2.5693,2.5693,2.5693,2.5693,2.5659,2.5562,2.5465,2.4932,0.0,0.0,0.0,0.0,0.0,0.0,0.0,0.0,0.0,0.0,0.0,0.0,0.0,0.0,0.0,0.0,0.0,0.0,0.0,0.0,0.0,0.0,0.0,0.0,0.0,1.5461,1.5856,1.5992,1.6361,1.652,1.6305,1.6548,1.665,1.6497,1.71,1.7474,1.7474,1.7755,1.7889,1.7889,1.7889,1.7889,1.7889,1.7889,1.7989,1.8169,1.8169,1.8741,1.9846,1.9846,2.0885,2.2695,2.3139,2.4175,2.5602,2.605,2.6205,2.6147,2.6147,2.6147,2.6147,2.6147,2.6147,2.6147,2.6147,2.6147,2.6147,2.6147,2.6147,2.6147,2.6147,2.6147,2.6147,2.6147,2.6147,2.6206,2.6523,2.6602,2.667,2.6943,2.6986,2.6986,2.6986,2.6986,2.6986,2.6986,2.6241,2.5607,2.5607,2.589,2.5964,2.5398,2.5781,2.6063,2.5855,2.6014,2.6089,2.5952,2.5932,2.5874,2.5703,2.5664,2.5659,2.5693,2.5673,2.5659,2.5693,2.544,2.5308,2.5308,2.5308,2.4858,2.396,0.0,0.0,0.0,0.0,0.0,0.0,0.0,0.0,0.0,0.0,0.0,0.0,0.0,0.0,0.0,0.0,0.0,0.0,0.0,0.0,0.0,0.0,0.0,1.4899,1.527,1.5738,1.6013,1.6756,1.734,1.7595,1.7628,1.7635,1.7635,1.7862,1.8009,1.8009,1.8309,1.849,1.849,1.849,1.849,1.849,1.849,1.8497,1.8504,1.8504,1.851,1.8517,1.8517,1.8545,1.8677,2.0032,2.1441,2.2915,2.4316,2.5759,2.7051,2.6996,2.6986,2.6986,2.6986,2.6986,2.6986,2.6986,2.6986,2.6986,2.6986,2.6986,2.6986,2.6986,2.6986,2.6986,2.6986,2.6986,2.6996,2.7006,2.7006,2.7041,2.7051,2.7025,2.7025,2.7025,2.7025,2.7025,2.7025,2.7025,2.7015,2.6996,2.6986,2.6798,2.623,2.6634,0.0,2.6205,2.6634,2.6865,2.6455,2.6406,2.6215,2.5771,2.5578,2.5551,2.5708,2.5593,2.5548,2.5679,2.4956,2.4529,2.4529,2.4504,2.4504,2.4504,0.0,0.0,0.0,0.0,0.0,0.0,0.0,0.0,0.0,0.0,0.0,0.0,0.0,0.0,0.0,0.0,0.0,0.0,0.0,0.0,0.0,1.6433,1.6788,1.6298,1.6522,1.6852,1.7134,1.7543,1.7816,1.7882,1.8116,1.8237,1.8237,1.8317,1.837,1.837,1.8444,1.849,1.849,1.849,1.849,1.849,1.849,1.8597,1.8776,1.8776,1.8918,1.9154,1.9154,1.9733,2.0825,2.2259,2.3772,2.528,2.675,2.7576,2.7881,2.7256,2.6986,2.6986,2.6986,2.6986,2.6986,2.6986,2.6986,2.6986,2.6986,2.6986,2.6986,2.6986,2.6986,2.6986,2.6986,2.6986,2.709,2.7428,2.7516,2.7585,2.7871,2.7939,2.7939,2.7939,2.7939,2.7939,2.7939,2.7939,2.7744,2.7119,2.6986,2.6935,2.6772,2.6884,2.6935,2.6772,2.691,2.6886,2.6592,2.6334,2.6235,2.6332,2.5837,2.57,2.6196,2.5843,2.5654,2.5693,2.5489,2.5357,2.5357,2.4809,2.4504,0.0,0.0,0.0,0.0,0.0,0.0,0.0,0.0,0.0,0.0,0.0,0.0,0.0,0.0,0.0,0.0,0.0,0.0,0.0,0.0,0.0,0.0,1.7055,1.749,1.7325,1.745,1.7589,1.7756,1.8036,1.8217,1.8203,1.839,1.849,1.849,1.8604,1.8671,1.8671,1.8791,1.8886,1.8886,1.8886,1.8886,1.8886,1.8886,1.8973,1.9112,1.9112,1.9199,1.9395,1.9395,2.0199,2.1643,2.2512,2.4092,2.6182,2.7024,2.7726,2.8242,0.0,0.0,0.0,0.0,2.7549,2.7549,2.7549,2.7549,2.7549,2.7549,2.7549,2.7549,2.7549,2.7549,2.7549,2.7549,2.7549,2.7607,2.7888,2.7956,2.8015,2.8232,2.8291,2.8291,2.8291,2.8291,2.8291,2.8291,2.8291,0.0,2.7637,2.7549,2.7471,2.721,2.7392,2.7445,2.721,2.7392,2.7428,2.7098,2.6878,2.6785,2.6766,2.6321,0.0,0.0,0.0,2.5674,2.522,2.5211,0.0,0.0,0.0,2.3834,2.4165,2.3244,0.0,0.0,2.1473,2.0853,0.0,0.0,0.0,0.0,0.0,0.0,0.0,0.0,0.0,0.0,0.0,0.0,0.0,0.0,0.0,0.0,1.7715,1.8069,1.8069,1.8069,1.8082,1.8049,1.8364,1.8544,1.8544,1.8571,1.8591,1.8591,1.8824,1.895,1.895,1.9254,0.0,0.0,0.0,1.9395,1.9395,1.9395,1.9482,1.9649,1.9482,1.9482,1.9649,1.9482,2.0199,2.1614,2.1777,2.3479,2.6127,2.6264,2.7114,2.8291,2.8291,2.8291,2.8291,2.8291,2.8291,2.8291,2.8291,0.0,0.0,2.8291,2.8291,2.8291,2.8291,2.8291,2.8291,2.8291,2.8291,2.8291,2.8291,2.8291,2.8291,2.8291,2.8291,2.8291,2.8291,2.8291,2.8291,2.8291,2.8291,2.8291,2.8291,2.8291,2.813,2.7593,2.797,2.8104,2.7566,2.797,2.8154,2.7773,2.7682,0.0,2.7136,2.6924,2.6874,2.7068,2.6525,2.5771,2.483,2.4768,2.4768,2.4768,2.3611,2.3267,2.3818,2.286,2.1617,2.0146,2.0393,1.99,0.0,0.0,0.0,0.0,0.0,0.0,0.0,0.0,0.0,0.0,0.0,0.0,0.0,0.0,0.0,1.7464,1.8019,1.8404,1.8404,1.8583,1.8643,1.8437,1.8664,1.881,1.881,1.9058,1.9227,1.9227,1.9281,1.9308,1.9308,1.9368,1.9395,1.9395,1.9395,1.9395,1.9395,1.9395,2.0011,2.1173,1.9982,0.0,2.1137,1.9953,2.0199,2.1671,2.287,2.4405,2.6182,2.7394,2.804,2.8291,2.8291,2.8291,2.8291,2.8291,2.8291,2.8291,2.8291,2.8291,2.8291,2.8291,2.8291,2.8291,2.8291,2.8291,0.0,2.8291,2.8291,2.8291,2.8291,2.8291,2.8291,2.8291,2.8291,2.8291,2.8291,2.8291,2.8291,2.8291,2.8291,2.8291,2.8291,2.8291,2.8264,2.813,2.8237,2.8264,2.813,2.8237,2.8182,2.7898,2.763,2.7521,2.7692,2.7143,2.7024,2.7523,2.7104,2.673,2.654,2.6505,2.6505,2.6505,2.6266,2.5626,2.4587,2.4374,2.2959,2.0428,2.0484,1.9803,0.0,0.0,0.0,0.0,0.0,0.0,0.0,0.0,0.0,0.0,0.0,1.6219,1.6657,0.0,1.7531,1.7989,1.8427,1.8704,1.8704,1.8958,1.9038,1.8744,1.8965,1.9145,1.9145,1.9308,1.9461,1.9602,1.9615,1.9646,1.9793,1.98,1.98,1.98,1.98,1.98,1.98,1.98,2.0171,2.0903,2.0747,2.1097,2.1796,2.1668,2.2529,2.4179,2.4917,2.6238,2.7917,2.8642,2.8963,2.8963,2.8963,2.8672,2.8291,2.8291,2.8291,2.8291,2.8291,2.8291,2.8291,2.8291,2.8291,2.8291,2.8291,2.8291,2.8291,2.8291,2.8291,2.8291,2.8291,2.8291,2.8291,2.8291,2.8291,2.8291,2.8291,2.8291,2.8291,2.8291,2.8291,2.8291,2.8291,2.8291,2.8291,2.8291,2.8291,2.8291,2.8291,2.8291,2.8237,2.8094,2.7943,2.7916,2.8104,2.775,2.76,2.7702,2.7487,2.7236,2.6996,2.6986,2.6986,2.6986,2.5567,2.4481,2.3755,2.2473,2.1108,1.9702,1.9857,1.95,0.0,0.0,0.0,0.0,0.0,0.0,0.0,1.6371,1.6196,1.6359,1.6565,1.6883,1.7348,1.7661,1.8021,1.8487,1.8818,1.9032,1.9056,1.9299,1.9415,1.917,1.9339,1.9502,1.9562,1.9568,1.9662,1.9867,1.9887,1.9957,2.019,2.05,2.0674,2.0674,2.0992,2.1136,2.1136,2.1136,2.1286,2.1579,2.2266,2.2765,2.3039,2.3735,2.5047,2.6832,2.7112,2.8164,2.9598,2.9598,2.9598,2.9598,2.9598,2.9178,2.8545,2.8545,2.8545,2.8545,2.8545,2.8545,2.8545,2.8545,2.8545,2.8545,2.8545,2.8545,2.8545,2.8545,2.8545,2.8545,2.8545,2.8545,2.8545,2.8545,2.8545,2.8545,2.8545,2.8545,2.8545,2.8545,2.8545,2.8516,2.8428,2.8418,2.8389,2.8301,2.8291,2.8291,2.8291,2.8291,2.8291,2.8291,2.8291,2.8291,2.8291,2.8291,2.8144,2.7839,2.7809,2.7663,2.7275,2.724,2.724,2.724,2.4967,2.3651,2.3357,2.1292,1.9998,1.9424,1.9699,1.952,1.5263,1.5444,1.5956,1.6514,1.6454,1.6535,0.0,1.7416,1.7263,1.8055,1.8224,1.8271,1.8326,1.8565,1.8786,1.8843,1.9125,1.9441,1.9666,1.9733,1.9833,2.003,1.9887,1.9853,2.0077,2.0104,2.0117,2.015,2.0157,2.017,2.0204,2.1624,2.2416,2.2416,2.3799,2.4553,2.4553,2.4553,2.5223,2.6482,2.5326,2.5454,2.6679,2.5498,2.5786,2.7324,2.868,2.941,2.9598,2.9598,2.9598,2.9598,2.9598,2.954,2.9452,2.9452,2.9452,2.9452,2.9452,2.9452,2.9452,2.9452,2.9452,2.9452,2.9452,2.9452,2.9452,2.9452,2.9452,2.9452,2.9452,2.9452,2.9452,2.9452,2.9452,2.9452,2.9452,2.9452,2.9452,2.9452,2.9452,2.9334,2.8889,2.882,2.8721,2.835,2.8291,2.8291,2.8291,2.8291,2.8291,2.8291,2.8291,2.8291,2.8291,2.8291,2.8271,2.8249,2.8223,2.8203,2.8154,2.8144,2.8144,2.8144,2.7842,2.7027,2.572,2.5428,2.3922,2.1306,2.1343,2.063,1.6195,1.6179,1.6497,1.708,1.727,1.7406,1.7881,1.7986,1.8055,1.8408,1.8624,1.8744,1.8744,1.8985,1.9239,1.9406,1.9539,1.972,2.0013,2.0024,2.016,2.0454,2.0381,2.0287,2.0204,2.0204,2.027,2.0474,2.0494,2.0561,2.0735,2.1379,2.2228,2.3193,2.3877,2.4669,2.5612,2.562,2.5918,2.6541,2.662,2.6999,2.7579,2.7687,2.8171,2.9032,2.9958,3.037,3.037,3.037,3.037,3.037,3.037,3.037,3.0302,2.9784,2.9598,2.9598,2.9598,2.9598,2.9598,2.9598,2.9598,2.9598,2.9598,2.9598,2.9598,2.9598,2.9598,2.9598,2.9598,2.9598,2.9598,2.9598,2.9598,2.9598,2.9598,2.9598,2.9598,2.9598,2.9598,2.954,2.9326,2.9297,2.9238,2.909,2.8613,2.8291,2.8291,2.8291,2.8291,2.8291,2.8291,2.8291,2.8291,2.8291,2.8291,2.8291,2.8291,2.8291,2.8291,2.8291,2.7897,2.7051,2.6136,2.4958,2.3479,2.2625,2.1544,2.0314,2.0314,1.9982,1.6834,1.683,1.7037,1.749,1.7855,1.8163,1.8243,1.8429,1.8631,1.8718,1.8898,1.9072,1.9123,1.9345,1.9609,1.9873,1.992,2.002,2.0314,2.0354,2.0468,2.0762,2.1224,2.1406,2.1155,2.0713,2.0746,2.1451,2.1496,2.1773,2.2414,2.2882,2.3683,2.4878,2.5369,2.6183,2.7323,2.7353,2.7353,2.7353,2.8235,2.8664,2.8684,2.9575,3.0136,3.04,3.0742,3.0889,3.0889,3.0889,3.0889,3.0889,3.0889,3.0889,3.081,3.0204,2.996,2.996,2.996,2.996,2.996,2.996,2.996,2.996,2.996,2.996,2.996,2.996,2.996,2.996,2.996,2.996,2.996,2.996,2.996,2.996,2.996,2.996,2.996,2.996,2.996,2.9921,2.9794,2.9774,2.9735,2.9618,2.907,2.8643,2.8643,2.8545,2.8467,2.8467,2.8359,2.8291,2.8291,2.8291,2.8291,2.8291,2.8291,2.8291,2.8291,2.8291,2.7816,2.6744,2.5608,2.4516,2.3459,2.2379,2.1437,2.063,2.0715,2.0309,1.6702,1.7143,1.759,1.759,1.8058,1.8551,1.8803,1.8876,1.8991,1.9314,1.9381,1.9468,1.972,1.978,1.9887,2.0144,2.019,2.029,2.0652,2.0692,2.0799,2.1062,2.2514,2.3497,2.3513,2.2038,2.1762,2.3404,2.3497,2.4193,2.5763,2.7323,2.82,2.8239,2.9844,3.0704,3.0743,3.0743,3.0743,3.0743,3.0782,3.0811,3.0811,3.0859,3.0859,3.0869,3.0889,3.0889,3.0889,3.0889,3.0889,3.0889,3.0889,3.0889,3.0889,3.0859,3.085,3.085,3.085,3.085,3.085,3.085,3.085,3.085,3.085,3.085,3.085,3.085,3.085,3.085,3.085,3.085,3.085,3.085,3.085,3.085,3.085,3.085,3.085,3.085,3.085,3.0703,3.0254,3.0176,3.0039,2.9657,2.9579,2.9559,2.9559,2.916,2.8869,2.8869,2.8535,2.8291,2.8291,2.8291,2.8291,2.8291,2.8291,2.8291,2.8291,2.8291,2.8291,2.8237,2.8184,2.8147,2.8094,2.804,2.6527,2.3663,2.3987,2.2586,1.7189,1.7461,1.7703,1.8098,1.8474,1.8776,1.8876,1.9078,1.9274,1.9374,1.935,1.9361,1.946,1.9601,1.9854,2.0143,2.0405,2.0628,2.0922,2.0962,2.1397,2.2608,2.3263,2.4023,2.5077,2.4678,2.4586,2.5138,2.52,2.5444,2.5976,2.6522,2.7293,2.8358,2.8941,2.9776,3.0889,3.0889,3.0889,3.0889,3.0889,3.0889,3.0889,3.0889,3.0889,3.0889,3.0889,3.0889,3.0889,3.0889,3.0889,3.0889,3.0889,3.0889,3.0889,3.0889,3.0889,3.0889,3.0889,3.0889,3.0889,3.0889,3.0889,3.0889,3.0889,3.0889,3.0889,3.0889,3.0889,3.0889,3.0889,3.0889,3.0889,3.0889,3.0889,3.0889,3.0889,3.0889,3.0889,3.0889,3.0889,3.084,3.0684,3.0654,3.0605,3.0469,2.9979,2.9598,2.9598,2.9471,2.9346,2.9346,2.9256,2.9168,2.9168,2.9168,2.9168,2.9168,2.9168,2.9168,2.9168,2.9168,2.868,2.7651,2.7651,2.7157,2.6173,2.6173,2.5654,2.4655,2.4779,2.4287,1.776,1.7958,1.8149,1.8542,1.8865,1.9085,1.9085,1.9312,1.9548,1.9548,1.9493,1.9483,1.9587,1.9757,1.9971,2.0289,2.0616,2.0895,2.1082,2.1109,2.1727,2.3387,2.4116,2.5164,2.6929,2.7613,2.7651,2.6901,2.6862,2.7104,2.7721,2.7751,2.8209,2.9255,2.9285,2.9805,3.0889,3.0889,3.0889,3.0889,3.0889,3.0889,3.0889,3.0889,3.0889,3.0889,3.0889,3.0889,3.0889,3.0889,3.0889,3.0889,3.0889,3.0889,3.0889,3.0889,3.0889,3.0889,3.0889,3.0889,3.0889,3.0889,3.0889,3.0889,3.0889,3.0889,3.0889,3.0889,3.0889,3.0889,3.0889,3.0889,3.0889,3.0889,3.0889,3.0889,3.0889,3.0889,3.0889,3.0889,3.0889,3.0889,3.0889,3.0889,3.0889,3.0889,3.041,3.0067,3.0067,2.9921,2.9823,2.9823,2.9686,2.9598,2.9598,2.9598,2.9598,2.9598,2.9598,2.9598,2.9598,2.9598,2.9131,2.8145,2.8116,2.7672,2.6703,2.6703,2.6416,2.5898,2.6006,2.5766,1.8344,1.8656,1.8896,1.8916,1.9158,1.9401,1.9415,1.9629,1.9806,1.982,1.9783,1.9828,2.0133,2.0229,2.0327,2.0563,2.0894,2.1141,2.1235,2.1249,2.1905,2.3658,2.5248,2.6998,2.9073,3.0646,3.0724,2.8755,2.86,2.9272,3.0859,3.0928,3.0918,3.0889,3.0889,3.0889,3.0889,3.0889,3.0889,3.0889,3.0889,3.0889,3.0889,3.0889,3.0889,3.0889,3.0889,3.0889,3.0889,3.0889,3.0889,3.0889,3.0889,3.0889,3.0889,3.0889,3.0889,3.0889,3.0889,3.0889,3.0889,3.0889,3.0889,3.0889,3.0889,3.0889,3.0889,3.0889,3.0889,3.0889,3.0889,3.0889,3.0889,3.0889,3.0889,3.0889,3.0889,3.0889,3.0889,3.0889,3.0889,3.0889,3.0889,3.0889,3.0889,3.0889,3.0889,3.0889,3.0889,3.0508,3.0234,3.0234,2.9873,2.9667,2.9667,2.9667,2.9667,2.9667,2.9667,2.9667,2.9667,2.9667,2.9667,2.9667,2.9667,2.9667,2.9667,2.9667,2.8907,2.7489,2.7812,2.7176,1.8693,1.8833,1.895,1.9199,1.9341,1.9455,1.9639,1.9746,1.986,2.005,2.0263,2.0403,2.0234,2.0574,2.0801,2.0627,2.0894,2.1544,2.2772,2.3218,2.4483,2.735,2.8307,2.946,3.1226,3.178,3.1792,3.1274,3.1234,3.126,3.1347,3.1357,3.1211,3.0898,3.0889,3.0889,3.0889,3.0889,3.0889,3.0889,3.0889,3.0889,3.0889,3.0889,3.0889,3.0889,3.0889,3.0889,3.0889,3.0889,3.0889,3.0889,3.0889,3.0889,3.0889,3.0889,3.0889,3.0889,3.0889,3.0889,3.0889,3.0889,3.0889,3.0889,3.0889,3.0889,3.0889,3.0889,3.0889,3.0889,3.0889,3.0889,3.0889,3.0889,3.0889,3.0889,3.0889,3.0889,3.0889,3.0889,3.0889,3.0889,3.0889,3.0889,3.0889,3.0889,3.0889,3.0889,3.0889,3.0791,3.0713,3.0713,3.0625,3.0585,3.0585,3.0585,3.0585,3.0585,3.0585,3.0585,3.0585,3.0585,3.0585,3.0585,3.0585,3.0585,3.0585,3.0585,3.0373,2.9987,3.0064,2.9898,1.9021,1.9118,1.9158,1.9354,1.9495,1.9599,1.9766,1.988,2.0143,2.0723,2.0731,2.0644,2.0795,2.0944,2.1186,2.1601,2.21,2.303,2.4688,2.5274,2.6495,2.905,2.9556,3.0433,3.2289,3.2472,3.255,3.2705,3.2413,3.2091,3.1816,3.1807,3.1689,3.1494,3.1485,3.1485,3.1485,3.1485,3.1485,3.1485,3.1485,3.1485,3.1485,3.1485,3.1485,3.1485,3.1485,3.1485,3.1485,3.1485,3.1485,3.1485,3.1485,3.1485,3.1485,3.1485,3.1485,3.1485,3.1485,3.1485,3.1416,3.1016,3.0889,3.0889,3.0889,3.0889,3.0889,3.0889,3.0889,3.0889,3.0889,3.0889,3.0889,3.0889,3.0889,3.0889,3.0889,3.0889,3.0889,3.0889,3.0889,3.0889,3.0889,3.0889,3.0889,3.0889,3.0889,3.0889,3.0889,3.0889,3.0889,3.0889,3.0889,3.0889,3.0889,3.0889,3.0889,3.0889,3.0889,3.0889,3.0889,3.0889,3.0889,3.0889,3.0889,3.0889,3.0889,3.0889,3.0889,3.0889,3.0889,3.0889,1.9328,1.9395,1.9408,1.9441,1.9642,1.9849,2.0012,2.028,2.0748,2.1737,2.1477,2.1258,2.1939,2.181,2.2013,2.3267,2.4063,2.5086,2.6796,2.742,2.8295,2.9928,3.0169,3.0882,3.2708,3.2881,3.3027,3.3357,3.2744,3.2345,3.2286,3.2286,3.2257,3.2198,3.2198,3.2198,3.2198,3.2198,3.2198,3.2198,3.2198,3.2198,3.2198,3.2198,3.2198,3.2198,3.2198,3.2198,3.2198,3.2198,3.2198,3.2198,3.2198,3.2198,3.2198,3.2198,3.2198,3.2198,3.2198,3.2198,3.2081,3.1328,3.1055,3.1055,3.1055,3.1055,3.1055,3.1055,3.1055,3.1055,3.1055,3.1055,3.1055,3.1055,3.1055,3.1055,3.1055,3.1055,3.1055,3.1055,3.1055,3.1055,3.1055,3.1055,3.1055,3.1055,3.1055,3.1055,3.1055,3.0957,3.0889,3.0889,3.0889,3.0889,3.0889,3.0889,3.0889,3.0889,3.0889,3.0889,3.0889,3.0889,3.0889,3.0889,3.0889,3.0889,3.0889,3.0889,3.0889,3.0889,3.0889,3.0889,1.9381,1.9395,1.9455,1.9666,1.9766,2.0076,2.114,2.1627,2.2111,2.306,2.3639,2.4089,2.4448,2.4661,2.5062,2.5834,2.6093,2.6894,2.888,2.9583,3.045,3.2068,3.2563,3.2899,3.3269,3.331,3.3308,3.3386,3.3281,3.3057,3.2705,3.2685,3.2529,3.2208,3.2198,3.2198,3.2198,3.2198,3.2198,3.2198,3.2198,3.2198,3.2198,3.2198,3.2198,3.2198,3.2198,3.2198,3.2198,3.2198,3.2198,3.2198,3.2198,3.2198,3.2198,3.2198,3.2198,3.2198,3.2198,3.2198,3.2179,3.2022,3.1973,3.1973,3.1973,3.1973,3.1973,3.1973,3.1973,3.1973,3.1973,3.1973,3.1973,3.1973,3.1973,3.1973,3.1973,3.1973,3.1973,3.1973,3.1973,3.1973,3.1973,3.1973,3.1973,3.1973,3.1973,3.1973,3.1973,3.1358,3.0889,3.0889,3.0889,3.0889,3.0889,3.0889,3.0889,3.0889,3.0889,3.0889,3.0889,3.0889,3.0889,3.0889,3.0889,3.0889,3.0889,3.0889,3.0889,3.0889,3.0889,3.0889,2.0537,2.1276,2.2094,2.2223,2.2517,2.2939,2.3413,2.3635,2.3933,2.4795,2.4936,2.505,2.558,2.5666,2.5984,2.701,2.763,2.8675,3.0517,3.1461,3.227,3.3021,3.3269,3.3386,3.3386,3.3386,3.3386,3.3386,3.3386,3.3308,3.3135,3.3115,3.3027,3.2832,3.2822,3.2822,3.2822,3.2822,3.2822,3.2822,3.2822,3.2822,3.2822,3.2822,3.2822,3.2822,3.2822,3.2822,3.2822,3.2822,3.2822,3.2822,3.2822,3.2822,3.2822,3.2822,3.2822,3.2822,3.2822,3.2822,3.2822,3.2822,3.2529,3.2198,3.2198,3.2198,3.2198,3.2198,3.2198,3.2198,3.2198,3.2198,3.2198,3.2198,3.2198,3.2198,3.2198,3.2198,3.2198,3.2198,3.2198,3.2198,3.2198,3.2198,3.2198,3.2198,3.2198,3.2198,3.2198,3.1837,3.1582,3.1582,3.1582,3.1582,3.1582,3.1582,3.1582,3.1582,3.1582,3.1582,3.1582,3.1582,3.1582,3.1582,3.1582,3.1582,3.1582,3.1582,3.1582,3.1582,3.1582,3.1582,2.2167,2.333,2.455,2.4708,2.5173,2.5572,2.5523,2.5522,2.5723,2.6368,2.6119,2.6007,2.6697,2.6632,2.6882,2.8147,2.9043,3.0139,3.17,3.2656,3.3238,3.3386,3.3386,3.3386,3.3386,3.3386,3.3386,3.3386,3.3386,3.3386,3.3386,3.3386,3.3386,3.3386,3.3386,3.3386,3.3386,3.3386,3.3386,3.3386,3.3386,3.3386,3.3386,3.3386,3.3386,3.3386,3.3386,3.3386,3.3386,3.3386,3.3386,3.3386,3.3386,3.3386,3.3386,3.3386,3.3386,3.3386,3.3386,3.3386,3.3386,3.3386,3.2978,3.2472,3.2472,3.2472,3.2472,3.2472,3.2472,3.2472,3.2472,3.2472,3.2472,3.2472,3.2472,3.2472,3.2472,3.2472,3.2472,3.2472,3.2472,3.2472,3.2472,3.2472,3.2472,3.2472,3.2472,3.2472,3.2472,3.2472,3.2472,3.2472,3.2306,3.2198,3.2198,3.2198,3.2198,3.2198,3.2198,3.2198,3.2198,3.2198,3.2198,3.2198,3.2198,3.2198,3.2198,3.2198,3.2198,3.2198,3.2198,3.2198,2.3975,2.437,2.4675,2.5331,2.5547,2.5758,2.6333,2.6693,2.703,2.7472,2.7818,2.8188,2.8815,2.8909,2.9229,3.0266,3.0515,3.0996,3.2181,3.2435,3.2731,3.3323,3.3386,3.3386,3.3386,3.3386,3.3386,3.3386,3.3386,3.3386,3.3386,3.3386,3.3386,3.3386,3.3386,3.3386,3.3386,3.3386,3.3386,3.3386,3.3386,3.3386,3.3386,3.3386,3.3386,3.3386,3.3386,3.3386,3.3386,3.3386,3.3386,3.3386,3.3386,3.3386,3.3386,3.3386,3.3386,3.3386,3.3386,3.3386,3.3386,3.3386,3.3338,3.3279,3.3279,3.3279,3.3279,3.3279,3.3279,3.3279,3.3279,3.3279,3.3279,3.3279,3.3279,3.3279,3.3279,3.3279,3.3279,3.3279,3.3279,3.3279,3.3279,3.3279,3.3279,3.3279,3.3279,3.3279,3.3279,3.3279,3.3279,3.3279,3.2627,3.2198,3.2198,3.2198,3.2198,3.2198,3.2198,3.2198,3.2198,3.2198,3.2198,3.2198,3.2198,3.2198,3.2198,3.2198,3.2198,3.2198,3.2198,3.2198,2.5635,2.6851,2.8008,2.8301,2.8577,2.8783,2.8707,2.8799,2.8869,2.8689,2.8779,2.897,2.9208,2.9247,2.9488,3.0114,3.0565,3.113,3.1986,3.2491,3.2921,3.3362,3.3386,3.3386,3.3386,3.3386,3.3386,3.3386,3.3386,3.3386,3.3386,3.3386,3.3386,3.3386,3.3386,3.3386,3.3386,3.3386,3.3386,3.3386,3.3386,3.3386,3.3386,3.3386,3.3386,3.3386,3.3386,3.3386,3.3386,3.3386,3.3386,3.3386,3.3386,3.3386,3.3386,3.3386,3.3386,3.3386,3.3386,3.3386,3.3386,3.3386,3.3386,3.3386,3.3386,3.3386,3.3386,3.3386,3.3386,3.3386,3.3386,3.3386,3.3386,3.3386,3.3386,3.3386,3.3386,3.3386,3.3386,3.3386,3.3386,3.3386,3.3386,3.3386,3.3386,3.3386,3.3386,3.3386,3.3386,3.3386,3.3386,3.3386,3.3115,3.292,3.292,3.292,3.292,3.292,3.292,3.292,3.292,3.292,3.292,3.292,3.292,3.292,3.292,3.292,3.292,3.292,3.292,3.292,2.7488,2.8946,3.0234,3.0371,3.0597,3.0658,3.0205,3.005,2.9852,2.9399,2.9307,2.9307,2.9307,2.9402,2.9573,2.9855,3.0472,3.1096,3.1685,3.2295,3.2799,3.3113,3.3203,3.3295,3.3295,3.3338,3.3386,3.3386,3.3386,3.3386,3.3386,3.3386,3.3386,3.3386,3.3386,3.3386,3.3386,3.3386,3.3386,3.3386,3.3386,3.3386,3.3386,3.3386,3.3386,3.3386,3.3386,3.3386,3.3386,3.3386,3.3386,3.3386,3.3386,3.3386,3.3386,3.3386,3.3386,3.3386,3.3386,3.3386,3.3386,3.3386,3.3386,3.3386,3.3386,3.3386,3.3386,3.3386,3.3386,3.3386,3.3386,3.3386,3.3386,3.3386,3.3386,3.3386,3.3386,3.3386,3.3386,3.3386,3.3386,3.3386,3.3386,3.3386,3.3386,3.3386,3.3386,3.3386,3.3386,3.3386,3.3386,3.3386,3.3386,3.3386,3.3386,3.3386,3.3386,3.3386,3.3386,3.3386,3.3386,3.3386,3.3386,3.3386,3.3386,3.3386,3.3386,3.3386,3.3386,3.3386,3.3386,3.3386,2.9718,3.0185,3.0303,3.0771,3.0709,3.0421,3.0146,2.9874,2.9631,2.9361,2.9307,2.9307,2.9307,2.9633,2.9898,2.9898,3.0472,3.1028,3.1435,3.1751,3.2063,3.2448,3.2805,3.2986,3.2986,3.3257,3.3386,3.3386,3.3386,3.3386,3.3386,3.3386,3.3386,3.3386,3.3386,3.3386,3.3386,3.3386,3.3386,3.3386,3.3386,3.3386,3.3386,3.3386,3.3386,3.3386,3.3386,3.3386,3.3386,3.3386,3.3386,3.3386,3.3386,3.3386,3.3386,3.3386,3.3386,3.3386,3.3386,3.3386,3.3386,3.3386,3.3386,3.3386,3.3386,3.3386,3.3386,3.3386,3.3386,3.3386,3.3386,3.3386,3.3386,3.3386,3.3386,3.3386,3.3386,3.3386,3.3386,3.3386,3.3386,3.3386,3.3386,3.3386,3.3386,3.3386,3.3386,3.3386,3.3386,3.3386,3.3386,3.3386,3.3386,3.3386,3.3386,3.3386,3.3386,3.3386,3.3386,3.3386,3.3386,3.3386,3.3386,3.3386,3.3386,3.3386,3.3386,3.3386,3.3386,3.3386,3.3386,3.3386,2.9356,2.9899,3.0181,3.0321,3.029,3.0146,2.9883,2.9755,2.9631,2.9361,2.953,2.971,2.971,3.001,3.0402,3.0917,3.1177,3.1506,3.2092,3.2461,3.2684,3.2847,3.3115,3.3273,3.3273,3.3338,3.3386,3.3386,3.3386,3.3386,3.3386,3.3386,3.3386,3.3386,3.3386,3.3386,3.3386,3.3386,3.3386,3.3386,3.3386,3.3386,3.3386,3.3386,3.3386,3.3386,3.3386,3.3386,3.3386,3.3386,3.3386,3.3386,3.3386,3.3386,3.3386,3.3386,3.3386,3.3386,3.3386,3.3386,3.3386,3.3386,3.3386,3.3386,3.3386,3.3386,3.3386,3.3386,3.3386,3.3386,3.3386,3.3386,3.3386,3.3386,3.3386,3.3386,3.3386,3.3386,3.3386,3.3386,3.3386,3.3386,3.3386,3.3386,3.3386,3.3386,3.3386,3.3386,3.3386,3.3386,3.3386,3.3386,3.3386,3.3386,3.3386,3.3386,3.3386,3.3386,3.3386,3.3386,3.3386,3.3386,3.3386,3.3386,3.3386,3.3386,3.3386,3.3386,3.3386,3.3386,3.3386,3.3386,2.9469,2.9891,3.0083,3.0083,3.0124,3.0131,2.9949,2.9942,2.9929,2.9751,2.989,3.0104,3.0104,3.0369,3.0789,3.1242,3.162,3.1971,3.2275,3.2719,3.2995,3.2995,3.3155,3.3276,3.3406,3.3386,3.3386,3.3386,3.3386,3.3386,3.3386,3.3386,3.3386,3.3386,3.3386,3.3386,3.3386,3.3386,3.3386,3.3386,3.3386,3.3386,3.3386,3.3386,3.3386,3.3386,3.3386,3.3386,0.0,3.3386,3.3386,3.3386,3.3386,3.3386,3.3386,3.3386,3.3386,3.3386,3.3386,3.3386,3.3386,3.3386,3.3386,3.3386,3.3386,3.3386,3.3386,3.3386,3.3386,3.3386,3.3386,3.3386,3.3386,3.3386,3.3386,3.3386,3.3386,3.3386,3.3386,3.3386,3.3386,3.3386,3.3386,3.3386,3.3386,3.3386,3.3386,3.3386,3.3386,3.3386,3.3386,3.3386,3.3386,3.3386,3.3386,3.3386,3.3386,3.3386,3.3386,3.3386,3.3386,3.3386,3.3386,3.3386,3.3386,3.3386,3.3386,3.3386,3.3386,3.3386,3.3386,3.3386,0.0,3.0082,3.0041,3.0041,3.0156,3.0266,3.0266,3.0341,0.0,3.0395,3.0421,3.0438,3.0438,3.0754,3.1046,3.1089,3.1863,3.2405,3.2086,3.2602,3.3018,3.3022,3.3013,3.3119,3.3362,3.3386,3.3386,3.3386,3.3386,3.3386,3.3386,3.3386,3.3386,3.3386,3.3386,3.3386,3.3386,3.3386,3.3386,3.3386,3.3386,3.3386,3.3386,3.3386,3.3386,3.3386,3.3386,3.3386,3.3386,3.3386,3.3386,3.3386,3.3386,3.3386,3.3386,3.3386,3.3386,3.3386,3.3386,3.3386,3.3386,3.3386,3.3386,3.3386,3.3386,3.3386,3.3386,3.3386,3.3386,3.3386,3.3386,3.3386,3.3386,3.3386,3.3386,3.3386,3.3386,3.3386,3.3386,3.3386,3.3386,3.3386,3.3386,3.3386,3.3386,3.3386,3.3386,3.3386,3.3386,3.3386,3.3386,3.3386,3.3386,3.3386,3.3386,3.3386,3.3386,3.3386,3.3386,3.3386,3.3386,3.3386,3.3386,3.3386,3.3386,3.3386,3.3386,3.3386,3.3386,3.3386,3.3386,3.3386,3.0314,0.0,2.9496,2.9496,2.973,2.9994,0.0,3.0205,3.0395,3.0395,3.0634,3.0848,3.0848,3.1183,3.1512,3.172,3.2169,3.2472,3.2396,3.2757,3.3076,3.3295,3.332,3.3335,3.3396,3.3386,3.3386,3.3386,3.3386,3.3386,3.3386,3.3386,3.3386,3.3386,3.3386,3.3386,3.3386,3.3386,3.3386,3.3386,3.3386,3.3386,3.3386,3.3386,3.3386,3.3386,3.3386,3.3386,3.3386,3.3386,3.3386,3.3386,3.3386,3.3386,3.3386,3.3386,3.3386,3.3386,3.3386,3.3386,3.3386,3.3386,3.3386,3.3386,3.3386,3.3386,3.3386,3.3386,3.3386,3.3386,3.3386,3.3386,3.3386,3.3386,3.3386,3.3386,3.3386,3.3386,3.3386,3.3386,3.3386,3.3386,3.3386,3.3386,3.3386,3.3386,3.3386,3.3386,3.3386,3.3386,3.3386,3.3386,3.3386,3.3386,3.3386,3.3386,3.3386,3.3386,3.3386,3.3386,3.3386,3.3386,3.3386,3.3386,3.3386,3.3386,3.3386,3.3386,3.3386,3.3386,3.3386,3.3386,3.0434,2.997,2.9571,2.9752,2.9956,3.0223,3.0607,3.0926,3.1185,3.1185,3.1349,3.1469,3.1303,3.1556,3.1844,3.2009,3.2428,3.2767,3.2898,3.3112,3.3254,3.3372,3.3386,3.3386,3.3386,3.3386,3.3386,3.3386,3.3386,3.3386,3.3386,3.3386,3.3386,3.3386,3.3386,3.3386,3.3386,3.3386,3.3386,3.3386,3.3386,3.3386,3.3386,3.3386,3.3386,3.3386,3.3386,3.3386,3.3386,3.3386,3.3386,3.3386,3.3386,3.3386,3.3386,3.3386,3.3386,3.3386,3.3386,3.3386,3.3386,3.3386,3.3386,3.3386,3.3386,3.3386,3.3386,3.3386,3.3386,3.3386,3.3386,3.3386,3.3386,3.3386,3.3386,3.3386,3.3386,3.3386,3.3386,3.3386,3.3386,3.3386,3.3386,3.3386,3.3386,3.3386,3.3386,3.3386,3.3386,3.3386,3.3386,3.3386,3.3386,3.3386,3.3386,3.3386,3.3386,3.3386,3.3386,3.3386,3.3386,3.3386,3.3386,3.3386,3.3386,3.3386,3.3386,3.3386,3.3386,3.3386,3.3386,3.3386,3.0629,3.0287,3.0105,3.0409,3.0525,3.0771,3.1512,3.1913,3.2105,3.2105,3.2105,3.2026,3.1728,3.1913,3.2111,3.214,3.2612,3.307,3.335,3.3443,3.3466,3.3403,3.3386,3.3386,3.3386,3.3386,3.3386,3.3386,3.3386,3.3386,3.3386,3.3386,3.3386,3.3386,3.3386,3.3386,3.3386,3.3386,3.3386,3.3386,3.3386,3.3386,3.3386,3.3386,3.3386,3.3386,3.3386,3.3386,3.3386,3.3386,3.3386,3.3386,3.3386,3.3386,3.3386,3.3386,3.3386,3.3386,3.3386,3.3386,3.3386,3.3386,3.3386,3.3386,3.3386,3.3386,3.3386,3.3386,3.3386,3.3386,3.3386,3.3386,3.3386,3.3386,3.3386,3.3386,3.3386,3.3386,3.3386,3.3386,3.3386,3.3386,3.3386,3.3386,3.3386,3.3386,3.3386,3.3386,3.3386,3.3386,3.3386,3.3386,3.3386,3.3386,3.3386,3.3386,3.3386,3.3386,3.3386,3.3386,3.3386,3.3386,3.3386,3.3386,3.3386,3.3386,3.3386,3.3386,3.3386,3.3386,3.3386,3.3386,3.1249,3.1184,3.1114,3.0938,3.1105,3.1459,3.1916,3.2053,3.2105,3.2105,3.2105,3.2079,3.1955,3.2305,3.2548,3.2458,3.2752,3.307,3.335,3.3413,3.3401,3.3396,3.3386,3.3386,3.3386,3.3386,3.3386,3.3386,3.3386,3.3386,3.3386,3.3386,3.3386,3.3386,3.3386,3.3386,3.3386,3.3386,3.3386,3.3386,3.3386,3.3386,3.3386,3.3386,3.3386,3.3386,3.3386,3.3386,3.3386,3.3386,3.3386,3.3386,3.3386,3.3386,3.3386,3.3386,3.3386,3.3386,3.3386,3.3386,3.3386,3.3386,3.3386,3.3386,3.3386,3.3386,3.3386,3.3386,3.3386,3.3386,3.3386,3.3386,3.3386,3.3386,3.3386,3.3386,3.3386,3.3386,3.3386,3.3386,3.3386,3.3386,3.3386,3.3386,3.3386,3.3386,3.3386,3.3386,3.3386,3.3386,3.3386,3.3386,3.3386,3.3386,3.3386,3.3386,3.3386,3.3386,3.3386,3.3386,3.3386,3.3386,3.3386,3.3386,3.3386,3.3386,3.3386,3.3386,3.3386,3.3386,3.3386,3.3386,3.141,3.1543,3.173,3.1815,3.1766,3.1878,3.2502,3.2628,3.2647,3.2675,3.2685,3.2622,3.2357,3.2654,3.2949,3.2973,3.3165,3.3346,3.3389,3.3432,3.3459,3.3384,3.3386,3.3386,3.3386,3.3386,3.3386,3.3386,3.3386,3.3386,3.3386,3.3386,3.3386,3.3386,3.3386,3.3386,3.3386,3.3386,3.3386,3.3386,3.3386,3.3386,3.3386,3.3386,3.3386,3.3386,3.3386,3.3386,3.3386,3.3386,3.3386,3.3386,3.3386,3.3386,3.3386,3.3386,3.3386,3.3386,3.3386,3.3386,3.3386,3.3386,3.3386,3.3386,3.3386,3.3386,3.3386,3.3386,3.3386,3.3386,3.3386,3.3386,3.3386,3.3386,3.3386,3.3386,3.3386,3.3386,3.3386,3.3386,3.3386,3.3386,3.3386,3.3386,3.3386,3.3386,3.3386,3.3386,3.3386,3.3386,3.3386,3.3386,3.3386,3.3386,3.3386,3.3386,3.3386,3.3386,3.3386,3.3386,3.3386,3.3386,3.3386,3.3386,3.3386,3.3386,3.3386,3.3386,3.3386,3.3386,3.3386,3.3386,3.141,3.1819,3.2278,3.2436,3.232,3.2368,3.3056,3.3155,3.3115,3.3179,3.3176,3.3065,3.2766,3.2975,3.3256,3.3434,3.3507,3.3509,3.3421,3.3446,3.3469,3.3403,3.3386,3.3386,3.3386,3.3386,3.3386,3.3386,3.3386,3.3386,3.3386,3.3386,3.3386,3.3386,3.3386,3.3386,3.3386,3.3386,3.3386,3.3386,3.3386,3.3386,3.3386,3.3386,3.3386,3.3386,3.3386,3.3386,3.3386,3.3386,3.3386,3.3386,3.3386,3.3386,3.3386,3.3386,3.3386,3.3386,3.3386,3.3386,3.3386,3.3386,3.3386,3.3386,3.3386,3.3386,3.3386,3.3386,3.3386,3.3386,3.3386,3.3386,3.3386,3.3386,3.3386,3.3386,3.3386,3.3386,3.3386,3.3386,3.3386,3.3386,3.3386,3.3386,3.3386,3.3386,3.3386,3.3386,3.3386,3.3386,3.3386,3.3386,3.3386,3.3386,3.3386,3.3386,3.3386,3.3386,3.3386,3.3386,3.3386,3.3386,3.3386,3.3386,3.3386,3.3386,3.3386,3.3386,3.3386,3.3386,3.3386,3.3386,3.141,3.2199,3.2929,3.25,3.2711,3.3117,3.3463,3.333,3.3088,3.3125,3.3101,3.3092,3.3059,3.3284,3.3505,3.3562,3.3489,3.3401,3.3396,3.3384,3.3394,3.3396,3.3386,3.3386,3.3386,3.3386,3.3386,3.3386,3.3386,3.3386,3.3386,3.3386,3.3386,3.3386,3.3386,3.3386,3.3386,3.3386,3.3386,3.3386,3.3386,3.3386,3.3386,3.3386,3.3386,3.3386,3.3386,3.3386,3.3386,3.3386,3.3386,3.3386,3.3386,3.3386,3.3386,3.3386,3.3386,3.3386,3.3386,3.3386,3.3386,3.3386,3.3386,3.3386,3.3386,3.3386,3.3386,3.3386,3.3386,3.3386,3.3386,3.3386,3.3386,3.3386,3.3386,3.3386,3.3386,3.3386,3.3386,3.3386,3.3386,3.3386,3.3386,3.3386,3.3386,3.3386,3.3386,3.3386,3.3386,3.3386,3.3386,3.3386,3.3386,3.3386,3.3386,3.3386,3.3386,3.3386,3.3386,3.3386,3.3386,3.3386,3.3386,3.3386,3.3386,3.3386,3.3386,3.3386,3.3386,3.3386,3.3386,3.3386,3.1698,3.2241,3.2739,3.2774,3.306,3.3352,3.346,3.337,3.3298,3.3329,3.3353,3.3373,3.3416,3.3429,3.3447,3.3524,3.3457,3.3386,3.3386,3.3386,3.3386,3.3386,3.3386,3.3386,3.3386,3.3386,3.3386,3.3386,3.3386,3.3386,3.3386,3.3386,3.3386,3.3386,3.3386,3.3386,3.3386,3.3386,3.3386,3.3386,3.3386,3.3386,3.3386,3.3386,3.3386,3.3386,3.3386,3.3386,3.3386,3.3386,3.3386,3.3386,3.3386,3.3386,3.3386,3.3386,3.3386,3.3386,3.3386,3.3386,3.3386,3.3386,3.3386,3.3386,3.3386,3.3386,3.3445,3.375,3.3828,3.3769,3.3496,3.3386,3.3386,3.3386,3.3386,3.3464,3.3769,3.3828,3.3906,3.417,3.4219,3.4219,3.4219,3.4219,3.4219,3.4219,3.4219,3.4219,3.4219,3.4219,3.4219,3.4219,3.4219,3.4219,3.4219,3.4219,3.4219,3.4219,3.3689,3.3386,3.3386,3.3386,3.3386,3.3386,3.3386,3.3386,3.3386,3.3386,3.3386,3.3386,3.3386,3.3386,3.1898,3.2483,3.3039,3.2969,3.3417,3.3788,3.3481,3.3386,3.3411,3.3447,3.3482,3.3503,3.3547,3.3475,3.3456,3.3489,3.3436,3.3386,3.3386,3.3386,3.3386,3.3386,3.3386,3.3386,3.3386,3.3386,3.3386,3.3386,3.3386,3.3386,3.3386,3.3386,3.3386,3.3386,3.3386,3.3386,3.3386,3.3386,3.3455,3.3633,3.3633,3.3523,3.3386,3.3386,3.3386,3.3386,3.3386,3.3386,3.3386,3.3386,3.3386,3.3386,3.3386,3.3386,3.3386,3.3386,3.3474,3.3633,3.3633,3.3711,3.3818,3.3818,3.3818,3.3818,3.3818,3.3818,3.3887,3.4189,3.43,3.4231,3.3906,3.3818,3.3818,3.3818,3.3818,3.3906,3.4209,3.43,3.4355,3.4639,3.4697,3.4697,3.4697,3.4697,3.4697,3.4697,3.4697,3.4697,3.4697,3.4697,3.4697,3.4697,3.4697,3.4697,3.4697,3.4697,3.4697,3.4697,3.415,3.376,3.3633,3.3633,3.3564,3.3386,3.3386,3.3386,3.3386,3.3386,3.3386,3.3386,3.3386,3.3386,3.1896,3.3028,3.3969,3.3142,3.3814,3.4463,3.3613,3.3386,3.3386,3.3386,3.3431,3.3504,3.3504,3.3504,3.3504,3.3504,3.3478,3.3418,3.3386,3.3418,3.3418,3.3386,3.3386,3.3386,3.3386,3.3386,3.3386,3.3386,3.3386,3.3386,3.3386,3.3386,3.3386,3.3386,3.3396,3.3396,3.3396,3.3396,3.3652,3.4114,3.4114,3.3848,3.3396,3.3396,3.3396,3.3396,3.3396,3.3396,3.3396,3.3396,3.3396,3.3396,3.3396,3.3396,3.3396,3.3396,3.3711,3.4114,3.4114,3.4388,3.4697,3.4697,3.4697,3.4697,3.4697,3.4697,3.4697,3.4707,3.4707,3.4707,3.4707,3.4707,3.4707,3.4697,3.4697,3.4697,3.4707,3.4707,3.4707,3.4707,3.4707,3.4707,3.4707,3.4707,3.4707,3.4707,3.4707,3.4707,3.4707,3.4707,3.4707,3.4707,3.4707,3.4707,3.4707,3.4707,3.4707,3.4707,3.4707,3.4521,3.4124,3.4114,3.3877,3.3416,3.3396,3.3396,3.3396,3.3396,3.3396,3.3396,3.3396,3.3396,3.266,3.3047,3.3373,3.3719,3.3805,3.373,3.3445,3.3386,3.3386,3.3386,3.343,3.3446,3.3489,3.3457,3.3456,3.3489,3.4402,3.4705,3.3576,3.4373,3.4674,3.3534,3.3386,3.3386,3.3386,3.3386,3.3386,3.3386,3.3386,3.3386,3.3386,3.3386,3.3386,3.3386,3.3721,3.3877,3.3877,3.417,3.4385,3.4512,3.4512,3.4443,3.4316,3.4316,3.4316,3.4316,3.4316,3.4316,3.4316,3.4316,3.4316,3.4316,3.4316,3.4316,3.4316,3.4316,3.4404,3.4512,3.4512,3.46,3.4697,3.4697,3.4697,3.4697,3.4697,3.4697,3.4766,3.5098,3.5185,3.5254,3.5547,3.5591,3.5469,3.4853,3.4697,3.4795,3.5117,3.5185,3.5273,3.5576,3.5591,3.5591,3.5591,3.5591,3.5591,3.5591,3.5591,3.5591,3.5591,3.5591,3.5591,3.5591,3.5591,3.5591,3.5591,3.5591,3.5591,3.5591,3.5591,3.5293,3.4541,3.4512,3.4453,3.4326,3.4316,3.4316,3.4316,3.4316,3.4316,3.4316,3.4316,3.4316,3.2907,3.3247,3.345,3.3788,3.3775,3.3633,3.3425,3.3386,3.3386,3.3386,3.3386,3.3401,3.3431,3.3944,3.416,3.3568,3.4774,3.5242,3.3629,3.4798,3.5448,3.4466,3.4341,3.4341,3.4341,3.3776,3.3386,3.3386,3.3386,3.3386,3.3386,3.3584,3.3682,3.3682,3.4101,3.4359,3.4359,3.457,3.4795,3.498,3.498,3.5059,3.5205,3.4863,3.4697,3.4697,3.4697,3.4697,3.4697,3.4697,3.4697,3.4697,3.4697,3.4697,3.4697,3.4697,3.4814,3.498,3.498,3.5088,3.5225,3.5225,3.5225,3.5225,3.5225,3.5225,3.5283,3.5566,3.5644,3.5703,3.5957,3.5982,3.5855,3.5351,3.5225,3.5303,3.5586,3.5644,3.5723,3.5933,3.5982,3.5982,3.5982,3.5982,3.5982,3.5982,3.5982,3.5982,3.5982,3.5982,3.5982,3.5982,3.5982,3.5982,3.5982,3.5982,3.5982,3.5982,3.5982,3.5747,3.5244,3.5059,3.4892,3.4707,3.4697,3.4697,3.4697,3.4697,3.4697,3.4697,3.4697,3.4697,3.2874,3.3485,3.3926,3.3574,3.375,3.3906,3.3516,3.3386,3.3386,3.3386,3.3386,3.3449,3.3597,3.4819,3.5324,3.387,3.5088,3.5622,3.387,3.5119,3.6193,3.604,3.5898,3.5806,3.5806,3.4341,3.3386,3.3386,3.3386,3.3406,3.3445,3.3857,3.4124,3.4163,3.4541,3.4766,3.4766,3.4805,3.5029,3.5449,3.5449,3.5654,3.5952,3.5185,3.4824,3.4824,3.4824,3.4824,3.4824,3.4824,3.4824,3.4824,3.4824,3.4824,3.4824,3.4824,3.5088,3.5449,3.5449,3.5703,3.5982,3.5982,3.5982,3.5982,3.5982,3.5982,3.5982,3.5982,3.5982,3.5982,3.5982,3.5982,3.5982,3.5982,3.5982,3.5982,3.5982,3.5982,3.5982,3.5982,3.5982,3.5982,3.5982,3.5982,3.5982,3.5982,3.5982,3.5982,3.5982,3.5982,3.5982,3.5982,3.5982,3.5982,3.5982,3.5982,3.5982,3.5982,3.5982,3.5982,3.5982,3.5654,3.5254,3.4824,3.4824,3.4824,3.4824,3.4824,3.4824,3.4824,3.4824,3.4824,3.3335,3.3495,3.3623,3.3867,3.375,3.3503,3.3416,3.3386,3.3386,3.3386,3.3386,3.3776,3.5057,3.5571,3.5683,3.5324,3.7694,3.8557,3.5694,3.7753,3.91,3.7824,3.6558,3.5806,3.5806,3.4341,3.3386,3.3386,3.3386,3.3574,3.3948,3.4055,3.4228,3.456,3.501,3.5244,3.5244,3.5576,3.5781,3.5879,3.5879,3.5937,3.5982,3.583,3.5708,3.5708,3.5708,3.5708,3.5708,3.5708,3.5708,3.5708,3.5708,3.5708,3.5708,3.5708,3.5801,3.5879,3.5879,3.5947,3.5982,3.5982,3.5982,3.5982,3.5982,3.5982,3.5982,3.5982,3.5982,3.5982,3.5982,3.5982,3.5982,3.5982,3.5982,3.5982,3.5982,3.5982,3.5982,3.5982,3.5982,3.5982,3.5982,3.5982,3.5982,3.5982,3.5982,3.5982,3.5982,3.5982,3.5982,3.5982,3.5982,3.5982,3.5982,3.5982,3.5982,3.5982,3.5982,3.5982,3.5982,3.5937,3.584,3.5708,3.5708,3.5708,3.5708,3.5708,3.5708,3.5708,3.5708,3.5708,3.3472,3.3622,3.374,3.376,3.3584,3.3386,3.3386,3.3986,3.456,3.456,3.456,3.4581,3.4643,3.6528,3.7604,3.604,3.8498,3.9756,3.7273,3.9071,4.0303,3.9434,3.7944,3.7243,3.8011,3.5242,3.3713,3.4497,3.3839,3.3613,3.4085,3.429,3.458,3.5019,3.5459,3.5693,3.5693,3.5908,3.5982,3.5982,3.5982,3.5982,3.5982,3.5982,3.5982,3.5982,3.5982,3.5982,3.5982,3.5982,3.5982,3.5982,3.5982,3.5982,3.5982,3.5982,3.5982,3.5982,3.5982,3.5982,3.5982,3.5982,3.5982,3.5982,3.5982,3.5982,3.5982,3.5982,3.5982,3.5982,3.5982,3.5982,3.5982,3.5982,3.5982,3.5982,3.5982,3.5982,3.5982,3.5982,3.5982,3.5982,3.5982,3.5982,3.5982,3.5982,3.5982,3.5982,3.5982,3.5982,3.5982,3.5982,3.5982,3.5982,3.5982,3.5982,3.5982,3.5982,3.5982,3.5982,3.5982,3.5982,3.5982,3.5982,3.5982,3.5982,3.5982,3.5982,3.5982,3.5982,3.5982,3.5982,3.3537,3.374,3.3909,3.3516,3.3386,3.3386,3.3386,3.4643,3.5806,3.5806,3.601,3.5898,3.4829,3.7903,3.9727,3.7062,3.91,4.0448,3.8846,4.0001,4.1007,4.1007,3.9581,3.9141,4.0476,3.6467,3.4383,3.5714,3.4381,3.3721,3.4192,3.459,3.5029,3.5488,3.584,3.5982,3.5982,3.5982,3.5982,3.5982,3.5982,3.5982,3.5982,3.5982,3.5982,3.5982,3.5982,3.5982,3.5982,3.5982,3.5982,3.5982,3.5982,3.5982,3.5982,3.5982,3.5982,3.5982,3.5982,3.5982,3.5982,3.5982,3.5982,3.605,3.6379,3.6437,3.6437,3.6437,3.6437,3.6379,3.6084,3.5982,3.5982,3.5982,3.5982,3.5982,3.5982,3.5982,3.5982,3.5982,3.5982,3.5982,3.5982,3.5982,3.5982,3.5982,3.5982,3.5982,3.5982,3.5982,3.5982,3.5982,3.5982,3.5982,3.5982,3.5982,3.5982,3.5982,3.5982,3.5982,3.5982,3.5982,3.5982,3.5982,3.5982,3.5982,3.5982,3.5982,3.5982,3.5982,3.5982,3.5982,3.4004,3.375,3.3496,3.3437,3.3386,3.3386,3.3386,3.4643,3.5806,3.5806,3.6922,3.8242,3.9434,4.0175,4.0448,4.0018,4.1476,4.2109,4.0505,4.1659,4.2681,4.2681,4.1248,4.0361,4.0592,3.7484,3.556,3.5775,3.4682,3.4202,3.459,3.5049,3.5498,3.5928,3.5952,3.5982,3.5982,3.5982,3.5982,3.5982,3.5982,3.5982,3.5982,3.5982,3.5982,3.5982,3.5982,3.5982,3.5982,3.5982,3.5982,3.5982,3.5982,3.5982,3.5982,3.5982,3.5982,3.5982,3.5982,3.5982,3.5982,3.5982,3.5982,3.6278,3.7798,3.8244,3.8244,3.8244,3.8244,3.7888,3.6379,3.5982,3.5982,3.5982,3.5982,3.5982,3.5982,3.5982,3.5982,3.5982,3.5982,3.5982,3.5982,3.5982,3.5982,3.5982,3.5982,3.5982,3.5982,3.5982,3.5982,3.5982,3.5982,3.5982,3.5982,3.5982,3.5982,3.5982,3.5982,3.5982,3.5982,3.5982,3.5982,3.5982,3.5982,3.5982,3.5982,3.5982,3.5982,3.5982,3.5982,3.5982,3.4492,3.4598,3.4529,3.3629,3.3386,3.3629,3.455,3.599,3.7393,3.829,3.9785,4.0563,3.9464,4.0748,4.1643,4.0748,4.1955,4.2737,4.2053,4.2557,4.3002,4.3002,4.1574,4.0949,4.187,3.9041,3.7525,3.8409,3.6587,3.5631,3.6026,3.5623,3.5586,3.5972,3.5982,3.5982,3.5982,3.5982,3.5982,3.5982,3.5982,3.5982,3.5982,3.5982,3.5982,3.5982,3.5982,3.5982,3.5982,3.5982,3.5982,3.5982,3.5982,3.5982,3.5982,3.5982,3.5982,3.5982,3.5982,3.664,3.7475,3.7475,3.8121,3.8861,3.8674,3.8608,3.8409,3.7408,3.7149,3.6958,3.621,3.5982,3.5982,3.5982,3.5982,3.5982,3.5982,3.5982,3.5982,3.5982,3.5982,3.5982,3.5982,3.5982,3.5982,3.5982,3.5982,3.5982,3.5982,3.5982,3.5982,3.5982,3.5982,3.5982,3.5982,3.5982,3.5982,3.5982,3.5982,3.5982,3.5982,3.5982,3.5982,3.5982,3.5982,3.5982,3.5982,3.5982,3.5982,3.5982,3.5982,3.5982,3.5445,3.5756,3.5728,3.4195,3.3837,3.4167,3.551,3.7043,3.8669,4.0262,4.187,4.2263,3.9855,4.1374,4.2625,4.1403,4.2234,4.3002,4.3002,4.3002,4.3002,4.3002,4.1927,4.1688,4.2877,4.0448,3.9317,4.0505,3.8553,3.7442,3.7752,3.6769,3.6336,3.6654,3.6244,3.5982,3.5982,3.5982,3.5982,3.5982,3.5982,3.5982,3.5982,3.5982,3.5982,3.5982,3.5982,3.5982,3.5982,3.5982,3.5982,3.5982,3.5982,3.5982,3.605,3.6505,3.6664,3.6664,3.6664,3.7508,3.8542,3.8088,3.8828,3.9736,3.8861,3.8608,3.832,3.7025,3.6664,3.6573,3.6118,3.5982,3.5982,3.5982,3.5982,3.5982,3.5982,3.5982,3.5982,3.5982,3.5982,3.5982,3.5982,3.5982,3.5982,3.5982,3.5982,3.5982,3.5982,3.5982,3.5982,3.5982,3.5982,3.5982,3.5982,3.5982,3.5982,3.5982,3.5982,3.5982,3.5982,3.5982,3.5982,3.5982,3.5982,3.5982,3.5982,3.5982,3.5982,3.5982,3.5982,3.5982,3.7153,3.7096,3.6544,3.5317,3.5025,3.5148,3.5675,3.7043,3.8669,4.0262,4.187,4.2946,4.2793,4.289,4.2974,4.289,4.2946,4.3002,4.3002,4.3002,4.3002,4.3002,4.2918,4.2918,4.2974,4.1488,4.0505,4.0592,3.9938,3.9545,3.9578,3.8841,3.8444,3.8476,3.6856,3.5982,3.5982,3.5982,3.5982,3.5982,3.5982,3.5982,3.5982,3.5982,3.5982,3.5982,3.5982,3.5982,3.5982,3.5982,3.5982,3.5982,3.5982,3.5982,3.621,3.7865,3.8476,3.8476,3.8476,3.8509,3.832,3.6664,3.621,3.6573,3.8121,3.8608,3.8575,3.8476,3.8476,3.8088,3.6437,3.5982,3.5982,3.5982,3.5982,3.5982,3.5982,3.5982,3.5982,3.5982,3.5982,3.5982,3.5982,3.5982,3.5982,3.5982,3.5982,3.5982,3.5982,3.5982,3.5982,3.5982,3.5982,3.5982,3.5982,3.5982,3.5982,3.5982,3.5982,3.5982,3.5982,3.5982,3.5982,3.5982,3.5982,3.5982,3.5982,3.5982,3.5982,3.5982,3.5982,3.5982,3.7566,3.7932,3.8026,3.6598,3.6445,3.6955,3.8163,3.9104,4.0216,4.1814,4.2585,4.3002,4.3002,4.3002,4.3002,4.3002,4.3002,4.3002,4.3002,4.3002,4.3002,4.3002,4.3002,4.3002,4.3002,4.2472,4.2137,4.2137,4.1567,4.1245,4.1245,4.0612,3.9769,3.8641,3.7988,3.7116,3.6016,3.5982,3.5982,3.5982,3.5982,3.5982,3.5982,3.5982,3.5982,3.605,3.7183,3.7015,3.5982,3.5982,3.6664,3.7575,3.6447,3.7374,3.9278,3.8795,3.8608,3.8608,3.8608,3.8608,3.8509,3.7855,3.8442,3.9245,3.874,3.8608,3.8376,3.725,3.6924,3.7059,3.7541,3.6833,3.5982,3.5982,3.5982,3.5982,3.5982,3.5982,3.5982,3.5982,3.5982,3.5982,3.5982,3.5982,3.5982,3.5982,3.5982,3.5982,3.5982,3.5982,3.5982,3.5982,3.5982,3.5982,3.5982,3.5982,3.5982,3.5982,3.5982,3.5982,3.5982,3.5982,3.5982,3.5982,3.5982,3.5982,3.5982,3.7116,3.7082,3.605,3.832,3.8729,3.8525,3.8991,3.922,3.7826,3.7657,3.8216,3.9598,4.0121,4.0876,4.2622,4.3002,4.3002,4.3002,4.3002,4.3002,4.3002,4.3002,4.3002,4.3002,4.3002,4.3002,4.3002,4.3002,4.3002,4.3002,4.3002,4.3002,4.3002,4.2962,4.2931,4.2931,4.2378,4.1234,3.954,3.8894,3.8055,3.689,3.6278,3.5982,3.5982,3.5982,3.5982,3.5982,3.5982,3.6311,3.6924,3.8088,3.7921,3.6924,3.7508,3.8442,3.9344,3.8188,3.9147,4.1117,4.0526,3.9953,3.9475,3.9475,3.9092,3.8608,3.8608,3.9376,4.0213,3.9638,3.9475,3.9212,3.8055,3.7732,3.7898,3.8442,3.7317,3.5982,3.5982,3.5982,3.5982,3.5982,3.5982,3.5982,3.5982,3.5982,3.5982,3.5982,3.5982,3.5982,3.5982,3.6505,3.6856,3.6856,3.7374,3.7732,3.7732,3.7732,3.7732,3.7732,3.7216,3.7116,3.7698,3.7183,3.7149,3.7732,3.7732,3.7732,3.7732,3.7732,3.7475,3.6856,3.7441,3.7116,3.6084,3.8993,4.0018,0.0,0.0,0.0,3.8927,3.868,3.8882,3.9742,3.9962,4.0545,4.2568,4.2986,4.3002,4.3002,4.3002,4.3002,4.3002,4.3002,4.3002,4.3002,4.3002,4.3002,4.3002,4.3002,4.3002,4.3002,4.3002,4.3002,4.3002,4.4003,4.4589,4.4589,4.4038,4.2958,4.1341,3.9573,3.863,3.8608,3.6924,3.605,3.5982,3.5982,3.6016,3.6084,3.6084,3.7025,3.8663,3.8729,3.8762,3.8861,4.0505,4.1245,4.1277,4.1213,4.1245,4.1533,4.3126,4.2675,4.1277,4.1277,4.0116,3.8674,3.8674,3.8674,3.8993,4.0698,4.1213,4.1213,4.1213,4.1149,4.0731,3.8993,3.7317,3.605,3.6016,3.5982,3.5982,3.5982,3.605,3.605,3.6016,3.5982,3.6025,3.6084,3.6084,3.6084,3.6171,3.7629,3.8728,3.8705,4.0192,4.1247,4.1235,4.1235,4.1224,4.1213,3.9638,3.9409,4.1085,3.9605,3.9442,4.1117,4.1213,4.1213,4.1213,4.1213,4.0375,3.8663,3.7025,3.6152,3.605,3.7798,3.9573,4.0116,0.0,0.0,0.0,0.0,0.0,4.0652,4.1191,4.1811,4.2388,4.277,4.3002,4.3002,4.3002,4.3002,4.3002,4.3002,4.3002,4.3002,4.3002,4.3002,4.3002,4.3002,4.3002,4.3002,4.3002,4.3002,4.3002,4.4003,4.4589,4.4589,4.4038,4.3501,4.302,4.1362,3.9866,3.8608,3.8121,3.725,3.5982,3.5982,3.6664,3.7898,3.7898,3.8828,4.0537,4.1777,4.2285,4.2221,4.1501,4.1915,4.2895,4.1661,4.2718,4.4798,4.3979,4.3408,4.2989,4.2989,4.1904,4.0472,4.0472,4.0472,4.0569,4.1052,4.1213,4.1213,4.1213,4.0278,3.8927,3.7183,3.7317,3.7575,3.6311,3.5982,3.5982,3.5982,3.6991,3.7508,3.6244,3.5982,3.6403,3.7665,3.7898,3.8424,4.0091,4.0738,4.1209,4.1607,4.208,4.2208,4.1817,4.1772,4.1638,4.1247,4.0763,4.0698,4.1181,4.0763,4.0698,4.1181,4.1213,4.1213,4.1213,4.1213,4.0956,4.0472,4.1202,3.9649,3.605,3.7798,4.0181,0.0,0.0,4.0312,4.0312,0.0,0.0,4.1173,4.1637,4.2134,4.2512,4.2805,4.3002,4.3002,4.3002,4.3002,4.3002,4.3002,4.3002,4.3002,4.3002,4.3002,4.3002,4.3002,4.3002,4.3002,4.3002,4.3002,4.3002,4.379,4.4451,4.4957,4.4862,4.4786,4.4786,4.3126,4.1745,4.0752,3.9311,3.8088,3.7082,3.7082,3.7608,3.863,3.9344,4.0634,4.2296,4.3283,4.4103,4.4725,4.3743,4.3898,4.4694,4.3712,4.454,4.618,4.5147,4.43,4.3688,4.3688,4.2612,4.1309,4.2011,4.2233,4.2391,4.3095,4.2812,4.2233,4.2233,4.0461,3.8376,3.7351,3.7317,3.725,3.6244,3.5982,3.5982,3.5982,3.7374,3.8088,3.6345,3.7183,3.8339,3.886,3.9544,4.0541,4.2089,4.2964,4.3523,4.3832,4.4498,4.4812,4.4497,4.4462,4.4344,4.4005,4.3366,4.3157,4.3624,4.3011,4.2844,4.3306,4.3326,4.3326,4.3326,4.3326,4.3326,4.3326,4.2875,4.1458,3.9235,4.0235,4.1809,0.0,0.0,0.0,4.0312,4.0312,0.0,4.1268,4.1515,4.1773,4.2614,4.2793,4.284,4.284,4.284,4.284,4.284,4.2875,4.2937,4.2986,4.3002,4.3002,4.3002,4.3002,4.3002,4.3002,4.3002,4.3002,4.3002,4.3489,4.4292,4.5434,4.5949,4.625,4.6313,4.4786,4.3886,4.3688,4.0687,3.9081,3.8894,3.8894,3.8993,3.9212,4.0763,4.2391,4.3979,4.3979,4.4859,4.6313,4.6313,4.6313,4.6313,4.6313,4.6313,4.6313,4.6313,4.5312,4.3979,4.3979,4.2989,4.2011,4.3501,4.3979,4.4269,4.5823,4.5074,4.3626,4.324,4.0945,3.8575,3.8343,3.7149,3.5982,3.5982,3.6152,3.6278,3.6278,3.7798,3.8684,3.6984,3.9166,4.1017,4.0141,4.1298,4.2647,4.3342,4.4786,4.5814,4.5862,4.7166,4.8071,4.8008,4.8008,4.797,4.792,4.6514,4.6098,4.7119,4.5792,4.5417,4.6441,4.6439,4.6401,4.6401,4.6338,4.6313,4.6283,4.2875,4.2074,4.3688,4.3501,4.3532,4.0397,4.0312,4.0312,4.0312,4.0312,0.0,4.0512,4.0846,4.1154,4.1361,4.1648,4.1852,4.1852,4.1852,4.1852,4.1852,4.2197,4.2565,4.2953,4.3002,4.3002,4.3002,4.3002,4.3002,4.3002,4.3002,4.3002,4.3002,4.3489,4.4292,4.5434,4.5585,4.5849,4.6301,4.5956,4.5117,4.3719,4.3052,4.2031,4.0698,4.0698,4.1394,4.2726,4.3052,4.4146,4.5793,4.5793,4.5987,4.6313,4.6313,4.6313,4.6313,4.6313,4.6313,4.6313,4.6313,4.6077,4.5793,4.5793,4.5568,4.5342,4.5702,4.5793,4.5866,4.621,4.5074,4.3114,4.0364,3.9114,3.8277,3.6856,3.6244,3.5982,3.5982,3.7059,3.8088,3.8088,4.0526,4.2336,4.1066,4.1383,4.2219,4.3377,4.424,4.5397,4.7337,4.7926,4.8291,4.8727,4.9071,4.9088,4.868,4.863,4.8422,4.7945,4.7614,4.7502,4.7726,4.7433,4.7352,4.7563,4.7161,4.6936,4.6936,4.6539,4.6313,4.6283,4.2875,4.2074,4.3657,4.2328,4.2422,4.044,4.0312,4.0312,4.0312,4.0312,0.0,0.0,4.0828,4.1041,4.1245,4.1471,4.1588,4.1588,4.1588,4.1588,4.1588,4.2,4.2369,4.2618,4.2856,4.3002,4.3002,4.3002,4.3002,4.3002,4.3002,4.3002,4.3002,4.3489,4.4166,4.502,4.5334,4.5748,4.6288,4.6313,4.5883,4.5025,4.4146,4.3283,4.2454,4.2454,4.2895,4.3731,4.4602,4.5464,4.6313,4.6313,4.6313,4.6313,4.6313,4.6313,4.6313,4.6313,4.6313,4.6313,4.6313,4.6313,4.6313,4.6313,4.6313,4.6313,4.6313,4.5702,4.5013,4.5013,4.322,4.0623,3.8021,3.7317,3.7092,3.6244,3.663,3.7317,3.7317,3.8641,3.9888,3.9888,4.1904,4.3624,4.3348,4.4196,4.5043,4.5349,4.6331,4.7553,4.8992,4.922,4.9321,4.9565,4.959,4.949,4.9245,4.922,4.9063,4.8774,4.8749,4.8623,4.836,4.8335,4.8209,4.792,4.7626,4.7488,4.7488,4.6961,4.6697,4.6685,4.4704,4.4189,4.4982,4.4127,4.3731,4.0439,4.0312,4.0312,4.0312,4.0312,4.0397,0.0,0.0,0.0,4.1268,4.1341,4.1341,4.1341,4.1341,4.1341,4.1341,4.173,4.2065,4.2065,4.2441,4.2805,4.2971,4.3002,4.3002,4.3002,4.3002,4.3002,4.3002,4.3388,4.3878,4.4401,4.5008,4.5573,4.6137,4.625,4.6313,4.6313,4.489,4.4208,4.4208,4.4208,4.4208,4.4239,4.5659,4.6313,4.6313,4.6313,4.6313,4.6313,4.6313,4.6313,4.6313,4.6313,4.6313,4.6313,4.6313,4.6313,4.6313,4.6313,4.6313,4.6313,4.6313,4.5342,4.4084,4.3408,4.1298,3.8729,3.6991,3.6505,3.6573,3.6924,3.8055,3.9081,3.9081,4.0408,4.1693,4.1693,4.3071,4.452,4.5124,4.6765,4.7775,4.6847,4.7969,4.912,4.9527,4.959,4.959,4.959,4.959,4.959,4.959,4.959,4.959,4.959,4.959,4.9402,4.8994,4.8956,4.8755,4.8259,4.8134,4.8021,4.7908,4.7462,4.7249,4.7249,4.671,4.6384,4.6313,4.6313,4.5537,4.0533,4.0312,4.0312,4.0312,4.0312,4.029,4.0365,0.0,4.0408,4.0439,0.0,4.0461,4.0461,0.0,0.0,4.0461,4.0837,4.1157,4.1157,4.1508,4.2052,4.289,4.3002,4.3002,4.3002,4.3002,4.3002,4.3002,4.3065,4.3313,4.3865,4.4418,4.4982,4.556,4.605,4.6313,4.6313,4.609,4.6017,4.6017,4.6017,4.6017,4.6017,4.621,4.6313,4.6313,4.6313,4.6313,4.6313,4.6313,4.6313,4.6313,4.6313,4.6313,4.6313,4.6313,4.6313,4.6313,4.6313,4.6313,4.6313,4.6313,4.618,4.5434,4.2391,4.1213,4.0537,3.8795,3.831,3.8674,4.0213,4.0763,4.0892,4.0892,4.219,4.3408,4.3408,4.5163,4.686,4.7415,4.8146,4.8654,4.8527,4.9067,4.9527,4.959,4.959,4.959,4.959,4.959,4.959,4.959,4.959,4.959,4.959,4.959,4.9565,4.9502,4.9502,4.9477,4.9402,4.8969,4.8435,4.792,4.7845,4.782,4.782,4.7262,4.676,4.6313,4.6313,4.618,4.0471,4.0513,4.0658,4.0365,4.0513,4.0626,4.0376,4.0312,4.0312,4.0312,0.0,0.0,0.0,0.0,0.0,0.0,4.0687,4.0995,4.0995,4.1345,4.1755,4.2157,4.2197,4.2297,4.2565,4.2853,4.3002,4.3002,4.3002,4.324,4.3765,4.4301,4.4895,4.5472,4.6024,4.6313,4.6313,4.6313,4.6313,4.6313,4.6313,4.6313,4.6313,4.6313,4.6313,4.6313,4.6313,4.6313,4.6313,4.6313,4.6313,4.6313,4.6313,4.6313,4.6313,4.6313,4.6313,4.6313,4.6313,4.6313,4.612,4.5117,4.4786,4.4343,4.1915,4.1213,4.1052,4.031,4.0127,4.0278,4.102,4.1915,4.2643,4.2643,4.396,4.5208,4.5208,4.5966,4.6903,4.7744,4.8109,4.8485,4.9138,4.9439,4.959,4.959,4.959,4.959,4.959,4.959,4.959,4.959,4.959,4.959,4.959,4.959,4.959,4.959,4.959,4.959,4.959,4.9377,4.9138,4.8887,4.8573,4.841,4.841,4.7857,4.7274,4.6747,4.6421,4.6313,4.0776,4.0817,4.0928,4.0597,4.0647,4.0729,4.0387,4.0312,4.0312,4.0312,4.0312,0.0,0.0,0.0,4.0312,4.0312,0.0,4.083,4.083,4.1058,4.1322,4.1562,4.1588,4.1718,4.2094,4.2545,4.2805,4.2805,4.2922,4.3178,4.3551,4.4104,4.4656,4.5234,4.5799,4.615,4.6313,4.6313,4.6313,4.6313,4.6313,4.6313,4.6313,4.6313,4.6313,4.6313,4.6313,4.6313,4.6313,4.6313,4.6313,4.6313,4.6313,4.6313,4.6313,4.6313,4.6313,4.6313,4.6313,4.6313,4.6077,4.4817,4.4405,4.4115,4.2391,4.1884,4.1884,4.1884,4.1884,4.2011,4.2454,4.3513,4.4405,4.4405,4.5373,4.6313,4.6313,4.6426,4.6772,4.7732,4.8033,4.846,4.9427,4.959,4.959,4.959,4.959,4.959,4.959,4.959,4.959,4.959,4.959,4.959,4.959,4.959,4.959,4.959,4.959,4.959,4.959,4.959,4.959,4.959,4.9233,4.9032,4.9032,4.8422,4.787,4.7299,4.676,4.6421,4.1687,4.1303,4.0995,4.0986,4.0647,4.0323,4.0301,4.0312,4.0312,4.0312,4.0312,4.0312,4.0312,4.0312,4.0312,0.0,4.029,0.0,0.0,4.0333,4.0655,4.1492,4.1588,4.1618,4.1625,4.2041,4.2326,4.2326,4.2738,4.3014,4.3027,4.3526,4.4079,4.4602,4.5208,4.5761,4.6301,4.6313,4.6313,4.6313,4.6313,4.6313,4.6313,4.6313,4.6313,4.6313,4.6313,4.6313,4.6313,4.6313,4.6313,4.6313,4.6313,4.6313,4.6313,4.6313,4.6313,4.6313,4.6313,4.6313,4.6283,4.621,4.6223,4.5883,4.4146,4.3626,4.3626,4.3626,4.3626,4.4022,4.5702,4.618,4.6223,4.6223,4.6253,4.6313,4.6313,4.6697,4.7237,4.7807,4.836,4.8956,4.949,4.959,4.959,4.959,4.959,4.959,4.959,4.959,4.959,4.959,4.959,4.959,4.959,4.959,4.959,4.959,4.959,4.959,4.959,4.959,4.959,4.959,4.9577,4.9565,4.9565,4.9044,4.8479,4.787,4.7312,4.6798,4.1632,4.1724,4.1741,4.1137,4.1078,4.0998,4.0418,4.0312,4.0376,4.0687,4.0534,4.0408,4.0708,4.0502,4.0312,0.0,0.0,4.0312,0.0,4.0312,4.0408,4.0695,4.1021,4.119,4.119,4.1882,4.2292,4.2292,4.2738,4.3002,4.3002,4.3501,4.4053,4.4577,4.5183,4.5748,4.6301,4.6313,4.6313,4.6313,4.6313,4.6313,4.6313,4.6313,4.6313,4.6313,4.6313,4.6313,4.6313,4.6313,4.6313,4.6313,4.6313,4.6313,4.6313,4.6313,4.6313,4.6313,4.6313,4.6313,4.6313,4.6313,4.6313,4.618,4.5598,4.5403,4.5403,4.5403,4.5403,4.5568,4.615,4.6313,4.6313,4.6313,4.6313,4.6313,4.6313,4.6421,4.6823,4.7744,4.8058,4.8498,4.9439,4.959,4.959,4.959,4.959,4.959,4.959,4.959,4.959,4.959,4.959,4.959,4.959,4.959,4.959,4.959,4.959,4.959,4.959,4.959,4.959,4.959,4.959,4.959,4.959,4.9402,4.9025,4.8473,4.7908,4.7167,4.2117,4.2185,4.2169,4.1597,4.1523,4.1459,4.0894,4.0755,4.0855,4.1154,4.0867,4.0687,4.1114,4.0706,4.0355,0.0,0.0,4.0312,0.0,4.0312,4.0312,4.0312,4.0576,4.0819,4.0974,4.1501,4.1983,4.23,4.2581,4.2809,4.2986,4.3341,4.3853,4.4577,4.4982,4.5547,4.6301,4.6313,4.6313,4.6313,4.6313,4.6313,4.6313,4.6313,4.6313,4.6313,4.6313,4.6313,4.6313,4.6313,4.6313,4.6313,4.6313,4.6313,4.6313,4.6313,4.6313,4.6313,4.6313,4.6313,4.6313,4.6313,4.6313,4.6313,4.6313,4.6313,4.6351,4.6522,4.6464,4.6351,4.6522,4.6421,4.6313,4.6313,4.6313,4.6313,4.6313,4.6313,4.6577,4.7425,4.7631,4.7996,4.9113,4.9333,4.9377,4.9565,4.959,4.959,4.959,4.959,4.959,4.959,4.959,4.959,4.959,4.959,4.959,4.959,4.959,4.959,4.959,4.959,4.959,4.959,4.959,4.959,4.959,4.959,4.9201,4.8479,4.8083,4.7343]},{"header":{"parameterUnit":"m.s-1","parameterCategory":1,"la1":30.6,"la2":29.2853,"lo1":-89.7004,"lo2":-87.6739,"dy":0.0162,"dx":0.0183,"nx":112,"ny":82,"refTime":"2023-05-20T00:00:00:Z","depth":0,"parameterNumber":3,"parameterNumberName":"V-component_of_WINDS"},"data":[0.0,0.0,0.0,0.0,0.0,0.0,0.0,0.0,0.0,0.0,0.0,0.0,0.0,0.0,0.0,0.0,0.0,0.0,0.0,0.0,0.0,0.0,0.0,0.0,0.0,0.0,0.0,0.0,0.0,0.0,0.0,0.0,0.0,0.0,0.0,0.0,0.0,0.0,0.0,0.0,0.0,0.0,0.0,0.0,0.0,0.0,0.0,0.0,0.0,0.0,0.0,0.0,0.0,0.0,0.0,0.0,0.0,0.0,0.0,0.0,0.0,0.0,0.0,0.0,0.0,0.0,0.0,0.0,0.0,0.0,0.0,0.0,0.0,0.0,0.0,0.0,0.0,0.0,0.0,0.0,0.0,0.0,0.0,0.0,0.0,0.0,0.0,0.0,0.0,0.0,3.9702,4.0257,3.9768,3.9406,3.9406,3.9406,3.9714,4.0455,0.0,0.0,0.0,0.0,0.0,0.0,0.0,0.0,0.0,0.0,0.0,0.0,0.0,0.0,0.0,0.0,0.0,0.0,0.0,0.0,0.0,0.0,0.0,0.0,0.0,0.0,0.0,0.0,0.0,0.0,0.0,0.0,0.0,0.0,0.0,0.0,0.0,0.0,0.0,0.0,0.0,0.0,0.0,0.0,0.0,0.0,0.0,0.0,0.0,0.0,0.0,0.0,0.0,0.0,0.0,0.0,0.0,0.0,0.0,0.0,0.0,0.0,0.0,0.0,0.0,0.0,0.0,0.0,0.0,0.0,0.0,0.0,0.0,0.0,0.0,0.0,0.0,0.0,0.0,0.0,0.0,0.0,0.0,0.0,0.0,0.0,0.0,0.0,0.0,0.0,0.0,0.0,0.0,0.0,0.0,0.0,0.0,0.0,0.0,0.0,0.0,0.0,0.0,0.0,3.953,3.955,3.9463,3.9406,3.9406,3.9406,3.9714,4.0455,0.0,0.0,0.0,0.0,0.0,0.0,0.0,0.0,0.0,0.0,0.0,0.0,0.0,0.0,0.0,0.0,0.0,0.0,0.0,0.0,0.0,0.0,0.0,0.0,0.0,0.0,0.0,0.0,0.0,0.0,0.0,0.0,0.0,0.0,0.0,0.0,0.0,0.0,0.0,0.0,0.0,0.0,0.0,0.0,0.0,0.0,0.0,0.0,0.0,0.0,0.0,0.0,0.0,0.0,0.0,0.0,0.0,0.0,0.0,0.0,0.0,0.0,0.0,0.0,0.0,0.0,0.0,0.0,0.0,0.0,0.0,0.0,0.0,0.0,0.0,0.0,0.0,0.0,0.0,0.0,0.0,0.0,0.0,0.0,0.0,0.0,0.0,0.0,0.0,0.0,0.0,0.0,0.0,0.0,0.0,0.0,0.0,0.0,0.0,0.0,0.0,0.0,0.0,3.9659,3.9549,3.9406,3.9406,3.9406,3.9406,3.9406,3.9714,4.0455,4.0489,0.0,0.0,0.0,0.0,0.0,0.0,0.0,0.0,0.0,0.0,0.0,0.0,0.0,0.0,0.0,0.0,0.0,0.0,0.0,0.0,0.0,0.0,0.0,0.0,0.0,0.0,0.0,0.0,0.0,0.0,0.0,0.0,0.0,0.0,0.0,0.0,0.0,0.0,0.0,0.0,0.0,0.0,0.0,0.0,0.0,0.0,0.0,0.0,0.0,0.0,0.0,0.0,0.0,0.0,0.0,0.0,0.0,0.0,0.0,0.0,0.0,0.0,0.0,0.0,0.0,0.0,0.0,0.0,0.0,0.0,0.0,0.0,0.0,0.0,0.0,0.0,0.0,0.0,0.0,0.0,0.0,0.0,0.0,0.0,0.0,0.0,0.0,0.0,0.0,0.0,0.0,0.0,0.0,0.0,0.0,0.0,0.0,0.0,0.0,0.0,0.0,0.0,3.9504,3.9562,3.9418,3.9406,3.9406,3.9406,3.9406,3.9714,4.0455,4.0489,0.0,0.0,0.0,0.0,0.0,0.0,0.0,0.0,0.0,0.0,0.0,0.0,0.0,0.0,0.0,0.0,0.0,0.0,0.0,0.0,0.0,0.0,0.0,0.0,0.0,0.0,0.0,0.0,0.0,0.0,0.0,0.0,0.0,0.0,0.0,0.0,0.0,0.0,0.0,0.0,0.0,0.0,0.0,0.0,0.0,0.0,0.0,0.0,0.0,0.0,0.0,0.0,0.0,0.0,0.0,0.0,0.0,0.0,0.0,0.0,0.0,0.0,0.0,0.0,0.0,0.0,0.0,0.0,0.0,0.0,0.0,0.0,0.0,0.0,0.0,0.0,0.0,0.0,0.0,0.0,0.0,0.0,0.0,0.0,0.0,0.0,0.0,0.0,0.0,0.0,0.0,0.0,0.0,0.0,0.0,0.0,0.0,0.0,0.0,0.0,0.0,0.0,3.9148,3.9418,3.9391,3.9406,3.9406,3.9406,3.9406,3.9714,4.0455,4.0489,0.0,0.0,0.0,0.0,0.0,0.0,0.0,0.0,0.0,0.0,0.0,0.0,0.0,0.0,0.0,0.0,0.0,0.0,0.0,0.0,0.0,0.0,0.0,0.0,0.0,0.0,0.0,0.0,0.0,0.0,0.0,0.0,0.0,0.0,0.0,0.0,0.0,0.0,0.0,0.0,0.0,0.0,0.0,0.0,0.0,0.0,0.0,0.0,0.0,0.0,0.0,0.0,0.0,0.0,0.0,0.0,0.0,0.0,0.0,0.0,0.0,0.0,0.0,0.0,0.0,0.0,0.0,0.0,0.0,0.0,0.0,0.0,0.0,0.0,0.0,0.0,0.0,0.0,0.0,0.0,0.0,0.0,0.0,0.0,0.0,0.0,0.0,0.0,0.0,0.0,0.0,0.0,0.0,0.0,0.0,0.0,0.0,0.0,0.0,0.0,0.0,0.0,3.9727,3.9866,3.9436,3.9406,3.9406,3.9406,3.9406,3.9714,4.0455,0.0,0.0,0.0,0.0,0.0,0.0,0.0,0.0,0.0,0.0,0.0,0.0,0.0,0.0,0.0,0.0,0.0,0.0,0.0,0.0,0.0,0.0,0.0,0.0,0.0,0.0,0.0,0.0,0.0,0.0,0.0,0.0,0.0,0.0,0.0,0.0,0.0,0.0,0.0,0.0,0.0,0.0,0.0,0.0,0.0,0.0,0.0,0.0,0.0,0.0,0.0,0.0,0.0,0.0,0.0,0.0,0.0,0.0,0.0,0.0,0.0,0.0,0.0,0.0,0.0,0.0,0.0,0.0,0.0,0.0,0.0,0.0,0.0,0.0,0.0,0.0,0.0,0.0,0.0,0.0,0.0,0.0,0.0,0.0,0.0,0.0,0.0,0.0,0.0,0.0,0.0,0.0,0.0,0.0,0.0,0.0,0.0,0.0,0.0,0.0,0.0,0.0,3.9976,3.9968,3.9907,3.9454,3.9406,3.9406,3.9406,3.9406,3.9714,4.0455,0.0,0.0,0.0,0.0,0.0,0.0,0.0,0.0,0.0,0.0,0.0,0.0,0.0,0.0,0.0,0.0,0.0,0.0,0.0,0.0,0.0,0.0,0.0,0.0,0.0,0.0,0.0,0.0,0.0,0.0,0.0,0.0,0.0,0.0,0.0,0.0,0.0,0.0,0.0,0.0,0.0,0.0,0.0,0.0,0.0,0.0,0.0,0.0,0.0,0.0,0.0,0.0,0.0,0.0,0.0,0.0,0.0,0.0,0.0,0.0,0.0,0.0,0.0,0.0,0.0,0.0,0.0,0.0,0.0,0.0,0.0,0.0,0.0,0.0,0.0,0.0,0.0,0.0,0.0,0.0,0.0,0.0,0.0,0.0,0.0,0.0,0.0,0.0,0.0,0.0,0.0,0.0,0.0,0.0,0.0,0.0,0.0,0.0,0.0,0.0,0.0,0.0,4.0168,3.966,3.9409,3.9406,3.9406,3.9406,3.9406,3.9406,3.9714,0.0,0.0,0.0,0.0,0.0,0.0,0.0,0.0,0.0,0.0,0.0,0.0,0.0,0.0,0.0,0.0,0.0,0.0,0.0,0.0,0.0,0.0,0.0,0.0,0.0,0.0,0.0,0.0,0.0,0.0,0.0,0.0,0.0,0.0,0.0,0.0,0.0,0.0,0.0,0.0,0.0,0.0,0.0,0.0,0.0,0.0,0.0,0.0,0.0,0.0,0.0,0.0,0.0,0.0,0.0,0.0,0.0,0.0,0.0,0.0,0.0,0.0,0.0,0.0,0.0,0.0,0.0,0.0,0.0,0.0,0.0,0.0,0.0,0.0,0.0,0.0,0.0,0.0,0.0,0.0,0.0,0.0,0.0,0.0,0.0,0.0,0.0,0.0,0.0,0.0,0.0,0.0,0.0,0.0,0.0,0.0,0.0,0.0,0.0,0.0,0.0,0.0,0.0,4.0877,4.0494,4.008,3.9463,3.9406,3.9406,3.9406,3.9406,3.9539,3.9916,0.0,0.0,0.0,0.0,0.0,0.0,0.0,0.0,0.0,0.0,0.0,0.0,0.0,0.0,0.0,0.0,0.0,0.0,0.0,0.0,0.0,0.0,0.0,0.0,0.0,0.0,0.0,0.0,0.0,0.0,0.0,0.0,0.0,0.0,0.0,0.0,0.0,0.0,0.0,0.0,0.0,0.0,0.0,0.0,0.0,0.0,0.0,0.0,0.0,0.0,0.0,0.0,0.0,0.0,0.0,0.0,0.0,0.0,0.0,0.0,0.0,0.0,0.0,0.0,0.0,0.0,0.0,0.0,0.0,0.0,0.0,0.0,0.0,0.0,0.0,0.0,0.0,0.0,0.0,0.0,0.0,0.0,0.0,0.0,0.0,0.0,0.0,0.0,0.0,0.0,0.0,0.0,0.0,0.0,0.0,0.0,0.0,0.0,0.0,0.0,0.0,0.0,4.1428,4.0944,4.0378,3.9499,3.9406,3.9406,3.9406,3.9406,3.9531,3.9803,0.0,0.0,0.0,0.0,0.0,0.0,0.0,0.0,0.0,0.0,0.0,0.0,0.0,0.0,0.0,0.0,0.0,0.0,0.0,0.0,0.0,0.0,0.0,0.0,0.0,0.0,0.0,0.0,0.0,0.0,0.0,0.0,0.0,0.0,0.0,0.0,0.0,0.0,0.0,0.0,0.0,0.0,0.0,0.0,0.0,0.0,0.0,0.0,0.0,0.0,0.0,0.0,0.0,0.0,0.0,0.0,0.0,0.0,0.0,0.0,0.0,0.0,0.0,0.0,0.0,0.0,0.0,0.0,0.0,0.0,0.0,0.0,0.0,0.0,0.0,0.0,0.0,0.0,0.0,0.0,0.0,0.0,0.0,0.0,0.0,0.0,0.0,0.0,0.0,0.0,0.0,0.0,0.0,0.0,0.0,0.0,0.0,0.0,0.0,0.0,0.0,0.0,4.1869,4.1147,4.0397,3.961,3.9445,3.9406,3.9406,3.9406,3.9556,3.9887,0.0,0.0,0.0,0.0,0.0,0.0,0.0,0.0,0.0,0.0,0.0,0.0,0.0,0.0,0.0,0.0,0.0,0.0,0.0,0.0,0.0,0.0,0.0,0.0,0.0,0.0,0.0,0.0,0.0,0.0,0.0,0.0,0.0,0.0,0.0,0.0,0.0,0.0,0.0,0.0,0.0,0.0,0.0,0.0,0.0,0.0,0.0,0.0,0.0,0.0,0.0,0.0,0.0,0.0,0.0,0.0,0.0,0.0,0.0,0.0,4.2424,4.2771,0.0,0.0,0.0,0.0,0.0,0.0,0.0,0.0,0.0,0.0,0.0,0.0,0.0,0.0,0.0,0.0,0.0,0.0,0.0,0.0,0.0,0.0,0.0,0.0,0.0,0.0,0.0,0.0,0.0,0.0,0.0,0.0,0.0,0.0,0.0,0.0,0.0,0.0,0.0,0.0,4.2285,4.1312,4.0622,4.0432,3.9811,3.9406,3.9406,3.9406,3.9396,3.9375,3.9467,0.0,0.0,0.0,0.0,0.0,0.0,0.0,0.0,0.0,0.0,0.0,0.0,0.0,0.0,0.0,0.0,0.0,0.0,0.0,0.0,0.0,0.0,0.0,0.0,0.0,0.0,0.0,0.0,0.0,0.0,0.0,0.0,0.0,0.0,0.0,0.0,0.0,0.0,0.0,0.0,0.0,0.0,0.0,0.0,0.0,0.0,0.0,0.0,0.0,0.0,0.0,0.0,0.0,0.0,0.0,0.0,0.0,0.0,0.0,4.3511,4.3447,0.0,0.0,0.0,0.0,0.0,0.0,0.0,0.0,0.0,0.0,0.0,0.0,0.0,0.0,0.0,0.0,0.0,0.0,0.0,0.0,0.0,0.0,0.0,0.0,0.0,0.0,0.0,0.0,0.0,0.0,0.0,0.0,0.0,0.0,0.0,0.0,0.0,0.0,0.0,0.0,4.2769,4.2221,4.1788,4.1379,4.0535,4.0202,4.0603,4.0272,3.9995,3.9919,4.0158,0.0,0.0,0.0,0.0,0.0,0.0,0.0,0.0,0.0,0.0,0.0,0.0,0.0,0.0,0.0,0.0,0.0,0.0,0.0,0.0,0.0,0.0,0.0,0.0,0.0,0.0,0.0,0.0,0.0,0.0,0.0,0.0,0.0,0.0,0.0,0.0,0.0,0.0,0.0,0.0,0.0,0.0,0.0,0.0,0.0,0.0,0.0,0.0,0.0,0.0,0.0,0.0,0.0,4.4319,4.4515,4.466,4.4928,4.5066,4.5079,4.4625,4.425,4.4047,4.5056,0.0,0.0,0.0,0.0,0.0,0.0,0.0,0.0,0.0,0.0,0.0,0.0,0.0,0.0,0.0,0.0,0.0,0.0,0.0,0.0,0.0,0.0,4.5203,4.4978,4.4845,4.4806,4.4913,0.0,0.0,0.0,0.0,0.0,0.0,0.0,0.0,0.0,0.0,0.0,4.3347,4.3259,4.3032,4.23,4.1445,4.123,4.1949,4.1346,4.0929,4.0929,4.1329,4.1307,0.0,0.0,0.0,0.0,0.0,0.0,0.0,0.0,0.0,0.0,0.0,0.0,0.0,0.0,0.0,0.0,0.0,0.0,0.0,0.0,0.0,0.0,0.0,0.0,0.0,0.0,0.0,0.0,0.0,0.0,0.0,0.0,4.3078,4.3049,0.0,0.0,0.0,0.0,0.0,0.0,0.0,0.0,0.0,0.0,0.0,0.0,0.0,4.5436,4.5727,4.5538,4.5638,4.6003,4.4308,4.3818,4.4431,4.4484,4.456,4.4692,4.5142,0.0,4.5003,4.493,0.0,0.0,0.0,0.0,0.0,0.0,0.0,0.0,0.0,0.0,0.0,0.0,0.0,0.0,0.0,0.0,0.0,0.0,0.0,0.0,0.0,0.0,4.4696,4.4654,4.464,4.4626,4.4654,4.4831,4.5005,4.5046,4.5046,4.5073,0.0,0.0,0.0,0.0,0.0,0.0,4.4051,4.3562,4.3261,4.3139,4.2348,4.1885,4.1997,4.1901,4.1836,4.1836,4.1901,4.1804,4.1529,4.1686,0.0,0.0,0.0,0.0,0.0,0.0,0.0,0.0,0.0,0.0,0.0,0.0,0.0,0.0,0.0,0.0,0.0,0.0,0.0,0.0,0.0,0.0,0.0,0.0,0.0,0.0,0.0,0.0,0.0,4.3487,4.3583,4.3549,4.3445,4.3383,0.0,0.0,0.0,0.0,0.0,0.0,0.0,0.0,0.0,4.4847,4.5616,4.5873,4.5534,4.514,4.5014,4.5154,4.4656,4.4421,4.4418,4.4826,4.4869,4.4612,4.4879,4.4934,4.4872,4.4978,4.514,4.5296,0.0,0.0,0.0,0.0,4.5455,4.5428,4.519,4.5113,4.5113,4.5113,0.0,0.0,0.0,0.0,0.0,0.0,0.0,4.5555,4.527,4.5073,4.4886,4.4654,4.4615,4.4615,4.4615,4.4696,4.4817,4.4964,4.5059,4.5177,4.5389,4.523,0.0,0.0,0.0,4.4706,4.4169,4.4066,4.4035,4.4035,4.3244,4.2924,4.341,4.3016,4.2739,4.2739,4.2739,4.2685,4.2587,4.242,4.2709,0.0,0.0,0.0,0.0,0.0,0.0,0.0,0.0,0.0,0.0,0.0,0.0,0.0,0.0,0.0,0.0,0.0,0.0,0.0,0.0,0.0,0.0,0.0,0.0,0.0,0.0,0.0,0.0,4.383,4.3981,4.4175,4.3979,4.3951,0.0,0.0,0.0,0.0,0.0,0.0,4.4912,4.6122,4.6507,4.5865,4.6189,4.6067,4.5407,4.531,4.5244,4.5251,4.5659,4.5598,4.5184,4.5744,4.5648,4.5048,4.5048,4.4971,4.4841,4.4991,4.5046,4.5073,4.5376,4.549,4.549,4.549,4.549,4.5455,4.5154,4.5046,4.5046,4.5046,4.5127,4.5257,4.5572,0.0,0.0,0.0,0.0,4.5555,4.5154,4.5046,4.4964,4.4668,4.4615,4.4615,4.4615,4.4654,4.4751,4.4872,4.4978,4.5127,4.5363,4.5154,0.0,4.4752,4.4772,4.4665,4.4286,4.4443,4.4615,4.4615,4.402,4.3904,4.4542,4.4006,4.3636,4.3636,4.3636,4.3636,4.3636,4.3396,4.3591,4.427,0.0,0.0,0.0,0.0,0.0,0.0,0.0,0.0,0.0,0.0,0.0,0.0,0.0,0.0,0.0,0.0,0.0,0.0,0.0,0.0,0.0,0.0,0.0,0.0,0.0,0.0,0.0,0.0,0.0,4.4953,4.486,0.0,0.0,0.0,0.0,4.606,4.6035,4.6018,4.6018,4.5509,4.5196,4.515,4.5897,4.6274,4.6238,4.7465,4.8082,4.8091,4.7552,4.7288,4.7237,4.7292,4.6943,4.6312,4.6312,4.5989,4.5407,4.4869,4.4626,4.4626,4.4654,4.4654,4.4654,4.4654,4.4654,4.4654,4.4626,4.4626,4.4626,4.4626,4.4899,4.5203,4.5217,4.5507,0.0,0.0,4.523,4.5154,4.472,4.4626,4.4643,4.4598,4.4615,4.4615,4.4615,4.4789,4.4913,4.4668,4.4643,4.4668,4.4817,0.0,4.4803,4.4789,4.4789,4.4751,4.4584,4.4601,4.4615,4.4615,4.4556,4.4542,4.4601,4.4556,4.4528,4.4528,4.4528,4.4528,4.4528,4.4514,4.4598,4.4762,4.4899,0.0,0.0,0.0,0.0,0.0,0.0,0.0,0.0,0.0,0.0,0.0,0.0,0.0,0.0,0.0,0.0,0.0,0.0,0.0,0.0,0.0,0.0,0.0,0.0,0.0,0.0,0.0,0.0,4.5695,4.5711,0.0,4.6195,4.6171,4.6153,4.6196,4.6552,4.6737,4.6737,4.7008,4.7157,4.7157,4.7449,4.7595,4.7595,4.8054,4.8581,4.9142,4.8917,4.886,4.8934,4.8934,4.8341,4.7312,4.7312,4.694,4.6311,4.6089,4.5464,4.4615,4.4615,4.4615,4.4615,4.4615,4.4615,4.4615,4.4615,4.4615,4.4615,4.4615,4.4696,4.4817,4.4817,4.491,4.4991,4.4858,4.4817,4.4895,4.5221,4.5314,4.5432,4.5904,4.6022,4.6022,4.6022,4.6092,4.6135,4.602,4.5382,4.4872,4.4927,4.4793,4.4737,4.4896,4.4776,4.4654,4.4615,4.4615,4.4615,4.4615,4.4615,4.4615,4.4615,4.4615,4.4615,4.4615,4.4615,4.4615,4.4615,4.4615,4.4612,4.4668,4.4723,4.4978,0.0,0.0,0.0,0.0,0.0,0.0,0.0,0.0,0.0,0.0,0.0,0.0,0.0,0.0,0.0,0.0,0.0,0.0,0.0,0.0,0.0,0.0,0.0,0.0,0.0,4.5223,4.5645,4.6527,4.6523,4.6571,4.6936,4.6892,4.6856,4.691,4.7546,4.7929,4.7929,4.87,4.915,4.915,4.915,4.915,4.915,4.915,4.9426,5.0004,5.0004,5.0043,5.0141,5.0141,4.9654,4.881,4.8579,4.8094,4.7461,4.7238,4.6436,4.5345,4.5345,4.5345,4.5345,4.5345,4.5345,4.5345,4.5345,4.5345,4.5345,4.5345,4.5345,4.5345,4.5345,4.5345,4.5345,4.5345,4.5345,4.5447,4.594,4.6075,4.6194,4.6667,4.68,4.68,4.68,4.68,4.68,4.68,4.6146,4.5608,4.5608,4.547,4.5428,4.5702,4.551,4.5371,4.5467,4.5399,4.5244,4.5007,4.4973,4.4871,4.4632,4.4902,4.495,4.4615,4.4919,4.495,4.4615,4.4737,4.4789,4.4789,4.4789,4.5019,4.5481,0.0,0.0,0.0,0.0,0.0,0.0,0.0,0.0,0.0,0.0,0.0,0.0,0.0,0.0,0.0,0.0,0.0,0.0,0.0,0.0,0.0,0.0,0.0,4.5349,4.5885,4.6614,4.7428,4.7316,4.748,4.826,4.8351,4.837,4.837,4.916,4.9647,4.9647,5.039,5.0802,5.0802,5.0802,5.0802,5.0802,5.0802,5.082,5.0839,5.0839,5.0857,5.0875,5.0875,5.0865,5.0796,5.013,4.9459,4.8793,4.8111,4.7442,4.6853,4.6817,4.68,4.68,4.68,4.68,4.68,4.68,4.68,4.68,4.68,4.68,4.68,4.68,4.68,4.68,4.68,4.68,4.6817,4.6834,4.6834,4.6836,4.6853,4.6868,4.6868,4.6868,4.6868,4.6868,4.6868,4.6868,4.6851,4.6817,4.68,4.6886,4.7139,4.6956,0.0,4.7153,4.6956,4.6532,4.5821,4.5737,4.5464,4.475,4.5557,4.5684,4.4696,4.5526,4.5618,4.4646,4.4964,4.5177,4.5177,4.519,4.519,4.519,0.0,0.0,0.0,0.0,0.0,0.0,0.0,0.0,0.0,0.0,0.0,0.0,0.0,0.0,0.0,0.0,0.0,0.0,0.0,0.0,0.0,4.714,4.7574,4.6835,4.6819,4.7178,4.7969,4.8528,4.8948,4.9215,4.9774,5.0105,5.0105,5.0325,5.0472,5.0472,5.0674,5.0802,5.0802,5.0802,5.0802,5.0802,5.0802,5.1096,5.1675,5.1675,5.1977,5.2535,5.2535,5.2258,5.1706,5.1041,5.0333,4.9614,4.8949,4.8555,4.8291,4.7208,4.68,4.68,4.68,4.68,4.68,4.68,4.68,4.68,4.68,4.68,4.68,4.68,4.68,4.68,4.68,4.68,4.6921,4.7447,4.7599,4.7718,4.8274,4.8392,4.8392,4.8392,4.8392,4.8392,4.8392,4.8392,4.8054,4.6972,4.68,4.683,4.6901,4.6859,4.683,4.6901,4.6844,4.6745,4.6644,4.6723,4.6666,4.6365,4.6195,4.5891,4.543,4.5159,4.4885,4.4615,4.4709,4.4762,4.4762,4.5046,4.519,0.0,0.0,0.0,0.0,0.0,0.0,0.0,0.0,0.0,0.0,0.0,0.0,0.0,0.0,0.0,0.0,0.0,0.0,0.0,0.0,0.0,0.0,4.8163,4.8796,4.8337,4.8188,4.8324,4.8783,4.9554,5.005,5.0096,5.0527,5.0802,5.0802,5.1114,5.1298,5.1298,5.1628,5.1801,5.1801,5.1801,5.1801,5.1801,5.1801,5.204,5.2509,5.2509,5.2747,5.3196,5.3196,5.2791,5.2089,5.1698,5.0938,4.9962,4.9578,4.9256,4.8917,0.0,0.0,0.0,0.0,4.7716,4.7716,4.7716,4.7716,4.7716,4.7716,4.7716,4.7716,4.7716,4.7716,4.7716,4.7716,4.7716,4.7817,4.8242,4.836,4.8462,4.89,4.9001,4.9001,4.9001,4.9001,4.9001,4.9001,4.9001,0.0,4.7868,4.7716,4.7761,4.791,4.7806,4.7776,4.791,4.7806,4.7627,4.7412,4.7447,4.7342,4.6949,4.6999,0.0,0.0,0.0,4.5436,4.4862,4.4845,0.0,0.0,0.0,4.5481,4.5328,4.6179,0.0,0.0,4.705,4.7392,0.0,0.0,0.0,0.0,0.0,0.0,0.0,0.0,0.0,0.0,0.0,0.0,0.0,0.0,0.0,0.0,4.9255,4.9729,4.9729,4.9812,4.9849,4.9757,5.0453,5.0949,5.0949,5.1022,5.1077,5.1077,5.172,5.2152,5.2152,5.281,0.0,0.0,0.0,5.3196,5.3196,5.3196,5.3164,5.3082,5.3164,5.3164,5.3082,5.3164,5.2791,5.2101,5.2012,5.1223,4.999,4.9919,4.9551,4.9001,4.9001,4.9001,4.9001,4.9001,4.9001,4.9001,4.9001,0.0,0.0,4.9001,4.9001,4.9001,4.9001,4.9001,4.9001,4.9001,4.9001,4.9001,4.9001,4.9001,4.9001,4.9001,4.9001,4.9001,4.9001,4.9001,4.9001,4.9001,4.9001,4.9001,4.9001,4.9001,4.9094,4.9398,4.9185,4.9109,4.9413,4.9185,4.8765,4.8105,4.8067,0.0,4.712,4.7892,4.7987,4.7001,4.7063,4.6612,4.5435,4.538,4.538,4.538,4.5905,4.6036,4.5754,4.7066,4.8057,4.8713,4.7826,4.8117,0.0,0.0,0.0,0.0,0.0,0.0,0.0,0.0,0.0,0.0,0.0,0.0,0.0,0.0,0.0,4.9489,5.01,5.0563,5.0563,5.1143,5.1308,5.0655,5.1279,5.1767,5.1767,5.2362,5.2737,5.2737,5.2884,5.2957,5.2957,5.3122,5.3196,5.3196,5.3196,5.3196,5.3196,5.3196,5.2904,5.2324,5.2915,0.0,5.2317,5.2926,5.2791,5.2077,5.1519,5.081,4.9962,4.9419,4.9123,4.9001,4.9001,4.9001,4.9001,4.9001,4.9001,4.9001,4.9001,4.9001,4.9001,4.9001,4.9001,4.9001,4.9001,4.9001,0.0,4.9001,4.9001,4.9001,4.9001,4.9001,4.9001,4.9001,4.9001,4.9001,4.9001,4.9001,4.9001,4.9001,4.9001,4.9001,4.9001,4.9001,4.9017,4.9094,4.9032,4.9017,4.9094,4.9032,4.8997,4.8934,4.9086,4.908,4.8759,4.853,4.8194,4.7731,4.7183,4.6767,4.6494,4.6491,4.6491,4.6491,4.6604,4.6892,4.7357,4.7643,4.8405,4.9548,4.9377,4.9717,0.0,0.0,0.0,0.0,0.0,0.0,0.0,0.0,0.0,0.0,0.0,4.9459,4.9334,0.0,5.0377,5.0277,5.0887,5.1389,5.1389,5.2087,5.2307,5.1499,5.2105,5.2601,5.2601,5.2957,5.3379,5.3765,5.3801,5.3977,5.4381,5.4399,5.4399,5.4399,5.4399,5.4399,5.4399,5.4399,5.4221,5.3838,5.3438,5.3049,5.2702,5.2311,5.1967,5.1631,5.13,5.0945,5.0558,5.0241,5.0102,5.0102,5.0102,4.9661,4.9001,4.9001,4.9001,4.9001,4.9001,4.9001,4.9001,4.9001,4.9001,4.9001,4.9001,4.9001,4.9001,4.9001,4.9001,4.9001,4.9001,4.9001,4.9001,4.9001,4.9001,4.9001,4.9001,4.9001,4.9001,4.9001,4.9001,4.9001,4.9001,4.9001,4.9001,4.9001,4.9001,4.9001,4.9001,4.9001,4.9032,4.9092,4.9201,4.9216,4.9109,4.8861,4.8474,4.7921,4.7549,4.7175,4.6817,4.68,4.68,4.68,4.7458,4.7983,4.8303,4.9385,5.0259,5.091,5.1311,5.1469,0.0,0.0,0.0,0.0,0.0,0.0,0.0,4.9018,4.9117,4.9249,4.9777,5.0185,5.0027,5.0662,5.1157,5.1053,5.1701,5.2289,5.2446,5.3023,5.3251,5.2758,5.3133,5.3489,5.3654,5.3673,5.393,5.4583,5.4638,5.4924,5.5567,5.5474,5.5388,5.5388,5.5227,5.5151,5.5151,5.5151,5.5093,5.4958,5.3839,5.3227,5.3066,5.2008,5.1497,5.1407,5.126,5.1203,5.1201,5.1201,5.1201,5.1201,5.1201,5.0474,4.9441,4.9441,4.9441,4.9441,4.9441,4.9441,4.9441,4.9441,4.9441,4.9441,4.9441,4.9441,4.9441,4.9441,4.9441,4.9441,4.9441,4.9441,4.9441,4.9441,4.9441,4.9441,4.9441,4.9441,4.9441,4.9441,4.9441,4.939,4.9238,4.9221,4.9171,4.9018,4.9001,4.9001,4.9001,4.9001,4.9001,4.9001,4.9001,4.9001,4.9001,4.9001,4.8748,4.8157,4.8107,4.7853,4.7242,4.724,4.724,4.724,4.8282,4.8897,4.9038,5.0775,5.1759,5.204,5.2688,5.2734,4.7326,4.8068,4.8477,4.8475,4.8558,4.8798,0.0,4.961,4.987,5.0461,5.067,5.0715,5.0695,5.1357,5.1879,5.1858,5.2546,5.3324,5.4032,5.4216,5.4491,5.5126,5.4638,5.4546,5.5254,5.5328,5.5365,5.5456,5.5475,5.5511,5.5603,5.4983,5.4622,5.4622,5.3927,5.3567,5.3567,5.3567,5.3254,5.2683,5.3097,5.2993,5.2431,5.2863,5.2723,5.2141,5.1475,5.1197,5.1201,5.1201,5.1201,5.1201,5.1201,5.11,5.0947,5.0947,5.0947,5.0947,5.0947,5.0947,5.0947,5.0947,5.0947,5.0947,5.0947,5.0947,5.0947,5.0947,5.0947,5.0947,5.0947,5.0947,5.0947,5.0947,5.0947,5.0947,5.0947,5.0947,5.0947,5.0947,5.0947,5.0744,5.01,4.9981,4.9746,4.9103,4.9001,4.9001,4.9001,4.9001,4.9001,4.9001,4.9001,4.9001,4.9001,4.9001,4.8968,4.8868,4.8883,4.8849,4.8765,4.8748,4.8748,4.8748,4.8899,4.9264,4.9872,5.0108,5.0866,5.208,5.217,5.254,4.7201,4.8093,4.8687,4.8486,4.8854,4.9323,4.9548,5.0008,5.0461,5.0749,5.1169,5.1499,5.1499,5.216,5.2858,5.3316,5.3683,5.4179,5.4987,5.5108,5.539,5.6198,5.5996,5.5739,5.5603,5.5603,5.5787,5.6253,5.6308,5.6492,5.6969,5.6709,5.634,5.5907,5.5576,5.5165,5.4691,5.4708,5.4568,5.4267,5.3684,5.3276,5.2978,5.2347,5.2155,5.2307,5.2481,5.2537,5.2537,5.2537,5.2537,5.2537,5.2537,5.2537,5.2418,5.1522,5.1201,5.1201,5.1201,5.1201,5.1201,5.1201,5.1201,5.1201,5.1201,5.1201,5.1201,5.1201,5.1201,5.1201,5.1201,5.1201,5.1201,5.1201,5.1201,5.1201,5.1201,5.1201,5.1201,5.1201,5.1201,5.11,5.0794,5.0744,5.0642,5.0322,4.956,4.9001,4.9001,4.9001,4.9001,4.9001,4.9001,4.9001,4.9001,4.9001,4.9001,4.9001,4.9001,4.9001,4.9001,4.9001,4.9182,4.9563,5.0007,5.054,5.1223,5.1648,5.2172,5.2747,5.2747,5.2915,4.7786,4.8449,4.8873,4.8713,4.9308,4.9986,5.0206,5.072,5.1187,5.1426,5.1922,5.2399,5.2629,5.3151,5.3783,5.4601,5.473,5.5005,5.5812,5.5923,5.6235,5.7042,5.6955,5.6595,5.6022,5.6145,5.6424,5.6807,5.6832,5.6999,5.7358,5.7173,5.6825,5.629,5.6071,5.5674,5.5102,5.5087,5.5087,5.5087,5.4023,5.3487,5.3454,5.2339,5.2131,5.2655,5.3247,5.3501,5.3501,5.3501,5.3501,5.3501,5.3501,5.3501,5.3365,5.2249,5.1827,5.1827,5.1827,5.1827,5.1827,5.1827,5.1827,5.1827,5.1827,5.1827,5.1827,5.1827,5.1827,5.1827,5.1827,5.1827,5.1827,5.1827,5.1827,5.1827,5.1827,5.1827,5.1827,5.1827,5.1827,5.1759,5.1539,5.1505,5.1438,5.1235,5.0288,4.961,4.961,4.9441,4.9306,4.9306,4.912,4.9001,4.9001,4.9001,4.9001,4.9001,4.9001,4.9001,4.9001,4.9001,4.9228,4.9707,5.0258,5.0756,5.1254,5.1777,5.2237,5.2624,5.2842,5.3167,4.9917,4.9787,4.9673,4.9673,5.0211,5.0967,5.1748,5.195,5.2179,5.2976,5.3159,5.3398,5.4179,5.4344,5.4638,5.5438,5.5567,5.5842,5.6645,5.6756,5.7049,5.7868,5.734,5.6902,5.6853,5.7504,5.7629,5.694,5.6902,5.6567,5.5805,5.5102,5.468,5.4682,5.3979,5.3584,5.3585,5.3585,5.3585,5.3585,5.3517,5.35,5.35,5.345,5.345,5.3467,5.3501,5.3501,5.3501,5.3501,5.3501,5.3501,5.3501,5.3501,5.3501,5.345,5.3433,5.3433,5.3433,5.3433,5.3433,5.3433,5.3433,5.3433,5.3433,5.3433,5.3433,5.3433,5.3433,5.3433,5.3433,5.3433,5.3433,5.3433,5.3433,5.3433,5.3433,5.3433,5.3433,5.3433,5.3433,5.3179,5.2401,5.2266,5.2029,5.1302,5.1167,5.1133,5.1133,5.0507,5.0066,5.0066,4.9424,4.9001,4.9001,4.9001,4.9001,4.9001,4.9001,4.9001,4.9001,4.9001,4.9001,4.9032,4.9063,4.9061,4.9092,4.9123,4.9824,5.1181,5.1957,5.3048,4.9833,4.9739,4.9819,5.0321,5.1016,5.1675,5.195,5.2417,5.2865,5.3141,5.371,5.4204,5.448,5.4969,5.5584,5.6393,5.6444,5.6675,5.7483,5.7593,5.7516,5.7303,5.704,5.6682,5.6159,5.6336,5.6376,5.6132,5.6104,5.5994,5.5706,5.5448,5.5116,5.462,5.4358,5.3994,5.3501,5.3501,5.3501,5.3501,5.3501,5.3501,5.3501,5.3501,5.3501,5.3501,5.3501,5.3501,5.3501,5.3501,5.3501,5.3501,5.3501,5.3501,5.3501,5.3501,5.3501,5.3501,5.3501,5.3501,5.3501,5.3501,5.3501,5.3501,5.3501,5.3501,5.3501,5.3501,5.3501,5.3501,5.3501,5.3501,5.3501,5.3501,5.3501,5.3501,5.3501,5.3501,5.3501,5.3501,5.3501,5.3416,5.3145,5.3095,5.301,5.2773,5.186,5.1201,5.1201,5.0981,5.0828,5.0828,5.0609,5.0457,5.0457,5.0457,5.0457,5.0457,5.0457,5.0457,5.0457,5.0457,5.0691,5.1193,5.1193,5.1413,5.1855,5.1855,5.2092,5.2572,5.2837,5.3216,5.0503,5.0537,5.0635,5.1116,5.183,5.2435,5.2435,5.3059,5.3618,5.3618,5.4385,5.5115,5.5409,5.5888,5.6496,5.7295,5.7323,5.7409,5.7923,5.7997,5.7726,5.6989,5.6642,5.627,5.5751,5.5459,5.5309,5.5309,5.5306,5.5188,5.4924,5.4909,5.4697,5.4234,5.4218,5.3978,5.3501,5.3501,5.3501,5.3501,5.3501,5.3501,5.3501,5.3501,5.3501,5.3501,5.3501,5.3501,5.3501,5.3501,5.3501,5.3501,5.3501,5.3501,5.3501,5.3501,5.3501,5.3501,5.3501,5.3501,5.3501,5.3501,5.3501,5.3501,5.3501,5.3501,5.3501,5.3501,5.3501,5.3501,5.3501,5.3501,5.3501,5.3501,5.3501,5.3501,5.3501,5.3501,5.3501,5.3501,5.3501,5.3501,5.3501,5.3501,5.3501,5.3501,5.2672,5.2013,5.2013,5.1759,5.159,5.159,5.1353,5.1201,5.1201,5.1201,5.1201,5.1201,5.1201,5.1201,5.1201,5.1201,5.1423,5.1903,5.1919,5.2112,5.255,5.255,5.2695,5.2951,5.3246,5.3493,5.1892,5.205,5.2005,5.206,5.2637,5.3214,5.3251,5.3838,5.4418,5.4454,5.5194,5.609,5.6853,5.7026,5.7302,5.8068,5.8095,5.7985,5.795,5.7987,5.7722,5.6941,5.6211,5.5739,5.5701,5.5075,5.4651,5.4655,5.4648,5.4335,5.3585,5.3568,5.3551,5.3501,5.3501,5.3501,5.3501,5.3501,5.3501,5.3501,5.3501,5.3501,5.3501,5.3501,5.3501,5.3501,5.3501,5.3501,5.3501,5.3501,5.3501,5.3501,5.3501,5.3501,5.3501,5.3501,5.3501,5.3501,5.3501,5.3501,5.3501,5.3501,5.3501,5.3501,5.3501,5.3501,5.3501,5.3501,5.3501,5.3501,5.3501,5.3501,5.3501,5.3501,5.3501,5.3501,5.3501,5.3501,5.3501,5.3501,5.3501,5.3501,5.3501,5.3501,5.3501,5.3501,5.3501,5.3501,5.3501,5.2841,5.2367,5.2367,5.1742,5.1319,5.1319,5.1319,5.1319,5.1319,5.1319,5.1319,5.1319,5.1319,5.1319,5.1319,5.1319,5.1319,5.1319,5.1319,5.1684,5.2386,5.3143,5.3843,5.1975,5.2008,5.2152,5.2747,5.3049,5.3361,5.3959,5.4252,5.4564,5.5181,5.5956,5.6632,5.6941,5.7401,5.7838,5.8149,5.8095,5.7815,5.7259,5.7648,5.7505,5.6154,5.6313,5.6292,5.5758,5.5534,5.5414,5.5417,5.5417,5.5111,5.4363,5.4313,5.4059,5.3518,5.3501,5.3501,5.3501,5.3501,5.3501,5.3501,5.3501,5.3501,5.3501,5.3501,5.3501,5.3501,5.3501,5.3501,5.3501,5.3501,5.3501,5.3501,5.3501,5.3501,5.3501,5.3501,5.3501,5.3501,5.3501,5.3501,5.3501,5.3501,5.3501,5.3501,5.3501,5.3501,5.3501,5.3501,5.3501,5.3501,5.3501,5.3501,5.3501,5.3501,5.3501,5.3501,5.3501,5.3501,5.3501,5.3501,5.3501,5.3501,5.3501,5.3501,5.3501,5.3501,5.3501,5.3501,5.3501,5.3331,5.3196,5.3196,5.3044,5.2909,5.2909,5.2909,5.2909,5.2909,5.2909,5.2909,5.2909,5.2909,5.2909,5.2909,5.2909,5.2909,5.2909,5.2909,5.3008,5.3205,5.3409,5.3591,5.2438,5.2527,5.2637,5.3086,5.3471,5.3849,5.4308,5.4993,5.5625,5.5891,5.7053,5.7894,5.7425,5.8035,5.8405,5.7774,5.7856,5.7724,5.6949,5.7525,5.7554,5.6329,5.655,5.6638,5.621,5.6172,5.6308,5.6647,5.6071,5.5513,5.5108,5.5091,5.4888,5.4481,5.4465,5.4465,5.4465,5.4465,5.4465,5.4465,5.4465,5.4465,5.4465,5.4465,5.4465,5.4465,5.4465,5.4465,5.4465,5.4465,5.4465,5.4465,5.4465,5.4465,5.4465,5.4465,5.4465,5.4465,5.4465,5.4465,5.4346,5.3721,5.3501,5.3501,5.3501,5.3501,5.3501,5.3501,5.3501,5.3501,5.3501,5.3501,5.3501,5.3501,5.3501,5.3501,5.3501,5.3501,5.3501,5.3501,5.3501,5.3501,5.3501,5.3501,5.3501,5.3501,5.3501,5.3501,5.3501,5.3501,5.3501,5.3501,5.3501,5.3501,5.3501,5.3501,5.3501,5.3501,5.3501,5.3501,5.3501,5.3501,5.3501,5.3501,5.3501,5.3501,5.3501,5.3501,5.3501,5.3501,5.3501,5.3501,5.3012,5.3196,5.3232,5.3324,5.3875,5.4444,5.4613,5.5908,5.7005,5.6719,5.8215,5.9209,5.8001,5.8529,5.8683,5.7228,5.747,5.7607,5.6896,5.7487,5.7693,5.6885,5.689,5.6951,5.6938,5.6951,5.7205,5.7849,5.6714,5.5953,5.5851,5.5851,5.58,5.5699,5.5699,5.5699,5.5699,5.5699,5.5699,5.5699,5.5699,5.5699,5.5699,5.5699,5.5699,5.5699,5.5699,5.5699,5.5699,5.5699,5.5699,5.5699,5.5699,5.5699,5.5699,5.5699,5.5699,5.5699,5.5699,5.5699,5.5496,5.4194,5.3788,5.3788,5.3788,5.3788,5.3788,5.3788,5.3788,5.3788,5.3788,5.3788,5.3788,5.3788,5.3788,5.3788,5.3788,5.3788,5.3788,5.3788,5.3788,5.3788,5.3788,5.3788,5.3788,5.3788,5.3788,5.3788,5.3788,5.3619,5.3501,5.3501,5.3501,5.3501,5.3501,5.3501,5.3501,5.3501,5.3501,5.3501,5.3501,5.3501,5.3501,5.3501,5.3501,5.3501,5.3501,5.3501,5.3501,5.3501,5.3501,5.3501,5.3159,5.3196,5.3361,5.4032,5.4308,5.4693,5.5797,5.6803,5.7601,5.7985,5.8784,5.9066,5.7859,5.7747,5.7639,5.7018,5.7008,5.7023,5.6833,5.7439,5.7647,5.6898,5.7336,5.7707,5.7697,5.7695,5.7764,5.79,5.7645,5.7256,5.6647,5.6613,5.6342,5.5716,5.5699,5.5699,5.5699,5.5699,5.5699,5.5699,5.5699,5.5699,5.5699,5.5699,5.5699,5.5699,5.5699,5.5699,5.5699,5.5699,5.5699,5.5699,5.5699,5.5699,5.5699,5.5699,5.5699,5.5699,5.5699,5.5699,5.5665,5.5395,5.531,5.531,5.531,5.531,5.531,5.531,5.531,5.531,5.531,5.531,5.531,5.531,5.531,5.531,5.531,5.531,5.531,5.531,5.531,5.531,5.531,5.531,5.531,5.531,5.531,5.531,5.531,5.4245,5.3501,5.3501,5.3501,5.3501,5.3501,5.3501,5.3501,5.3501,5.3501,5.3501,5.3501,5.3501,5.3501,5.3501,5.3501,5.3501,5.3501,5.3501,5.3501,5.3501,5.3501,5.3501,5.264,5.2661,5.2768,5.3159,5.3862,5.4786,5.6006,5.6972,5.7778,5.8412,5.9285,5.9555,5.8393,5.859,5.862,5.7594,5.7603,5.7592,5.7169,5.7569,5.777,5.7411,5.7697,5.79,5.79,5.79,5.79,5.79,5.79,5.7764,5.7391,5.7357,5.7205,5.6867,5.685,5.685,5.685,5.685,5.685,5.685,5.685,5.685,5.685,5.685,5.685,5.685,5.685,5.685,5.685,5.685,5.685,5.685,5.685,5.685,5.685,5.685,5.685,5.685,5.685,5.685,5.685,5.685,5.6342,5.5699,5.5699,5.5699,5.5699,5.5699,5.5699,5.5699,5.5699,5.5699,5.5699,5.5699,5.5699,5.5699,5.5699,5.5699,5.5699,5.5699,5.5699,5.5699,5.5699,5.5699,5.5699,5.5699,5.5699,5.5699,5.5699,5.5073,5.4634,5.4634,5.4634,5.4634,5.4634,5.4634,5.4634,5.4634,5.4634,5.4634,5.4634,5.4634,5.4634,5.4634,5.4634,5.4634,5.4634,5.4634,5.4634,5.4634,5.4634,5.4634,5.2144,5.2169,5.2276,5.2612,5.3602,5.4839,5.6087,5.7073,5.7945,5.8706,5.9713,6.0081,5.8921,5.9379,5.9502,5.8112,5.8172,5.8207,5.7706,5.7867,5.8007,5.79,5.79,5.79,5.79,5.79,5.79,5.79,5.79,5.79,5.79,5.79,5.79,5.79,5.79,5.79,5.79,5.79,5.79,5.79,5.79,5.79,5.79,5.79,5.79,5.79,5.79,5.79,5.79,5.79,5.79,5.79,5.79,5.79,5.79,5.79,5.79,5.79,5.79,5.79,5.79,5.79,5.712,5.6172,5.6172,5.6172,5.6172,5.6172,5.6172,5.6172,5.6172,5.6172,5.6172,5.6172,5.6172,5.6172,5.6172,5.6172,5.6172,5.6172,5.6172,5.6172,5.6172,5.6172,5.6172,5.6172,5.6172,5.6172,5.6172,5.6172,5.6172,5.6172,5.5885,5.5699,5.5699,5.5699,5.5699,5.5699,5.5699,5.5699,5.5699,5.5699,5.5699,5.5699,5.5699,5.5699,5.5699,5.5699,5.5699,5.5699,5.5699,5.5699,5.2306,5.2188,5.2541,5.3938,5.4397,5.4924,5.6552,5.757,5.8382,5.9167,5.9997,6.0191,5.8917,5.8784,5.8625,5.7986,5.7922,5.8065,5.8355,5.8438,5.8295,5.7936,5.79,5.79,5.79,5.79,5.79,5.79,5.79,5.79,5.79,5.79,5.79,5.79,5.79,5.79,5.79,5.79,5.79,5.79,5.79,5.79,5.79,5.79,5.79,5.79,5.79,5.79,5.79,5.79,5.79,5.79,5.79,5.79,5.79,5.79,5.79,5.79,5.79,5.79,5.79,5.79,5.7815,5.7714,5.7714,5.7714,5.7714,5.7714,5.7714,5.7714,5.7714,5.7714,5.7714,5.7714,5.7714,5.7714,5.7714,5.7714,5.7714,5.7714,5.7714,5.7714,5.7714,5.7714,5.7714,5.7714,5.7714,5.7714,5.7714,5.7714,5.7714,5.7714,5.6511,5.5699,5.5699,5.5699,5.5699,5.5699,5.5699,5.5699,5.5699,5.5699,5.5699,5.5699,5.5699,5.5699,5.5699,5.5699,5.5699,5.5699,5.5699,5.5699,5.184,5.1925,5.2398,5.3017,5.3534,5.4419,5.6417,5.7137,5.7823,5.9478,6.0084,6.0144,5.9638,5.9553,5.9631,5.9908,5.9745,5.9562,5.9529,5.9299,5.886,5.8004,5.79,5.79,5.79,5.79,5.79,5.79,5.79,5.79,5.79,5.79,5.79,5.79,5.79,5.79,5.79,5.79,5.79,5.79,5.79,5.79,5.79,5.79,5.79,5.79,5.79,5.79,5.79,5.79,5.79,5.79,5.79,5.79,5.79,5.79,5.79,5.79,5.79,5.79,5.79,5.79,5.79,5.79,5.79,5.79,5.79,5.79,5.79,5.79,5.79,5.79,5.79,5.79,5.79,5.79,5.79,5.79,5.79,5.79,5.79,5.79,5.79,5.79,5.79,5.79,5.79,5.79,5.79,5.79,5.79,5.79,5.7357,5.7019,5.7019,5.7019,5.7019,5.7019,5.7019,5.7019,5.7019,5.7019,5.7019,5.7019,5.7019,5.7019,5.7019,5.7019,5.7019,5.7019,5.7019,5.7019,5.1834,5.1886,5.2367,5.2604,5.3331,5.4464,5.6362,5.7041,5.7806,5.9696,6.0089,6.0089,6.0089,6.0282,6.0633,6.1213,6.0952,6.0702,6.0705,6.0183,5.9553,5.8977,5.8612,5.8402,5.8402,5.8108,5.79,5.79,5.79,5.79,5.79,5.79,5.79,5.79,5.79,5.79,5.79,5.79,5.79,5.79,5.79,5.79,5.79,5.79,5.79,5.79,5.79,5.79,5.79,5.79,5.79,5.79,5.79,5.79,5.79,5.79,5.79,5.79,5.79,5.79,5.79,5.79,5.79,5.79,5.79,5.79,5.79,5.79,5.79,5.79,5.79,5.79,5.79,5.79,5.79,5.79,5.79,5.79,5.79,5.79,5.79,5.79,5.79,5.79,5.79,5.79,5.79,5.79,5.79,5.79,5.79,5.79,5.79,5.79,5.79,5.79,5.79,5.79,5.79,5.79,5.79,5.79,5.79,5.79,5.79,5.79,5.79,5.79,5.79,5.79,5.79,5.79,5.2527,5.2283,5.2486,5.3298,5.4278,5.5378,5.6548,5.7618,5.8708,5.9867,6.0089,6.0089,6.0089,6.0756,6.13,6.13,6.0952,6.0978,6.1778,6.0913,6.0462,6.1186,6.0263,5.9584,5.9584,5.8559,5.79,5.79,5.79,5.79,5.79,5.79,5.79,5.79,5.79,5.79,5.79,5.79,5.79,5.79,5.79,5.79,5.79,5.79,5.79,5.79,5.79,5.79,5.79,5.79,5.79,5.79,5.79,5.79,5.79,5.79,5.79,5.79,5.79,5.79,5.79,5.79,5.79,5.79,5.79,5.79,5.79,5.79,5.79,5.79,5.79,5.79,5.79,5.79,5.79,5.79,5.79,5.79,5.79,5.79,5.79,5.79,5.79,5.79,5.79,5.79,5.79,5.79,5.79,5.79,5.79,5.79,5.79,5.79,5.79,5.79,5.79,5.79,5.79,5.79,5.79,5.79,5.79,5.79,5.79,5.79,5.79,5.79,5.79,5.79,5.79,5.79,5.4778,5.4995,5.5442,5.57,5.6005,5.6548,5.7635,5.8163,5.8708,5.9867,6.0546,6.0914,6.0914,6.1529,6.1989,6.1756,6.1603,6.1501,6.1484,6.0493,5.9884,6.0106,5.9132,5.8437,5.8437,5.8108,5.79,5.79,5.79,5.79,5.79,5.79,5.79,5.79,5.79,5.79,5.79,5.79,5.79,5.79,5.79,5.79,5.79,5.79,5.79,5.79,5.79,5.79,5.79,5.79,5.79,5.79,5.79,5.79,5.79,5.79,5.79,5.79,5.79,5.79,5.79,5.79,5.79,5.79,5.79,5.79,5.79,5.79,5.79,5.79,5.79,5.79,5.79,5.79,5.79,5.79,5.79,5.79,5.79,5.79,5.79,5.79,5.79,5.79,5.79,5.79,5.79,5.79,5.79,5.79,5.79,5.79,5.79,5.79,5.79,5.79,5.79,5.79,5.79,5.79,5.79,5.79,5.79,5.79,5.79,5.79,5.79,5.79,5.79,5.79,5.79,5.79,5.6309,5.644,5.6803,5.6803,5.7333,5.8035,5.8699,5.9404,6.011,6.0829,6.1369,6.1722,6.1722,6.2353,6.2778,6.2576,6.2057,6.1745,6.1917,6.0576,5.9601,5.9601,5.8976,5.8368,5.7934,5.79,5.79,5.79,5.79,5.79,5.79,5.79,5.79,5.79,5.79,5.79,5.79,5.79,5.79,5.79,5.79,5.79,5.79,5.79,5.79,5.79,5.79,5.79,0.0,5.79,5.79,5.79,5.79,5.79,5.79,5.79,5.79,5.79,5.79,5.79,5.79,5.79,5.79,5.79,5.79,5.79,5.79,5.79,5.79,5.79,5.79,5.79,5.79,5.79,5.79,5.79,5.79,5.79,5.79,5.79,5.79,5.79,5.79,5.79,5.79,5.79,5.79,5.79,5.79,5.79,5.79,5.79,5.79,5.79,5.79,5.79,5.79,5.79,5.79,5.79,5.79,5.79,5.79,5.79,5.79,5.79,5.79,5.79,5.79,5.79,5.79,5.79,0.0,5.7025,5.7024,5.7024,5.8396,5.9722,5.9722,6.1104,0.0,6.2405,6.2458,6.2493,6.2493,6.3143,6.3653,6.3566,6.2283,6.1673,6.2718,6.0994,5.9566,5.9497,5.948,5.9063,5.8004,5.79,5.79,5.79,5.79,5.79,5.79,5.79,5.79,5.79,5.79,5.79,5.79,5.79,5.79,5.79,5.79,5.79,5.79,5.79,5.79,5.79,5.79,5.79,5.79,5.79,5.79,5.79,5.79,5.79,5.79,5.79,5.79,5.79,5.79,5.79,5.79,5.79,5.79,5.79,5.79,5.79,5.79,5.79,5.79,5.79,5.79,5.79,5.79,5.79,5.79,5.79,5.79,5.79,5.79,5.79,5.79,5.79,5.79,5.79,5.79,5.79,5.79,5.79,5.79,5.79,5.79,5.79,5.79,5.79,5.79,5.79,5.79,5.79,5.79,5.79,5.79,5.79,5.79,5.79,5.79,5.79,5.79,5.79,5.79,5.79,5.79,5.79,5.9017,0.0,5.9321,5.9321,6.0121,6.0905,0.0,6.1672,6.2405,6.2405,6.2897,6.3336,6.3336,6.3934,6.4164,6.3275,6.2126,6.1394,6.1656,6.0489,5.9288,5.8402,5.8298,5.8177,5.7917,5.79,5.79,5.79,5.79,5.79,5.79,5.79,5.79,5.79,5.79,5.79,5.79,5.79,5.79,5.79,5.79,5.79,5.79,5.79,5.79,5.79,5.79,5.79,5.79,5.79,5.79,5.79,5.79,5.79,5.79,5.79,5.79,5.79,5.79,5.79,5.79,5.79,5.79,5.79,5.79,5.79,5.79,5.79,5.79,5.79,5.79,5.79,5.79,5.79,5.79,5.79,5.79,5.79,5.79,5.79,5.79,5.79,5.79,5.79,5.79,5.79,5.79,5.79,5.79,5.79,5.79,5.79,5.79,5.79,5.79,5.79,5.79,5.79,5.79,5.79,5.79,5.79,5.79,5.79,5.79,5.79,5.79,5.79,5.79,5.79,5.79,5.79,5.957,5.9783,6.0047,6.0415,6.1164,6.1881,6.215,6.2798,6.3323,6.3323,6.3656,6.3989,6.4092,6.399,6.3869,6.3677,6.1881,6.035,5.9811,5.9581,5.9077,5.8021,5.79,5.79,5.79,5.79,5.79,5.79,5.79,5.79,5.79,5.79,5.79,5.79,5.79,5.79,5.79,5.79,5.79,5.79,5.79,5.79,5.79,5.79,5.79,5.79,5.79,5.79,5.79,5.79,5.79,5.79,5.79,5.79,5.79,5.79,5.79,5.79,5.79,5.79,5.79,5.79,5.79,5.79,5.79,5.79,5.79,5.79,5.79,5.79,5.79,5.79,5.79,5.79,5.79,5.79,5.79,5.79,5.79,5.79,5.79,5.79,5.79,5.79,5.79,5.79,5.79,5.79,5.79,5.79,5.79,5.79,5.79,5.79,5.79,5.79,5.79,5.79,5.79,5.79,5.79,5.79,5.79,5.79,5.79,5.79,5.79,5.79,5.79,5.79,5.79,5.79,5.947,5.9602,5.989,6.0743,6.1645,6.2482,6.3117,6.3834,6.4393,6.4393,6.4393,6.4411,6.4427,6.3747,6.3363,6.3851,6.1497,5.9202,5.8056,5.8588,5.8777,5.8003,5.79,5.79,5.79,5.79,5.79,5.79,5.79,5.79,5.79,5.79,5.79,5.79,5.79,5.79,5.79,5.79,5.79,5.79,5.79,5.79,5.79,5.79,5.79,5.79,5.79,5.79,5.79,5.79,5.79,5.79,5.79,5.79,5.79,5.79,5.79,5.79,5.79,5.79,5.79,5.79,5.79,5.79,5.79,5.79,5.79,5.79,5.79,5.79,5.79,5.79,5.79,5.79,5.79,5.79,5.79,5.79,5.79,5.79,5.79,5.79,5.79,5.79,5.79,5.79,5.79,5.79,5.79,5.79,5.79,5.79,5.79,5.79,5.79,5.79,5.79,5.79,5.79,5.79,5.79,5.79,5.79,5.79,5.79,5.79,5.79,5.79,5.79,5.79,5.79,5.79,5.9081,5.9115,5.9373,6.0475,6.1377,6.216,6.2892,6.3764,6.4393,6.4393,6.4393,6.4166,6.3398,6.3659,6.3535,6.202,6.0558,5.9202,5.8056,5.8019,5.8072,5.7917,5.79,5.79,5.79,5.79,5.79,5.79,5.79,5.79,5.79,5.79,5.79,5.79,5.79,5.79,5.79,5.79,5.79,5.79,5.79,5.79,5.79,5.79,5.79,5.79,5.79,5.79,5.79,5.79,5.79,5.79,5.79,5.79,5.79,5.79,5.79,5.79,5.79,5.79,5.79,5.79,5.79,5.79,5.79,5.79,5.79,5.79,5.79,5.79,5.79,5.79,5.79,5.79,5.79,5.79,5.79,5.79,5.79,5.79,5.79,5.79,5.79,5.79,5.79,5.79,5.79,5.79,5.79,5.79,5.79,5.79,5.79,5.79,5.79,5.79,5.79,5.79,5.79,5.79,5.79,5.79,5.79,5.79,5.79,5.79,5.79,5.79,5.79,5.79,5.79,5.79,5.8995,5.9323,5.9754,6.0151,6.0618,6.1155,6.1776,6.2262,6.2714,6.3272,6.3377,6.3255,6.2909,6.2645,6.1805,5.9792,5.9909,5.9697,5.8124,5.8346,5.8466,5.7969,5.79,5.79,5.79,5.79,5.79,5.79,5.79,5.79,5.79,5.79,5.79,5.79,5.79,5.79,5.79,5.79,5.79,5.79,5.79,5.79,5.79,5.79,5.79,5.79,5.79,5.79,5.79,5.79,5.79,5.79,5.79,5.79,5.79,5.79,5.79,5.79,5.79,5.79,5.79,5.79,5.79,5.79,5.79,5.79,5.79,5.79,5.79,5.79,5.79,5.79,5.79,5.79,5.79,5.79,5.79,5.79,5.79,5.79,5.79,5.79,5.79,5.79,5.79,5.79,5.79,5.79,5.79,5.79,5.79,5.79,5.79,5.79,5.79,5.79,5.79,5.79,5.79,5.79,5.79,5.79,5.79,5.79,5.79,5.79,5.79,5.79,5.79,5.79,5.79,5.79,5.8995,5.953,5.9993,5.9663,5.9993,6.0477,6.0882,6.0984,6.1228,6.1992,6.2149,6.2186,6.2277,6.137,6.0149,5.8795,5.945,5.9605,5.8105,5.8519,5.8708,5.8003,5.79,5.79,5.79,5.79,5.79,5.79,5.79,5.79,5.79,5.79,5.79,5.79,5.79,5.79,5.79,5.79,5.79,5.79,5.79,5.79,5.79,5.79,5.79,5.79,5.79,5.79,5.79,5.79,5.79,5.79,5.79,5.79,5.79,5.79,5.79,5.79,5.79,5.79,5.79,5.79,5.79,5.79,5.79,5.79,5.79,5.79,5.79,5.79,5.79,5.79,5.79,5.79,5.79,5.79,5.79,5.79,5.79,5.79,5.79,5.79,5.79,5.79,5.79,5.79,5.79,5.79,5.79,5.79,5.79,5.79,5.79,5.79,5.79,5.79,5.79,5.79,5.79,5.79,5.79,5.79,5.79,5.79,5.79,5.79,5.79,5.79,5.79,5.79,5.79,5.79,5.8995,5.9303,5.9482,5.8782,5.978,6.0915,6.0838,6.0911,6.102,6.1089,6.1124,6.1107,6.1125,6.02,5.9675,6.047,5.9191,5.8072,5.7917,5.7969,5.7986,5.7917,5.79,5.79,5.79,5.79,5.79,5.79,5.79,5.79,5.79,5.79,5.79,5.79,5.79,5.79,5.79,5.79,5.79,5.79,5.79,5.79,5.79,5.79,5.79,5.79,5.79,5.79,5.79,5.79,5.79,5.79,5.79,5.79,5.79,5.79,5.79,5.79,5.79,5.79,5.79,5.79,5.79,5.79,5.79,5.79,5.79,5.79,5.79,5.79,5.79,5.79,5.79,5.79,5.79,5.79,5.79,5.79,5.79,5.79,5.79,5.79,5.79,5.79,5.79,5.79,5.79,5.79,5.79,5.79,5.79,5.79,5.79,5.79,5.79,5.79,5.79,5.79,5.79,5.79,5.79,5.79,5.79,5.79,5.79,5.79,5.79,5.79,5.79,5.79,5.79,5.79,5.9616,5.9769,5.9675,5.9277,5.9565,5.9783,5.914,5.9056,5.9231,5.9818,5.9939,6.0129,6.0752,5.9539,5.8743,5.9709,5.876,5.79,5.79,5.79,5.79,5.79,5.79,5.79,5.79,5.79,5.79,5.79,5.79,5.79,5.79,5.79,5.79,5.79,5.79,5.79,5.79,5.79,5.79,5.79,5.79,5.79,5.79,5.79,5.79,5.79,5.79,5.79,5.79,5.79,5.79,5.79,5.79,5.79,5.79,5.79,5.79,5.79,5.79,5.79,5.79,5.79,5.79,5.79,5.79,5.79,5.8001,5.8457,5.8592,5.849,5.8017,5.79,5.79,5.79,5.79,5.8035,5.849,5.8592,5.8727,5.9184,5.9268,5.9268,5.9268,5.9268,5.9268,5.9268,5.9268,5.9268,5.9268,5.9268,5.9268,5.9268,5.9268,5.9268,5.9268,5.9268,5.9268,5.9268,5.8424,5.79,5.79,5.79,5.79,5.79,5.79,5.79,5.79,5.79,5.79,5.79,5.79,5.79,5.9598,5.9904,5.9912,5.9325,5.9366,5.9268,5.8138,5.79,5.8088,5.8743,5.9105,5.9519,6.0211,5.9243,5.8535,5.9191,5.8502,5.79,5.79,5.79,5.79,5.79,5.79,5.79,5.79,5.79,5.79,5.79,5.79,5.79,5.79,5.79,5.79,5.79,5.79,5.79,5.79,5.79,5.8018,5.8254,5.8254,5.8137,5.79,5.79,5.79,5.79,5.79,5.79,5.79,5.79,5.79,5.79,5.79,5.79,5.79,5.79,5.8052,5.8254,5.8254,5.8389,5.8575,5.8575,5.8575,5.8575,5.8575,5.8575,5.8693,5.9218,5.9334,5.9216,5.8727,5.8575,5.8575,5.8575,5.8575,5.8727,5.9252,5.9334,5.9505,5.9996,6.0097,6.0097,6.0097,6.0097,6.0097,6.0097,6.0097,6.0097,6.0097,6.0097,6.0097,6.0097,6.0097,6.0097,6.0097,6.0097,6.0097,6.0097,5.915,5.8473,5.8254,5.8254,5.8135,5.79,5.79,5.79,5.79,5.79,5.79,5.79,5.79,5.79,5.8822,5.9583,6.0041,5.8579,5.9163,5.9691,5.822,5.79,5.79,5.79,5.864,5.9294,5.9294,5.9294,5.9294,5.9294,5.85,5.7881,5.79,5.7881,5.7881,5.79,5.79,5.79,5.79,5.79,5.79,5.79,5.79,5.79,5.79,5.79,5.79,5.79,5.7917,5.7917,5.7917,5.7917,5.8287,5.9013,5.9013,5.8626,5.7917,5.7917,5.7917,5.7917,5.7917,5.7917,5.7917,5.7917,5.7917,5.7917,5.7917,5.7917,5.7917,5.7917,5.8389,5.9013,5.9013,5.9487,6.0097,6.0097,6.0097,6.0097,6.0097,6.0097,6.0097,6.0114,6.0114,6.0114,6.0114,6.0114,6.0114,6.0097,6.0097,6.0097,6.0114,6.0114,6.0114,6.0114,6.0114,6.0114,6.0114,6.0114,6.0114,6.0114,6.0114,6.0114,6.0114,6.0114,6.0114,6.0114,6.0114,6.0114,6.0114,6.0114,6.0114,6.0114,6.0114,5.9793,5.903,5.9013,5.8676,5.795,5.7917,5.7917,5.7917,5.7917,5.7917,5.7917,5.7917,5.7917,6.0075,5.9617,5.8987,5.9599,5.9146,5.8423,5.8001,5.79,5.79,5.79,5.8122,5.8519,5.9191,5.876,5.8535,5.9191,5.7825,5.6982,5.779,5.7206,5.7001,5.7792,5.79,5.79,5.79,5.79,5.79,5.79,5.79,5.79,5.79,5.79,5.79,5.79,5.8406,5.8676,5.8676,5.9184,5.9556,5.9776,5.9776,5.9658,5.9438,5.9438,5.9438,5.9438,5.9438,5.9438,5.9438,5.9438,5.9438,5.9438,5.9438,5.9438,5.9438,5.9438,5.959,5.9776,5.9776,5.9928,6.0097,6.0097,6.0097,6.0097,6.0097,6.0097,6.0216,6.0791,6.0943,6.1061,6.1569,6.1724,6.1434,6.0368,6.0097,6.0266,6.0825,6.0943,6.1095,6.162,6.1724,6.1724,6.1724,6.1724,6.1724,6.1724,6.1724,6.1724,6.1724,6.1724,6.1724,6.1724,6.1724,6.1724,6.1724,6.1724,6.1724,6.1724,6.1724,6.1129,5.9827,5.9776,5.9674,5.9455,5.9438,5.9438,5.9438,5.9438,5.9438,5.9438,5.9438,5.9438,5.9672,5.9215,5.8674,5.9268,5.887,5.8254,5.7967,5.79,5.79,5.79,5.79,5.8072,5.864,5.7914,5.756,5.8584,5.7306,5.6605,5.7737,5.6925,5.6454,5.7149,5.7224,5.7224,5.7224,5.7628,5.79,5.79,5.79,5.79,5.79,5.8169,5.8338,5.8338,5.9066,5.9436,5.9436,5.9877,6.0266,6.0588,6.0588,6.0723,6.0977,6.0385,6.0097,6.0097,6.0097,6.0097,6.0097,6.0097,6.0097,6.0097,6.0097,6.0097,6.0097,6.0097,6.03,6.0588,6.0588,6.0774,6.1011,6.1011,6.1011,6.1011,6.1011,6.1011,6.1112,6.1603,6.1738,6.1839,6.2279,6.24,6.218,6.1231,6.1011,6.1146,6.1637,6.1738,6.1873,6.2316,6.24,6.24,6.24,6.24,6.24,6.24,6.24,6.24,6.24,6.24,6.24,6.24,6.24,6.24,6.24,6.24,6.24,6.24,6.24,6.1994,6.1044,6.0723,6.0436,6.0114,6.0097,6.0097,6.0097,6.0097,6.0097,6.0097,6.0097,6.0097,5.8327,5.8586,5.8761,5.8152,5.8457,5.8727,5.8051,5.79,5.79,5.79,5.79,5.7863,5.7755,5.6889,5.6531,5.7572,5.6701,5.6321,5.7572,5.6682,5.5932,5.6031,5.6145,5.6204,5.6204,5.7224,5.79,5.79,5.79,5.7934,5.8001,5.8643,5.903,5.9098,5.9827,6.0216,6.0216,6.0283,6.0672,6.14,6.14,6.1755,6.235,6.0943,6.0317,6.0317,6.0317,6.0317,6.0317,6.0317,6.0317,6.0317,6.0317,6.0317,6.0317,6.0317,6.0774,6.14,6.14,6.1839,6.24,6.24,6.24,6.24,6.24,6.24,6.24,6.24,6.24,6.24,6.24,6.24,6.24,6.24,6.24,6.24,6.24,6.24,6.24,6.24,6.24,6.24,6.24,6.24,6.24,6.24,6.24,6.24,6.24,6.24,6.24,6.24,6.24,6.24,6.24,6.24,6.24,6.24,6.24,6.24,6.24,6.1755,6.1061,6.0317,6.0317,6.0317,6.0317,6.0317,6.0317,6.0317,6.0317,6.0317,5.8919,5.8603,5.8237,5.866,5.8457,5.8103,5.795,5.79,5.79,5.79,5.79,5.7628,5.672,5.6376,5.6282,5.6531,5.4909,5.4305,5.6298,5.4867,5.394,5.4842,5.5694,5.6204,5.6204,5.7224,5.79,5.79,5.79,5.8152,5.8726,5.8912,5.9285,5.986,6.0639,6.1044,6.1044,6.162,6.1975,6.2144,6.2144,6.2245,6.24,6.2059,6.1927,6.1927,6.1927,6.1927,6.1927,6.1927,6.1927,6.1927,6.1927,6.1927,6.1927,6.1927,6.2009,6.2144,6.2144,6.2262,6.24,6.24,6.24,6.24,6.24,6.24,6.24,6.24,6.24,6.24,6.24,6.24,6.24,6.24,6.24,6.24,6.24,6.24,6.24,6.24,6.24,6.24,6.24,6.24,6.24,6.24,6.24,6.24,6.24,6.24,6.24,6.24,6.24,6.24,6.24,6.24,6.24,6.24,6.24,6.24,6.24,6.2245,6.2076,6.1927,6.1927,6.1927,6.1927,6.1927,6.1927,6.1927,6.1927,6.1927,5.8639,5.853,5.844,5.8473,5.8169,5.79,5.79,5.7482,5.7093,5.7093,5.7093,5.7057,5.702,5.5714,5.497,5.6031,5.4348,5.3483,5.5195,5.3961,5.3121,5.372,5.476,5.5215,5.4665,5.6605,5.7665,5.7131,5.7591,5.822,5.8962,5.9317,5.9894,6.0655,6.1417,6.1823,6.1823,6.2195,6.24,6.24,6.24,6.24,6.24,6.24,6.24,6.24,6.24,6.24,6.24,6.24,6.24,6.24,6.24,6.24,6.24,6.24,6.24,6.24,6.24,6.24,6.24,6.24,6.24,6.24,6.24,6.24,6.24,6.24,6.24,6.24,6.24,6.24,6.24,6.24,6.24,6.24,6.24,6.24,6.24,6.24,6.24,6.24,6.24,6.24,6.24,6.24,6.24,6.24,6.24,6.24,6.24,6.24,6.24,6.24,6.24,6.24,6.24,6.24,6.24,6.24,6.24,6.24,6.24,6.24,6.24,6.24,6.24,6.24,6.24,6.24,6.24,6.24,5.8309,5.844,5.8658,5.8051,5.79,5.79,5.79,5.702,5.6204,5.6204,5.605,5.6145,5.6906,5.4764,5.3504,5.5337,5.394,5.3011,5.4147,5.3324,5.2604,5.2604,5.3613,5.3935,5.2989,5.5754,5.7222,5.6263,5.736,5.8406,5.9148,5.9911,6.0672,6.1467,6.2076,6.24,6.24,6.24,6.24,6.24,6.24,6.24,6.24,6.24,6.24,6.24,6.24,6.24,6.24,6.24,6.24,6.24,6.24,6.24,6.24,6.24,6.24,6.24,6.24,6.24,6.24,6.24,6.24,6.2361,6.2147,6.209,6.209,6.209,6.209,6.2147,6.2341,6.24,6.24,6.24,6.24,6.24,6.24,6.24,6.24,6.24,6.24,6.24,6.24,6.24,6.24,6.24,6.24,6.24,6.24,6.24,6.24,6.24,6.24,6.24,6.24,6.24,6.24,6.24,6.24,6.24,6.24,6.24,6.24,6.24,6.24,6.24,6.24,6.24,6.24,6.24,6.24,6.24,5.8896,5.8457,5.8017,5.7915,5.79,5.79,5.79,5.702,5.6204,5.6204,5.5454,5.4552,5.372,5.3193,5.3011,5.3287,5.226,5.1827,5.2967,5.2139,5.1433,5.1433,5.244,5.3077,5.29,5.5052,5.636,5.6224,5.7863,5.9165,5.9911,6.0706,6.1484,6.2229,6.235,6.24,6.24,6.24,6.24,6.24,6.24,6.24,6.24,6.24,6.24,6.24,6.24,6.24,6.24,6.24,6.24,6.24,6.24,6.24,6.24,6.24,6.24,6.24,6.24,6.24,6.24,6.24,6.24,6.2206,6.1156,6.0833,6.0833,6.0833,6.0833,6.1078,6.2147,6.24,6.24,6.24,6.24,6.24,6.24,6.24,6.24,6.24,6.24,6.24,6.24,6.24,6.24,6.24,6.24,6.24,6.24,6.24,6.24,6.24,6.24,6.24,6.24,6.24,6.24,6.24,6.24,6.24,6.24,6.24,6.24,6.24,6.24,6.24,6.24,6.24,6.24,6.24,6.24,6.24,5.9742,5.8299,5.7112,5.7737,5.79,5.7737,5.7076,5.6087,5.5113,5.4494,5.3461,5.2923,5.3699,5.2805,5.2177,5.2805,5.1926,5.1386,5.1873,5.1511,5.1191,5.1191,5.2207,5.2649,5.1995,5.3983,5.5048,5.441,5.6677,5.843,5.915,6.0552,6.1637,6.2383,6.24,6.24,6.24,6.24,6.24,6.24,6.24,6.24,6.24,6.24,6.24,6.24,6.24,6.24,6.24,6.24,6.24,6.24,6.24,6.24,6.24,6.24,6.24,6.24,6.24,6.1971,6.1378,6.1378,6.0933,6.0417,6.056,6.0602,6.0728,6.1419,6.1598,6.1736,6.2246,6.24,6.24,6.24,6.24,6.24,6.24,6.24,6.24,6.24,6.24,6.24,6.24,6.24,6.24,6.24,6.24,6.24,6.24,6.24,6.24,6.24,6.24,6.24,6.24,6.24,6.24,6.24,6.24,6.24,6.24,6.24,6.24,6.24,6.24,6.24,6.24,6.24,6.24,6.24,6.24,6.24,6.0249,5.8491,5.7039,5.7835,5.8022,5.7715,5.6484,5.5373,5.4274,5.3127,5.1995,5.1727,5.3433,5.2365,5.1479,5.2343,5.175,5.1191,5.1191,5.1191,5.1191,5.1191,5.1949,5.2116,5.1269,5.3011,5.3806,5.2967,5.5573,5.745,5.7994,6.0001,6.1379,6.1917,6.2226,6.24,6.24,6.24,6.24,6.24,6.24,6.24,6.24,6.24,6.24,6.24,6.24,6.24,6.24,6.24,6.24,6.24,6.24,6.24,6.2361,6.205,6.1934,6.1934,6.1934,6.1358,6.0644,6.0953,6.0438,5.9822,6.0417,6.0602,6.0807,6.1696,6.1934,6.201,6.2322,6.24,6.24,6.24,6.24,6.24,6.24,6.24,6.24,6.24,6.24,6.24,6.24,6.24,6.24,6.24,6.24,6.24,6.24,6.24,6.24,6.24,6.24,6.24,6.24,6.24,6.24,6.24,6.24,6.24,6.24,6.24,6.24,6.24,6.24,6.24,6.24,6.24,6.24,6.24,6.24,6.24,6.0039,5.9293,5.8625,5.8415,5.8363,5.7993,5.6541,5.5373,5.4274,5.3127,5.1995,5.1238,5.1339,5.1284,5.1214,5.1284,5.1238,5.1191,5.1191,5.1191,5.1191,5.1191,5.1261,5.1261,5.1214,5.2275,5.2967,5.29,5.5286,5.6739,5.6787,5.9242,6.0637,6.0686,6.1797,6.24,6.24,6.24,6.24,6.24,6.24,6.24,6.24,6.24,6.24,6.24,6.24,6.24,6.24,6.24,6.24,6.24,6.24,6.24,6.2246,6.1115,6.0686,6.0686,6.0686,6.0665,6.0807,6.1934,6.2246,6.201,6.0933,6.0602,6.0623,6.0686,6.0686,6.0953,6.209,6.24,6.24,6.24,6.24,6.24,6.24,6.24,6.24,6.24,6.24,6.24,6.24,6.24,6.24,6.24,6.24,6.24,6.24,6.24,6.24,6.24,6.24,6.24,6.24,6.24,6.24,6.24,6.24,6.24,6.24,6.24,6.24,6.24,6.24,6.24,6.24,6.24,6.24,6.24,6.24,6.24,5.9828,5.8831,5.7861,5.8499,5.7972,5.6974,5.5723,5.4443,5.3187,5.204,5.1487,5.1191,5.1191,5.1191,5.1191,5.1191,5.1191,5.1191,5.1191,5.1191,5.1191,5.1191,5.1191,5.1191,5.1191,5.158,5.1804,5.1804,5.4171,5.5613,5.5613,5.8067,5.98,6.0581,6.1016,6.1619,6.2381,6.24,6.24,6.24,6.24,6.24,6.24,6.24,6.24,6.2361,6.1578,6.1679,6.24,6.24,6.1934,6.1317,6.2107,6.1439,6.0123,6.0459,6.0602,6.0602,6.0602,6.0602,6.0665,6.1098,6.0707,6.0145,6.0518,6.0602,6.0749,6.1537,6.1756,6.1676,6.1337,6.1834,6.24,6.24,6.24,6.24,6.24,6.24,6.24,6.24,6.24,6.24,6.24,6.24,6.24,6.24,6.24,6.24,6.24,6.24,6.24,6.24,6.24,6.24,6.24,6.24,6.24,6.24,6.24,6.24,6.24,6.24,6.24,6.24,6.24,6.24,6.24,6.1619,6.1639,6.2361,6.0807,6.0501,5.975,5.8909,5.8146,5.8807,5.8265,5.7126,5.5387,5.4282,5.315,5.1533,5.1191,5.1191,5.1191,5.1191,5.1191,5.1191,5.1191,5.1191,5.1191,5.1191,5.1191,5.1191,5.1191,5.1191,5.1191,5.1191,5.1191,5.1191,5.3172,5.4396,5.4396,5.6815,5.8751,5.9951,6.0395,6.0974,6.1777,6.2206,6.24,6.24,6.24,6.24,6.24,6.24,6.2186,6.1756,6.0953,6.1057,6.1756,6.1358,6.0707,6.008,6.0891,6.0209,5.8857,5.9242,5.9653,5.9994,5.9994,6.0268,6.0602,6.0602,6.0059,5.9478,5.9887,5.9994,6.0166,6.0974,6.1197,6.1094,6.0707,6.1497,6.24,6.24,6.24,6.24,6.24,6.24,6.24,6.24,6.24,6.24,6.24,6.24,6.24,6.24,6.205,6.1797,6.1797,6.1439,6.1197,6.1197,6.1197,6.1197,6.1197,6.1558,6.1619,6.1218,6.1578,6.1598,6.1197,6.1197,6.1197,6.1197,6.1197,6.1378,6.1797,6.1399,6.1619,6.2341,6.0332,5.961,0.0,0.0,0.0,5.9373,5.9278,5.8536,5.5716,5.5004,5.4235,5.1754,5.1229,5.1191,5.1191,5.1191,5.1191,5.1191,5.1191,5.1191,5.1191,5.1191,5.1191,5.1191,5.1191,5.1191,5.1191,5.1191,5.1191,5.1191,5.2441,5.3198,5.3198,5.5612,5.7527,5.87,5.993,6.0565,6.0602,6.1756,6.2361,6.24,6.24,6.2381,6.2341,6.2341,6.1696,6.0544,6.0501,6.048,6.0417,5.928,5.8767,5.8745,5.879,5.8767,5.8564,5.7426,5.7738,5.8745,5.8745,5.9544,6.056,6.056,6.056,6.0332,5.9147,5.879,5.879,5.879,5.8835,5.9125,6.0332,6.1497,6.2361,6.2381,6.24,6.24,6.24,6.2361,6.2361,6.2381,6.24,6.2398,6.2341,6.2341,6.2341,6.2336,6.1329,6.0572,6.0609,5.9587,5.8838,5.8822,5.8822,5.8806,5.879,5.9887,6.0037,5.888,5.9908,6.0016,5.8857,5.879,5.879,5.879,5.879,5.9368,6.0544,6.1696,6.2302,6.2361,6.1156,5.993,5.9826,0.0,0.0,0.0,0.0,0.0,5.7058,5.5288,5.3636,5.2932,5.1942,5.1191,5.1191,5.1191,5.1191,5.1191,5.1191,5.1191,5.1191,5.1191,5.1191,5.1191,5.1191,5.1191,5.1191,5.1191,5.1191,5.1191,5.2441,5.3198,5.3198,5.5612,5.7142,5.748,5.8661,5.9735,6.0602,6.0933,6.1537,6.24,6.24,6.1934,6.1094,6.1094,6.0438,5.9258,5.8367,5.8,5.8046,5.8587,5.8291,5.7574,5.8474,5.773,5.6256,5.68,5.7213,5.7504,5.7504,5.8275,5.9302,5.9302,5.9302,5.9236,5.8902,5.879,5.879,5.879,5.9434,6.0374,6.1578,6.1497,6.1317,6.2186,6.24,6.24,6.24,6.1716,6.1358,6.2226,6.24,6.211,6.1238,6.1094,6.0973,6.0571,6.0255,6.0171,6.0609,6.0376,6.0,5.9583,5.9519,5.9327,5.8838,5.9103,5.9147,5.8812,5.9103,5.9147,5.8812,5.879,5.879,5.879,5.879,5.8969,5.9302,5.8774,5.9832,6.2361,6.1156,5.95,0.0,0.0,5.9694,5.9694,0.0,0.0,5.6996,5.5442,5.3929,5.2732,5.1812,5.1191,5.1191,5.1191,5.1191,5.1191,5.1191,5.1191,5.1191,5.1191,5.1191,5.1191,5.1191,5.1191,5.1191,5.1191,5.1191,5.1191,5.2187,5.3034,5.3578,5.5277,5.6241,5.6241,5.7426,5.8389,5.9087,6.0102,6.0953,6.1639,6.1639,6.1296,6.0565,6.008,5.9192,5.8016,5.7308,5.6704,5.629,5.7007,5.6887,5.6314,5.703,5.6436,5.528,5.6001,5.6574,5.6999,5.6999,5.7784,5.8722,5.8223,5.8062,5.7946,5.7449,5.766,5.8062,5.8062,5.9286,6.0749,6.1476,6.1497,6.1537,6.2226,6.24,6.24,6.24,6.1439,6.0953,6.2167,6.1578,6.0911,6.0997,6.0603,6.0246,6.0179,5.975,5.9562,5.9917,5.9522,5.9065,5.8716,5.8669,5.8513,5.8133,5.8538,5.8523,5.776,5.8193,5.8098,5.7339,5.73,5.73,5.73,5.73,5.73,5.73,5.7613,5.8594,6.0128,5.944,5.8344,0.0,0.0,0.0,5.9694,5.9694,0.0,5.6541,5.585,5.4997,5.2448,5.1797,5.1682,5.1682,5.1682,5.1682,5.1682,5.1551,5.1398,5.1229,5.1191,5.1191,5.1191,5.1191,5.1191,5.1191,5.1191,5.1191,5.1191,5.1828,5.2785,5.4147,5.476,5.5119,5.5194,5.6241,5.6872,5.6999,5.9131,6.0251,6.0395,6.0395,6.0332,6.0166,5.9103,5.7946,5.68,5.68,5.6207,5.5194,5.5194,5.5194,5.5194,5.5194,5.5194,5.5194,5.5194,5.5893,5.68,5.68,5.7504,5.8223,5.7142,5.68,5.6599,5.5526,5.6035,5.7047,5.7316,5.8953,6.0623,6.077,6.1598,6.24,6.24,6.2302,6.2206,6.2206,6.1156,6.0576,6.1857,6.0383,5.9402,6.0935,6.037,5.9857,6.0345,5.9501,5.8837,5.8899,5.7986,5.7289,5.7214,5.7214,5.7169,5.7109,5.8085,5.8018,5.6404,5.7312,5.7161,5.5469,5.5344,5.5299,5.5299,5.5224,5.5194,5.5219,5.7613,5.8177,5.6999,5.7142,5.7118,5.9401,5.9694,5.9694,5.9694,5.9694,0.0,5.9015,5.7997,5.7035,5.6474,5.5458,5.4666,5.4666,5.4666,5.4666,5.4666,5.3707,5.2563,5.1359,5.1191,5.1191,5.1191,5.1191,5.1191,5.1191,5.1191,5.1191,5.1191,5.1828,5.2785,5.4147,5.4326,5.464,5.5179,5.5441,5.6026,5.6976,5.7457,5.8184,5.9147,5.9147,5.8639,5.7675,5.7457,5.6695,5.5551,5.5551,5.5416,5.5194,5.5194,5.5194,5.5194,5.5194,5.5194,5.5194,5.5194,5.534,5.5551,5.5551,5.571,5.5869,5.5626,5.5551,5.5516,5.5255,5.6035,5.741,5.9352,6.023,6.0812,6.1797,6.2226,6.24,6.24,6.1676,6.0953,6.0953,5.9242,5.8204,5.9961,5.9933,5.9395,5.8822,5.8909,5.8962,5.8652,5.8398,5.8452,5.8979,5.8871,5.8501,5.795,5.789,5.7708,5.7139,5.7314,5.7305,5.6941,5.7159,5.7125,5.6746,5.6267,5.5998,5.5998,5.5463,5.5194,5.5219,5.7613,5.8177,5.7023,5.7993,5.7923,5.9324,5.9694,5.9694,5.9694,5.9694,0.0,0.0,5.8106,5.7404,5.6703,5.598,5.5503,5.5503,5.5503,5.5503,5.5503,5.4305,5.3147,5.2395,5.1643,5.1191,5.1191,5.1191,5.1191,5.1191,5.1191,5.1191,5.1191,5.1828,5.2636,5.3653,5.4027,5.4521,5.5164,5.5194,5.5476,5.61,5.6695,5.7308,5.79,5.79,5.7574,5.6991,5.6387,5.5769,5.5194,5.5194,5.5194,5.5194,5.5194,5.5194,5.5194,5.5194,5.5194,5.5194,5.5194,5.5194,5.5194,5.5194,5.5194,5.5194,5.5194,5.5626,5.6085,5.6085,5.7355,5.9176,6.0995,6.1497,6.1656,6.2226,6.1954,6.1497,6.1497,6.0581,5.9697,5.9697,5.8275,5.7368,5.8649,5.865,5.8569,5.89,5.8705,5.8527,5.8581,5.8593,5.8713,5.9069,5.9099,5.8979,5.8623,5.8593,5.8471,5.8126,5.8097,5.7947,5.7633,5.7603,5.7453,5.7109,5.6821,5.6656,5.6656,5.6028,5.5713,5.5698,5.658,5.6686,5.6109,5.6735,5.6991,5.9254,5.9694,5.9694,5.9694,5.9694,5.9401,0.0,0.0,0.0,5.6541,5.6318,5.6318,5.6318,5.6318,5.6318,5.6318,5.5127,5.4206,5.4206,5.2939,5.1812,5.1268,5.1191,5.1191,5.1191,5.1191,5.1191,5.1191,5.1708,5.2291,5.2974,5.3638,5.4311,5.4985,5.5119,5.5194,5.5194,5.6183,5.6647,5.6647,5.6647,5.6647,5.6623,5.5635,5.5194,5.5194,5.5194,5.5194,5.5194,5.5194,5.5194,5.5194,5.5194,5.5194,5.5194,5.5194,5.5194,5.5194,5.5194,5.5194,5.5194,5.5194,5.5869,5.6743,5.7213,5.8706,6.0501,6.1716,6.205,6.201,6.1756,6.0974,6.0251,6.0251,5.9346,5.8451,5.8451,5.7613,5.7047,5.7691,5.7557,5.7763,5.9292,5.8843,5.8474,5.9024,5.9099,5.9099,5.9099,5.9099,5.9099,5.9099,5.9099,5.9099,5.9099,5.9099,5.8875,5.8324,5.8279,5.804,5.7513,5.7363,5.7229,5.7094,5.6626,5.6372,5.6372,5.5728,5.5339,5.5194,5.5194,5.5735,5.8976,5.9694,5.9694,5.9694,5.9694,5.9662,5.9493,0.0,5.9417,5.9254,0.0,5.9216,5.9216,0.0,0.0,5.9216,5.8052,5.7105,5.7105,5.5904,5.4067,5.1513,5.1191,5.1191,5.1191,5.1191,5.1191,5.1191,5.1265,5.1618,5.2276,5.2935,5.3608,5.4296,5.488,5.5194,5.5194,5.5355,5.5391,5.5391,5.5391,5.5391,5.5391,5.5255,5.5194,5.5194,5.5194,5.5194,5.5194,5.5194,5.5194,5.5194,5.5194,5.5194,5.5194,5.5194,5.5194,5.5194,5.5194,5.5194,5.5194,5.5194,5.528,5.5794,5.7946,5.879,5.9258,6.0459,6.0791,6.056,5.9478,5.9103,5.9014,5.9014,5.8069,5.7213,5.7213,5.6714,5.6468,5.7073,5.7633,5.8048,5.8282,5.8671,5.9024,5.9099,5.9099,5.9099,5.9099,5.9099,5.9099,5.9099,5.9099,5.9099,5.9099,5.9099,5.9069,5.8994,5.8994,5.8964,5.8875,5.8294,5.7723,5.7109,5.7019,5.6989,5.6989,5.6387,5.5788,5.5194,5.5194,5.528,5.9161,5.9085,5.8677,5.9493,5.9085,5.8699,5.9509,5.9694,5.9694,5.9694,0.0,0.0,0.0,0.0,0.0,0.0,5.8514,5.7605,5.7605,5.6388,5.5035,5.3837,5.3707,5.3354,5.2563,5.1697,5.1191,5.1191,5.1191,5.1475,5.2157,5.2854,5.3503,5.4192,5.485,5.5194,5.5194,5.5194,5.5194,5.5194,5.5194,5.5194,5.5194,5.5194,5.5194,5.5194,5.5194,5.5194,5.5194,5.5194,5.5194,5.5194,5.5194,5.5194,5.5194,5.5194,5.5194,5.5194,5.5194,5.5194,5.533,5.6026,5.6241,5.6566,5.8291,5.879,5.8902,5.9412,5.956,5.9434,5.8925,5.8291,5.7761,5.7761,5.6839,5.5952,5.5952,5.5762,5.5897,5.69,5.7334,5.7782,5.856,5.8919,5.9099,5.9099,5.9099,5.9099,5.9099,5.9099,5.9099,5.9099,5.9099,5.9099,5.9099,5.9099,5.9099,5.9099,5.9099,5.9099,5.9099,5.8845,5.856,5.8261,5.7887,5.7693,5.7693,5.7034,5.6402,5.5773,5.5384,5.5194,5.8166,5.809,5.7844,5.8862,5.8661,5.8437,5.9455,5.9694,5.9694,5.9694,5.9694,0.0,0.0,0.0,5.9694,5.9694,0.0,5.8176,5.8176,5.7296,5.6356,5.5595,5.5503,5.5112,5.406,5.2655,5.1812,5.1812,5.1436,5.14,5.1902,5.2561,5.3219,5.3907,5.4581,5.4999,5.5194,5.5194,5.5194,5.5194,5.5194,5.5194,5.5194,5.5194,5.5194,5.5194,5.5194,5.5194,5.5194,5.5194,5.5194,5.5194,5.5194,5.5194,5.5194,5.5194,5.5194,5.5194,5.5194,5.5194,5.534,5.6216,5.6517,5.6719,5.7946,5.8314,5.8314,5.8314,5.8314,5.8223,5.79,5.7158,5.6517,5.6517,5.5844,5.5194,5.5194,5.5329,5.5803,5.6885,5.7244,5.7752,5.8904,5.9099,5.9099,5.9099,5.9099,5.9099,5.9099,5.9099,5.9099,5.9099,5.9099,5.9099,5.9099,5.9099,5.9099,5.9099,5.9099,5.9099,5.9099,5.9099,5.9099,5.9099,5.8608,5.8369,5.8369,5.7708,5.7049,5.6432,5.5788,5.5384,5.5258,5.6588,5.7605,5.7659,5.8661,5.964,5.9678,5.9694,5.9694,5.9694,5.9694,5.9694,5.9694,5.9694,5.9694,0.0,5.9662,0.0,0.0,5.9586,5.8536,5.5818,5.5503,5.5481,5.5427,5.4175,5.3331,5.3331,5.2019,5.1206,5.1221,5.1872,5.2531,5.3213,5.3877,5.4536,5.5179,5.5194,5.5194,5.5194,5.5194,5.5194,5.5194,5.5194,5.5194,5.5194,5.5194,5.5194,5.5194,5.5194,5.5194,5.5194,5.5194,5.5194,5.5194,5.5194,5.5194,5.5194,5.5194,5.5194,5.5219,5.5255,5.527,5.5476,5.6695,5.7047,5.7047,5.7047,5.7047,5.6791,5.5626,5.528,5.527,5.527,5.5244,5.5194,5.5194,5.5713,5.6357,5.6974,5.7633,5.8279,5.8979,5.9099,5.9099,5.9099,5.9099,5.9099,5.9099,5.9099,5.9099,5.9099,5.9099,5.9099,5.9099,5.9099,5.9099,5.9099,5.9099,5.9099,5.9099,5.9099,5.9099,5.9099,5.9084,5.9069,5.9069,5.8384,5.7711,5.7049,5.6447,5.5833,5.5373,5.5181,5.5266,5.7143,5.7258,5.7411,5.9292,5.9694,5.9439,5.8514,5.9047,5.9417,5.8476,5.9069,5.9694,0.0,0.0,5.9694,0.0,5.9694,5.9346,5.8389,5.7443,5.6888,5.6888,5.4766,5.3407,5.3407,5.2019,5.1191,5.1191,5.1843,5.2501,5.3183,5.3847,5.4521,5.5179,5.5194,5.5194,5.5194,5.5194,5.5194,5.5194,5.5194,5.5194,5.5194,5.5194,5.5194,5.5194,5.5194,5.5194,5.5194,5.5194,5.5194,5.5194,5.5194,5.5194,5.5194,5.5194,5.5194,5.5194,5.5194,5.5194,5.528,5.5685,5.5819,5.5819,5.5819,5.5819,5.571,5.5305,5.5194,5.5194,5.5194,5.5194,5.5194,5.5194,5.5384,5.5863,5.69,5.7274,5.7797,5.8919,5.9099,5.9099,5.9099,5.9099,5.9099,5.9099,5.9099,5.9099,5.9099,5.9099,5.9099,5.9099,5.9099,5.9099,5.9099,5.9099,5.9099,5.9099,5.9099,5.9099,5.9099,5.9099,5.9099,5.9099,5.8875,5.8426,5.7767,5.7094,5.6211,5.3968,5.3691,5.3853,5.5642,5.5796,5.5965,5.7796,5.8204,5.7943,5.7035,5.7959,5.8514,5.7111,5.8405,5.9548,0.0,0.0,5.9694,0.0,5.9694,5.9694,5.9694,5.89,5.816,5.7643,5.5958,5.4467,5.3476,5.2525,5.1758,5.1229,5.1594,5.2261,5.3183,5.3608,5.4281,5.5179,5.5194,5.5194,5.5194,5.5194,5.5194,5.5194,5.5194,5.5194,5.5194,5.5194,5.5194,5.5194,5.5194,5.5194,5.5194,5.5194,5.5194,5.5194,5.5194,5.5194,5.5194,5.5194,5.5194,5.5194,5.5194,5.5194,5.5194,5.5194,5.5194,5.5239,5.5504,5.5374,5.5239,5.5504,5.5384,5.5194,5.5194,5.5194,5.5194,5.5194,5.5194,5.5508,5.6581,5.6765,5.7199,5.853,5.8728,5.8845,5.9069,5.9099,5.9099,5.9099,5.9099,5.9099,5.9099,5.9099,5.9099,5.9099,5.9099,5.9099,5.9099,5.9099,5.9099,5.9099,5.9099,5.9099,5.9099,5.9099,5.9099,5.9099,5.9099,5.8635,5.7711,5.7304,5.6421]}]]